GFSGL_250_spd_000.txt.gz
Wind_Speed
51 53 53 52 51 51 54 55 56 58 61 56 56 57 60 57 62 62 59 60 57 62 64 67 59 66 74 79 82 85 78 69 52 61 62 61 60 63 70 77 76 74 73
54 54 53 54 56 55 58 60 58 69 61 56 57 58 59 62 62 65 64 61 62 69 69 68 66 63 85 88 88 90 87 82 60 53 65 71 63 59 64 69 78 78 77
55 55 55 55 55 58 61 67 63 53 50 57 60 62 67 66 64 67 65 65 71 68 68 65 63 76 80 90 91 92 95 90 59 49 60 68 68 59 56 64 70 81 80
57 57 58 59 59 65 64 76 50 49 56 61 65 70 71 66 70 69 69 69 71 68 70 71 66 76 89 95 95 102 105 77 63 53 53 64 64 61 54 53 65 71 81
62 61 62 61 62 62 53 65 59 59 67 64 68 71 74 78 71 68 67 70 72 75 70 64 63 73 102 98 106 107 111 77 63 51 50 56 62 60 60 54 58 65 72
64 66 65 62 55 42 48 69 77 71 73 69 74 83 78 74 71 72 75 74 69 80 73 73 72 89 103 107 109 110 117 76 66 56 45 45 55 57 61 58 54 58 65
63 66 62 58 47 48 51 59 70 76 76 74 83 87 80 73 74 73 78 77 75 75 66 72 92 104 105 107 114 116 105 84 75 60 46 40 47 56 60 61 57 50 52
61 62 61 57 50 50 48 54 62 72 83 87 84 87 85 78 77 79 73 64 65 67 69 84 98 100 105 105 114 119 97 88 80 58 44 42 42 54 58 59 58 56 56
66 67 62 55 51 46 48 58 67 77 82 81 84 90 80 79 75 66 58 62 62 68 81 93 99 108 106 113 115 112 98 96 82 62 46 39 42 48 53 54 59 60 61
67 66 65 66 53 48 58 63 68 75 81 81 82 73 57 58 58 60 57 61 74 91 113 109 107 106 108 114 116 105 104 95 84 60 49 41 37 38 47 50 56 58 63
69 67 64 59 53 48 51 53 61 71 74 75 71 58 37 37 55 63 72 79 94 108 115 113 110 111 113 110 107 102 95 96 78 58 48 40 33 32 37 45 52 55 56
70 63 61 54 51 50 54 58 58 59 62 68 71 57 42 54 70 79 85 93 100 113 115 108 112 114 111 112 111 99 95 87 69 55 43 38 32 29 32 37 43 46 51
69 64 56 51 51 52 58 57 58 63 69 69 70 67 65 70 72 82 93 101 104 112 111 111 111 113 112 114 105 97 89 75 60 48 38 35 27 25 26 27 28 34 44
68 51 53 44 50 50 63 63 63 66 65 71 75 79 89 92 91 89 98 104 107 107 108 106 109 111 112 101 99 91 81 68 53 42 33 31 25 24 23 21 23 30 35
67 58 46 54 56 58 65 67 70 77 83 86 88 88 90 87 93 97 100 104 101 101 105 106 109 104 99 99 95 84 73 59 45 37 30 29 26 24 20 18 20 19 25
68 56 55 70 68 76 77 80 78 77 76 83 87 90 96 97 98 94 96 94 97 101 101 96 95 100 97 93 83 76 62 50 39 32 28 29 25 23 23 18 15 17 19
73 79 75 73 75 80 83 86 88 91 94 95 96 100 96 92 96 81 83 84 87 92 97 100 100 96 90 82 75 63 53 44 34 29 30 30 26 24 23 22 19 19 21
79 81 83 78 76 79 82 82 86 90 94 99 99 94 82 76 88 91 94 96 100 100 94 91 90 83 77 67 59 54 42 39 32 29 33 32 29 26 24 21 18 17 22
88 89 81 80 81 80 82 89 90 94 97 93 80 79 87 92 94 100 102 97 92 89 85 82 76 66 58 55 49 43 38 35 31 30 34 35 32 27 24 22 21 21 25
96 85 80 81 83 88 90 89 94 98 84 80 87 89 93 97 101 95 86 82 78 72 66 62 57 52 49 44 41 37 35 34 31 32 36 39 37 31 26 21 20 24 33
86 85 89 88 87 92 95 102 95 83 90 91 94 97 100 92 82 77 71 66 62 58 55 52 52 47 42 40 37 35 33 33 33 33 36 44 42 36 31 26 25 29 36
90 94 93 91 95 98 96 87 90 93 95 97 98 95 82 75 68 64 63 61 57 53 50 47 45 43 40 37 34 32 31 30 33 33 35 47 48 43 36 31 34 33 42
87 91 94 94 93 92 93 97 100 100 99 96 84 77 71 65 60 57 56 52 49 46 45 42 39 37 36 34 31 29 28 28 30 33 34 44 52 50 44 40 38 43 51
83 88 91 93 97 99 100 98 98 95 88 80 73 67 62 58 55 50 47 44 41 38 35 31 31 30 30 28 26 25 25 26 29 31 34 35 53 55 51 45 42 42 59
92 93 95 97 96 93 91 86 81 75 70 66 63 59 55 50 44 40 37 35 33 32 32 29 29 28 26 24 21 20 21 21 23 29 31 35 40 59 57 52 48 44 61
90 85 79 74 72 69 67 65 63 62 61 58 55 52 48 44 42 39 37 34 32 30 32 30 29 28 25 23 21 21 21 22 22 23 24 30 34 49 63 60 54 52 58

GFSGL_250_spd_003.txt.gz
Wind_Speed
43 44 45 47 49 50 51 51 53 57 50 52 47 41 44 45 48 53 54 51 49 56 58 69 67 66 60 66 65 70 66 70 80 86 87 84 73 51 54 54 66 73 79
44 47 48 51 51 54 53 55 55 52 44 58 53 52 53 48 60 61 58 56 56 66 68 69 65 68 68 65 67 65 68 72 86 88 87 91 86 58 53 55 54 70 76
50 52 54 55 54 52 55 53 52 50 45 61 65 58 57 63 70 68 63 64 72 75 74 72 69 73 69 78 64 68 73 81 90 97 92 97 80 72 55 55 51 52 71
54 55 56 54 52 51 51 52 52 55 53 56 63 60 55 68 75 73 76 74 77 74 74 77 71 73 72 65 62 73 86 87 98 101 99 92 83 70 55 50 53 47 52
58 57 55 52 52 49 46 49 46 45 50 62 67 67 67 70 70 76 75 78 79 77 78 70 79 79 79 67 63 81 91 99 103 103 95 87 78 72 55 46 46 48 51
62 59 56 52 49 50 49 41 48 47 49 70 73 75 76 80 85 89 84 88 88 87 84 79 85 89 83 70 74 90 98 103 109 110 108 100 82 68 51 46 42 47 51
61 58 54 52 55 55 55 51 50 53 52 61 73 78 78 79 80 82 83 87 87 89 83 89 90 83 80 80 86 99 106 107 108 115 113 96 83 66 49 45 42 44 50
60 57 56 56 59 60 58 55 56 61 68 73 79 80 80 80 83 87 88 88 90 84 86 74 76 81 86 85 96 102 104 107 113 116 108 90 82 66 52 42 40 43 47
57 58 60 59 62 66 63 67 68 68 65 71 77 77 83 86 84 85 84 77 77 75 74 74 79 83 91 97 98 98 106 112 116 111 98 85 73 63 49 42 37 42 44
62 64 66 67 69 69 72 70 68 62 64 70 76 78 80 80 81 82 78 69 69 72 75 83 90 90 93 97 100 106 116 115 116 101 92 77 71 58 45 38 35 41 41
67 68 73 74 73 72 72 74 71 68 68 68 72 77 76 78 81 80 77 71 72 73 79 87 90 95 99 103 106 111 113 112 101 97 84 75 61 48 39 35 33 36 37
73 75 76 74 76 74 70 68 68 70 65 66 68 70 68 70 75 76 79 80 80 86 91 94 96 94 94 102 103 103 101 101 93 85 78 65 54 40 31 29 30 32 34
75 76 76 76 72 72 72 72 70 65 59 57 60 62 73 75 76 77 80 77 81 85 90 93 97 95 94 98 96 92 94 93 87 77 67 55 44 32 25 25 26 27 31
75 71 71 66 70 71 69 66 63 62 63 69 73 73 74 72 70 70 76 81 85 87 91 94 91 88 85 87 93 92 95 89 77 67 59 48 35 28 22 23 24 27 30
70 65 66 71 75 69 67 72 70 69 73 78 77 74 73 70 68 74 79 82 87 93 89 83 84 89 96 97 99 91 81 76 68 61 51 39 30 25 21 24 24 24 26
69 71 71 70 66 64 68 72 76 77 83 82 76 77 77 74 77 81 84 86 89 83 83 88 94 99 102 100 83 77 72 66 57 48 41 32 25 23 22 25 24 22 20
73 73 70 72 69 72 78 79 79 83 85 77 73 75 80 82 81 84 85 89 88 84 91 98 102 104 91 82 76 67 60 55 46 41 31 27 23 24 24 27 26 23 19
71 67 72 75 79 82 82 88 87 88 86 82 79 85 82 83 85 89 92 87 89 95 100 104 95 83 79 71 65 58 51 46 41 33 27 25 23 27 28 28 26 22 22
76 77 78 79 83 86 88 90 94 96 91 86 86 87 85 85 89 88 86 91 97 104 99 82 78 73 69 62 57 53 47 42 37 30 24 24 24 31 32 30 27 22 22
83 86 86 87 91 93 96 98 95 86 81 83 85 85 85 85 86 89 94 98 100 87 78 72 68 64 60 56 53 48 43 38 34 29 24 24 26 34 35 31 29 23 23
91 89 92 95 99 94 91 89 87 83 81 79 83 86 90 93 95 98 99 93 79 70 66 62 59 56 52 49 45 41 37 34 31 28 25 26 28 35 39 33 30 24 26
91 92 96 100 91 83 82 84 84 84 86 89 92 95 97 99 97 87 74 68 61 58 56 53 49 47 46 43 40 36 32 29 27 25 25 26 30 34 42 37 33 27 28
84 83 79 79 80 82 85 88 91 94 96 97 97 95 90 81 72 69 61 56 50 49 48 45 42 40 38 35 33 30 27 25 23 23 24 25 30 34 45 43 38 32 32
76 78 82 84 86 89 94 97 99 96 90 83 78 72 70 65 60 55 52 47 44 42 40 39 38 36 34 32 30 28 24 23 21 21 22 23 27 35 43 48 43 38 34
81 84 88 93 97 99 98 88 76 71 67 64 63 62 60 55 52 49 46 45 43 41 40 37 35 33 32 31 29 27 26 24 21 20 21 21 24 32 38 51 47 43 41
88 91 93 94 93 83 71 64 61 60 58 57 54 53 52 49 46 45 43 41 39 39 39 38 36 34 32 30 28 27 27 25 22 20 20 19 19 25 35 46 53 49 45

GFSGL_250_spd_006.txt.gz
Wind_Speed
39 38 36 38 41 44 47 48 49 49 45 42 41 45 45 47 50 51 51 52 56 60 62 58 58 64 70 60 61 61 63 62 52 54 63 66 73 75 77 77 63 64 48
43 40 40 42 44 48 50 53 49 47 46 44 41 43 46 53 49 48 57 57 60 65 62 63 69 71 63 63 66 58 64 61 55 55 60 75 77 85 88 72 82 74 54
46 44 44 46 50 51 54 54 50 48 44 42 43 53 59 54 53 56 61 65 64 66 70 70 70 70 67 64 65 70 62 58 61 60 67 74 83 88 90 88 95 73 49
50 49 49 52 55 54 55 48 42 47 48 47 47 51 56 61 65 66 67 68 70 72 70 71 69 73 74 75 68 62 62 62 64 67 73 79 86 89 91 95 96 79 51
54 55 57 57 58 58 51 45 42 46 49 49 56 54 55 62 65 68 71 72 74 79 71 72 76 80 76 72 75 69 70 67 70 74 78 85 92 94 95 102 92 67 53
59 61 62 62 60 54 53 48 48 47 50 54 56 57 61 62 69 72 73 73 79 82 82 82 81 78 77 72 76 71 71 73 77 82 90 90 96 97 99 86 78 54 48
65 66 64 62 59 55 53 51 52 54 55 56 63 63 65 70 71 72 78 82 84 80 80 80 75 70 70 72 73 72 74 79 85 86 86 89 95 100 90 78 67 55 44
70 68 66 65 59 55 52 54 57 61 64 68 68 69 69 69 71 73 74 77 81 81 78 77 73 74 69 72 75 79 82 80 81 88 93 94 97 93 77 69 64 54 46
71 69 68 65 62 59 59 61 63 68 69 70 71 74 73 66 71 73 75 77 76 74 68 67 67 68 71 74 76 79 81 88 90 94 98 90 81 76 67 66 61 51 44
74 72 68 64 64 64 64 67 70 72 72 72 73 69 68 69 71 75 70 63 66 66 70 70 72 76 75 77 79 80 86 89 91 91 78 74 77 74 63 57 51 48 40
72 70 70 67 64 66 71 73 75 75 73 71 71 71 71 72 71 69 65 65 68 70 73 71 67 71 70 75 80 84 87 87 79 77 78 79 76 67 55 50 47 43 37
70 71 71 71 71 73 74 75 75 73 71 70 72 72 73 70 68 66 70 75 77 78 73 70 69 73 77 78 79 80 74 76 77 80 83 78 67 57 50 44 41 37 32
69 71 72 72 75 77 77 76 76 75 74 75 75 67 67 71 74 77 78 73 74 72 74 74 75 77 78 77 74 74 80 81 85 86 76 64 60 53 44 38 33 33 29
71 72 73 74 75 75 74 74 74 75 76 74 70 73 73 76 75 76 76 80 78 77 77 77 78 77 77 77 79 82 84 87 87 70 62 54 47 42 36 31 28 30 27
73 74 75 74 73 72 73 73 74 77 79 78 76 75 77 79 80 83 85 87 84 80 79 77 77 79 81 81 84 86 86 82 67 59 52 47 42 35 32 27 27 27 26
74 75 75 71 74 71 72 74 78 81 80 78 78 78 79 82 85 87 93 89 80 77 75 76 78 82 85 87 89 84 74 67 59 52 44 39 36 31 26 25 26 27 25
73 72 72 69 71 74 76 81 84 81 82 82 84 83 86 90 91 88 78 78 77 76 78 82 86 88 91 88 81 67 63 60 54 45 41 37 32 25 23 25 27 28 25
69 68 68 72 74 79 83 81 80 81 81 83 83 85 88 85 81 77 77 76 81 84 86 89 90 91 85 72 66 62 57 52 47 40 37 33 28 26 24 26 29 29 25
70 72 74 75 80 83 84 83 83 82 83 84 86 84 80 77 78 78 82 85 89 92 93 92 89 74 65 61 58 56 51 47 42 37 33 30 27 24 25 27 29 28 25
74 76 76 81 83 84 85 86 85 84 83 80 78 77 81 84 84 86 91 93 95 91 85 72 64 61 57 53 51 47 43 40 38 35 31 29 26 26 26 30 31 30 27
77 79 82 81 83 84 83 81 81 80 80 81 84 83 87 90 93 93 92 86 77 67 62 60 55 51 48 46 43 40 37 34 32 30 28 27 26 27 29 32 34 32 30
77 80 82 81 80 80 79 79 79 81 85 86 87 90 93 94 90 80 70 66 59 57 54 50 47 44 44 43 39 36 33 30 29 27 25 24 25 26 30 34 37 34 31
78 79 77 77 78 78 77 79 84 87 89 91 92 94 91 79 69 64 58 55 53 50 48 46 43 42 40 40 38 35 31 27 25 23 21 20 23 24 27 34 40 37 34
77 77 77 76 77 79 81 84 88 90 93 93 94 83 72 67 61 55 52 49 47 43 42 41 40 40 38 36 34 32 30 27 24 21 19 18 19 22 25 33 38 39 39
76 76 76 78 80 83 85 89 91 92 92 88 75 68 61 57 54 48 44 44 41 40 38 39 39 38 36 35 32 31 28 26 23 21 18 17 15 18 23 29 37 40 43
77 79 81 83 86 88 89 91 91 90 81 71 62 55 48 44 43 42 41 40 39 38 39 38 38 37 35 33 32 29 28 25 22 22 19 16 15 16 19 26 35 40 45

GFSGL_250_spd_009.txt.gz
Wind_Speed
37 35 36 36 36 38 40 41 46 51 53 54 47 44 42 41 45 46 47 50 54 55 59 59 61 58 60 65 60 50 49 51 50 52 55 58 59 51 57 62 60 63 69
40 40 41 39 40 42 42 44 49 53 57 54 48 44 46 46 46 48 51 52 53 57 61 64 64 66 61 62 54 54 55 53 49 52 60 61 64 56 59 64 67 73 74
44 45 45 44 44 44 46 49 53 55 59 56 49 47 48 51 50 50 56 58 62 63 64 67 62 59 62 60 62 57 59 61 59 53 53 57 58 58 62 68 72 75 69
50 49 48 49 48 49 51 54 54 57 56 56 51 50 51 52 54 56 63 63 64 67 69 71 73 77 82 76 65 64 69 66 57 55 51 50 62 67 69 73 66 74 79
54 52 52 54 53 54 56 57 57 56 56 56 52 53 54 58 60 66 68 68 68 68 70 73 79 82 78 74 70 66 61 60 58 56 54 63 65 70 73 71 78 88 87
55 54 56 59 59 58 60 61 60 58 55 55 53 55 58 61 65 66 70 72 69 70 70 71 72 71 72 73 67 66 67 68 65 64 67 70 72 75 77 83 91 88 80
57 60 63 62 62 64 64 63 59 59 56 55 54 56 59 63 69 72 72 70 68 68 69 69 70 72 71 71 71 71 72 64 61 60 66 71 70 80 89 94 92 80 74
64 66 67 67 66 66 66 65 64 62 61 60 57 58 61 67 70 73 73 70 71 67 65 69 69 66 67 71 68 66 66 67 65 74 81 74 84 85 85 83 76 74 78
71 71 71 72 70 71 70 68 67 67 65 62 63 65 67 70 72 73 72 71 66 67 73 71 71 70 73 76 75 72 68 68 69 71 78 81 83 79 76 73 75 76 76
75 75 75 74 75 73 72 72 71 69 69 70 70 72 72 71 74 75 72 73 65 69 71 69 68 81 80 71 69 70 72 74 76 78 77 76 77 79 78 78 79 74 60
78 77 77 75 76 76 75 74 73 71 71 73 74 76 74 74 74 73 69 71 70 69 72 77 78 75 74 75 74 73 74 76 73 70 73 73 76 77 76 72 63 60 55
81 79 78 77 76 76 74 74 73 74 76 76 76 77 77 76 73 73 73 70 74 82 88 86 77 83 81 76 74 72 68 67 67 71 75 77 77 77 72 59 55 50 46
82 82 80 78 75 76 76 74 74 76 76 76 79 81 79 78 77 72 71 87 88 88 86 84 82 81 74 69 69 69 70 73 75 77 79 78 75 65 57 50 46 43 41
83 82 79 76 75 74 76 78 78 77 76 79 82 82 80 80 81 86 89 92 90 89 85 84 80 75 72 70 70 76 77 79 81 79 77 71 59 54 47 42 40 36 34
80 78 77 75 74 78 79 79 79 78 81 81 82 81 81 81 87 91 93 91 87 84 82 74 74 75 75 77 78 81 82 83 81 75 61 56 53 46 39 37 34 30 31
78 79 78 77 78 80 78 78 80 80 81 82 83 84 85 87 91 90 87 82 82 79 78 77 78 80 82 86 86 86 82 78 71 61 55 48 44 42 36 32 30 27 29
78 77 79 80 79 79 82 83 83 80 82 84 84 85 87 89 87 85 81 80 78 82 82 84 83 85 87 87 85 77 71 61 57 53 52 46 41 37 31 27 25 23 27
79 80 76 79 81 81 79 79 77 79 80 81 84 88 88 86 84 83 82 80 83 83 87 86 89 89 86 77 67 62 59 53 49 49 47 42 37 34 29 26 25 25 29
70 72 74 74 73 74 75 77 80 80 78 81 86 85 85 84 84 82 83 84 85 87 89 88 83 72 63 60 57 53 49 45 44 42 41 38 34 32 29 27 25 26 30
68 68 72 73 71 74 75 77 78 80 82 80 83 82 86 82 83 85 85 87 87 90 80 66 62 59 56 53 49 46 45 42 40 39 37 33 30 28 26 26 25 27 31
67 69 66 68 73 77 76 76 76 79 82 83 79 79 87 85 85 87 86 88 87 72 64 58 56 54 52 49 46 42 39 38 37 36 36 31 27 26 23 23 25 28 32
62 68 70 72 72 74 76 78 79 82 83 83 81 81 84 87 87 85 87 84 70 61 55 55 53 49 45 42 39 36 36 34 33 31 30 30 27 25 22 22 25 29 33
65 69 69 73 73 75 77 80 83 84 84 83 82 86 89 89 85 87 82 70 59 54 52 47 43 40 38 37 36 34 32 31 30 28 27 27 25 23 22 22 23 28 32
79 75 74 76 77 77 77 82 84 83 84 87 90 92 93 88 88 82 67 58 52 46 44 42 39 37 36 35 33 31 30 29 28 26 25 24 22 21 19 20 22 27 31
83 82 79 81 82 82 82 84 84 85 87 90 91 93 87 86 78 64 55 49 47 44 40 38 37 38 36 34 32 31 29 28 27 26 24 22 20 20 17 18 21 25 32
81 86 86 88 87 85 88 87 89 87 90 91 92 85 85 74 61 53 49 48 42 40 39 38 36 34 34 33 33 32 31 29 26 24 24 21 19 20 19 18 19 24 31

GFSGL_250_spd_012.txt.gz
Wind_Speed
34 35 34 34 36 36 36 37 38 42 45 50 52 54 52 50 49 43 44 47 49 48 53 58 59 59 58 58 62 63 54 61 64 57 48 47 44 46 52 54 58 58 53
37 38 38 39 40 40 41 42 43 46 48 51 56 57 55 54 52 50 49 48 53 54 60 62 62 61 61 61 64 68 65 69 65 57 53 55 59 52 49 55 56 57 57
40 41 42 43 45 45 45 46 47 49 52 55 58 59 57 55 54 54 54 56 58 57 63 66 65 65 63 59 60 59 63 62 59 58 62 66 63 60 55 56 51 56 60
45 46 46 47 49 50 50 50 50 52 54 57 61 62 58 58 57 57 55 58 60 63 65 65 66 65 66 64 62 60 59 60 62 61 62 63 61 62 62 60 58 61 67
51 52 49 51 53 55 54 54 53 53 56 58 62 65 62 58 58 58 56 60 65 67 69 68 68 65 65 62 59 61 64 63 69 67 69 64 63 65 60 59 60 68 71
56 57 54 57 59 59 58 57 57 57 58 59 63 64 63 61 61 61 60 61 66 69 69 70 67 66 68 65 61 65 66 68 69 67 73 73 65 58 61 60 63 76 75
61 61 59 62 64 64 61 59 59 60 61 64 65 65 64 66 64 63 63 67 71 69 69 68 66 65 64 61 65 68 69 69 74 78 69 68 65 62 68 64 76 80 85
66 66 65 67 68 68 64 62 64 66 66 67 66 66 67 67 64 64 69 71 68 68 71 68 67 66 66 63 70 69 73 76 85 75 79 71 66 66 72 74 79 81 81
72 69 70 69 69 69 69 67 69 71 71 71 71 70 70 70 65 72 74 70 74 76 73 63 61 71 71 65 68 84 86 86 79 80 72 68 67 70 73 72 73 74 76
76 75 74 75 73 72 73 73 74 76 76 75 75 74 73 72 74 78 75 76 76 77 66 70 69 69 73 78 88 89 84 80 78 72 66 66 64 67 71 73 76 79 83
79 79 81 80 79 78 79 79 80 79 79 79 77 76 76 77 76 75 75 78 80 75 79 72 74 78 88 91 89 82 79 74 70 66 65 68 71 73 74 77 81 83 82
82 83 84 85 84 82 83 84 83 82 81 79 78 79 78 77 77 78 78 82 82 80 78 79 82 89 90 84 82 79 76 75 73 74 75 76 78 78 80 81 79 74 64
84 86 88 89 87 86 86 87 84 81 80 76 75 78 79 79 81 82 83 82 81 81 82 85 88 88 84 81 79 80 79 81 81 81 81 81 81 80 79 73 67 61 57
87 89 89 88 87 87 84 83 81 79 76 75 76 78 81 83 83 82 82 82 83 83 87 92 89 86 84 82 83 83 84 86 87 85 83 81 78 73 65 58 57 54 50
88 88 87 86 85 83 82 79 77 79 79 77 78 81 78 81 83 85 81 82 84 87 90 89 87 85 83 84 84 85 86 87 85 83 78 71 64 61 58 53 52 49 46
83 82 83 82 80 78 78 76 79 79 76 78 79 82 84 84 81 79 80 81 86 88 87 84 84 84 86 86 84 86 83 77 72 70 67 63 60 55 51 49 47 43 40
83 81 81 79 78 78 76 76 79 76 75 79 81 80 78 78 78 79 80 83 85 85 85 85 86 89 87 88 88 80 72 68 65 60 56 52 49 48 46 43 40 38 36
74 76 76 76 77 75 79 79 73 73 78 78 76 79 79 77 76 80 83 84 84 86 84 89 92 89 87 87 78 71 66 62 57 54 51 47 45 43 42 39 37 35 32
71 69 73 70 68 72 73 71 67 69 69 74 76 81 79 76 77 80 82 85 85 87 89 92 93 90 83 72 66 62 57 54 51 49 47 43 40 39 37 35 34 32 30
69 67 68 66 69 74 74 74 73 71 67 71 73 80 80 79 80 82 86 90 90 93 94 95 88 82 69 62 57 52 48 47 45 43 41 38 37 36 33 31 31 29 28
58 72 69 72 69 75 83 80 73 67 67 71 73 81 82 81 81 85 90 93 93 96 97 91 81 71 60 53 48 45 44 43 41 39 37 34 32 32 32 29 26 26 26
74 74 79 80 78 76 72 71 71 77 81 80 82 88 92 91 87 85 91 95 97 101 90 83 70 59 52 49 46 44 42 40 39 36 34 32 30 31 30 28 24 22 23
66 75 74 71 73 69 71 78 81 79 81 81 84 85 87 86 84 89 91 94 99 90 84 71 58 52 48 46 44 42 40 38 36 34 31 30 28 29 28 27 24 22 21
69 71 73 74 76 78 83 84 79 82 88 89 94 93 88 89 89 89 93 98 90 83 71 59 53 47 45 43 42 40 39 37 35 31 29 28 26 26 26 26 23 21 20
71 70 75 78 81 87 88 84 85 87 94 94 95 88 85 92 89 94 95 89 81 72 60 54 47 45 43 39 40 38 38 38 35 31 29 26 25 24 24 23 23 21 21
73 79 81 83 81 84 82 87 90 86 90 89 87 91 92 88 87 85 81 75 71 60 53 47 44 44 43 40 38 38 36 35 35 33 30 26 24 23 23 22 22 21 21

GFSGL_250_spd_015.txt.gz
Wind_Speed
33 33 33 34 34 33 33 33 35 38 40 41 44 46 48 50 50 52 51 49 47 46 46 48 50 51 51 53 52 53 46 48 47 41 42 39 38 43 39 40 47 53 57
37 37 37 37 37 36 37 38 39 41 43 46 46 48 50 52 53 54 54 54 54 54 53 51 54 58 57 56 54 52 50 55 52 45 43 43 48 46 42 50 48 49 55
42 42 42 42 41 40 42 44 44 44 45 47 50 52 54 55 58 60 59 58 56 55 59 58 59 63 59 61 59 61 61 57 53 50 50 53 56 55 52 48 56 58 56
47 47 48 47 45 45 47 49 49 50 49 50 51 52 54 57 60 63 64 60 58 60 62 66 68 63 61 65 64 64 62 57 56 56 58 61 66 67 61 65 64 50 54
51 52 53 52 50 51 52 54 54 53 53 54 55 54 55 58 62 65 63 61 61 64 67 67 70 64 64 67 66 68 63 61 61 59 61 70 72 70 69 77 65 67 66
55 57 58 58 55 55 58 58 57 54 55 58 58 58 60 60 64 66 66 63 66 69 70 71 67 69 67 66 68 68 65 60 61 65 74 82 79 78 78 68 69 70 64
60 62 63 64 61 61 62 61 60 60 61 62 63 63 63 64 61 65 67 66 67 72 74 73 70 67 71 70 70 64 61 65 67 72 72 83 86 78 73 69 68 66 64
64 68 69 69 67 66 66 64 63 66 66 67 68 67 67 68 68 69 69 66 71 74 75 74 73 73 72 70 65 57 62 79 76 82 88 82 78 77 72 65 65 63 65
69 71 74 74 73 70 70 67 68 69 71 74 63 70 73 74 74 73 73 73 75 75 75 74 74 74 73 71 73 72 75 76 85 88 84 80 78 76 75 72 72 72 72
74 76 77 76 76 75 75 72 71 70 73 70 74 79 78 77 76 77 79 78 77 77 75 78 76 76 75 75 75 78 81 84 85 83 81 79 79 80 80 79 80 79 79
79 77 79 79 78 78 77 77 74 73 75 79 82 82 82 83 79 79 76 77 79 75 79 81 79 76 78 77 78 79 84 83 82 82 82 84 86 85 84 83 82 82 80
82 81 81 83 83 82 81 79 79 78 82 84 86 87 86 83 78 78 79 79 75 79 80 79 77 77 77 78 80 83 82 81 84 89 89 87 87 88 87 84 78 73 69
88 87 87 86 87 86 82 81 82 85 87 87 88 87 83 79 80 80 79 77 80 80 79 79 78 77 79 80 82 83 84 86 91 92 88 88 88 86 78 71 66 62 58
89 90 91 91 90 89 86 85 88 88 88 88 84 80 81 80 77 79 79 80 80 80 80 78 78 77 80 80 82 84 88 91 94 91 88 83 76 69 64 61 58 55 51
93 90 91 92 91 91 90 88 87 85 84 81 81 82 81 79 78 76 79 77 81 80 78 76 77 80 81 84 88 91 92 94 91 88 81 73 67 62 57 54 52 50 47
89 89 89 90 88 87 85 82 80 82 80 79 79 79 77 72 71 74 75 76 79 77 77 80 82 84 85 87 92 95 98 89 86 77 72 68 64 61 56 52 48 47 45
89 86 82 75 80 80 76 80 78 77 77 75 77 74 69 70 68 74 77 75 74 79 81 91 93 91 87 90 92 95 87 82 72 63 59 56 52 51 48 46 44 42 41
68 73 79 81 73 77 79 76 77 76 73 68 69 67 70 75 79 82 75 75 78 78 86 88 89 88 89 90 91 88 82 71 61 56 53 49 46 45 42 40 39 40 38
63 62 60 61 62 65 67 70 67 64 61 58 67 69 75 74 77 72 78 81 85 84 91 96 92 95 92 90 87 81 73 62 56 53 49 47 45 43 40 39 37 37 35
47 54 56 56 55 61 59 59 60 59 60 64 68 73 76 78 75 78 81 81 81 88 92 94 89 94 89 83 79 74 62 57 51 50 49 48 45 42 40 37 36 35 33
46 53 56 58 48 56 59 56 62 68 63 65 73 81 84 76 78 84 86 85 87 91 88 100 94 85 81 79 76 64 55 50 48 48 47 46 43 40 37 36 34 33 31
55 55 57 57 54 48 50 60 60 61 66 73 80 81 79 80 83 84 85 91 92 96 96 94 87 86 80 77 67 57 50 49 48 47 46 43 41 40 37 35 32 31 29
48 56 60 61 59 51 55 58 63 64 65 71 73 74 80 83 80 81 85 93 101 88 86 86 85 85 76 68 57 47 45 46 47 46 45 41 37 37 37 34 31 29 27
49 46 43 46 54 56 58 67 71 73 72 76 72 78 83 76 83 87 90 102 89 82 83 84 82 81 71 61 52 45 43 44 45 43 41 39 37 34 34 33 29 27 25
57 54 57 63 59 60 66 69 70 71 75 79 78 79 75 80 84 90 98 103 86 80 87 84 84 77 69 53 46 43 42 43 41 40 39 38 36 34 31 32 29 25 24
58 63 67 65 67 66 71 76 79 81 82 82 77 82 82 83 89 93 96 91 87 86 82 81 79 71 64 51 44 43 41 42 42 41 39 37 36 34 31 29 27 24 22

GFSGL_250_spd_018.txt.gz
Wind_Speed
29 30 31 32 32 31 31 32 31 32 35 37 38 40 42 43 44 48 49 51 51 51 47 45 46 46 52 53 48 48 46 48 54 51 50 42 36 34 35 37 44 47 44
36 34 35 35 36 36 34 37 38 37 37 39 40 42 44 46 47 49 51 54 57 57 54 52 51 52 56 59 57 52 52 56 55 54 52 52 47 41 40 44 46 55 51
42 40 38 39 39 40 39 40 41 43 43 44 44 45 47 49 52 53 53 57 60 62 58 57 58 60 65 64 63 59 59 58 57 60 60 55 55 46 47 49 57 54 56
45 43 42 42 42 43 44 44 47 48 48 47 48 50 50 52 56 58 58 57 62 65 65 61 63 67 68 69 67 66 65 64 63 63 62 60 57 55 56 57 60 56 66
49 49 47 47 46 47 47 48 51 52 51 51 52 55 57 57 60 63 62 58 59 63 68 62 69 69 69 72 70 72 70 70 70 71 66 60 57 65 63 62 63 70 70
52 54 52 53 53 52 51 51 54 56 55 55 56 58 59 61 63 66 49 64 67 65 65 69 73 71 74 74 72 74 74 72 71 71 59 70 71 72 69 71 73 73 70
57 59 59 59 59 58 57 57 58 60 60 59 61 62 64 66 65 36 66 70 70 72 71 72 74 76 76 72 76 75 72 73 72 69 62 71 73 74 69 69 74 74 74
64 63 64 65 66 65 62 63 63 64 64 62 64 66 66 64 48 62 73 72 75 72 76 74 75 79 79 72 74 73 75 73 71 66 73 73 73 71 70 72 77 80 81
67 68 70 71 71 70 68 68 68 69 68 66 69 70 70 64 71 78 74 76 74 79 76 74 80 80 77 73 75 74 74 75 71 74 76 73 73 74 77 82 84 81 81
73 74 76 75 73 74 74 73 72 74 71 71 72 74 77 78 65 71 77 82 83 76 79 81 83 80 77 79 73 76 72 71 75 79 77 79 80 83 87 90 89 86 80
77 80 79 82 80 78 80 80 80 77 74 74 75 74 66 61 72 78 83 85 81 81 85 82 83 82 81 75 76 75 74 80 83 84 83 84 86 89 94 89 82 78 74
84 82 83 82 83 82 85 85 83 81 82 77 71 56 67 76 82 86 84 85 84 81 83 86 82 78 78 73 73 74 79 86 89 87 85 87 90 92 89 82 71 63 59
87 87 89 89 88 88 90 88 88 87 88 85 80 81 79 81 85 86 86 85 82 80 79 78 76 79 77 78 79 80 86 89 92 93 94 91 89 85 80 70 63 58 55
80 86 90 91 91 91 90 89 90 93 93 89 85 76 76 84 87 88 85 83 79 80 78 73 76 77 79 82 83 86 89 92 95 98 93 89 81 72 63 59 56 52 49
57 62 72 75 78 82 85 85 76 76 80 82 78 77 83 87 88 85 84 80 78 75 72 73 75 77 78 81 84 90 94 95 94 90 82 78 73 65 61 57 52 48 46
44 48 57 58 54 58 61 50 56 59 59 65 74 77 80 80 83 83 77 77 72 68 70 75 78 82 82 85 90 100 97 94 88 83 78 73 66 61 58 55 51 46 43
38 44 45 38 31 66 54 51 78 89 82 79 78 74 81 80 75 73 72 67 65 66 73 77 83 85 88 91 93 105 95 84 80 76 73 66 61 58 57 52 49 44 40
30 34 68 58 61 80 73 67 82 85 88 83 79 77 74 75 71 69 65 62 65 68 74 82 87 86 86 89 95 108 89 80 75 72 66 59 55 52 51 48 43 41 39
64 54 59 51 56 66 74 67 69 75 77 76 72 66 67 67 63 62 62 63 67 75 78 81 86 85 89 88 96 101 84 78 75 70 62 55 51 48 47 46 44 41 38
58 52 49 52 54 57 53 56 60 63 67 56 63 65 63 65 61 61 65 64 65 73 77 82 83 86 91 90 103 91 82 78 75 68 60 56 51 48 47 46 43 40 37
32 34 40 43 43 44 42 43 44 44 53 47 56 56 61 57 58 61 66 69 75 78 79 79 81 87 91 96 99 94 82 76 74 65 58 54 51 49 47 45 43 39 36
31 32 36 34 38 43 39 38 54 54 54 57 63 56 61 61 63 68 71 73 73 77 80 84 87 87 94 99 92 94 82 76 69 60 55 52 51 50 48 44 42 39 34
49 51 45 47 45 44 48 52 50 53 58 66 68 68 72 66 68 73 75 77 80 81 82 87 92 89 98 98 96 98 84 75 70 60 53 51 50 49 48 44 40 38 34
54 55 59 57 48 48 52 62 60 59 58 58 56 57 60 66 71 74 76 80 81 84 80 86 90 93 95 101 93 96 84 74 69 59 50 49 49 48 47 44 39 36 33
55 54 57 57 56 57 54 57 56 57 59 61 64 65 69 72 76 79 79 81 83 83 84 85 91 95 98 95 95 97 85 71 65 57 47 46 47 46 46 44 38 34 32
62 60 61 67 68 70 64 54 52 57 62 66 69 73 76 76 78 80 80 83 85 83 84 92 92 98 96 93 95 99 84 71 62 55 46 43 43 43 44 43 39 34 30

GFSGL_250_spd_021.txt.gz
Wind_Speed
32 30 33 31 31 30 28 29 30 30 31 30 31 33 34 35 38 43 45 46 48 52 52 44 43 44 43 52 57 56 56 57 55 55 58 56 53 48 46 46 40 36 35
38 32 35 34 34 34 35 33 34 34 36 34 34 37 38 41 44 46 50 53 57 60 59 50 49 51 52 56 61 61 63 64 65 62 64 59 52 51 51 48 43 39 47
40 34 35 38 36 36 39 38 37 39 40 39 39 40 41 44 47 50 53 55 58 64 48 57 58 61 62 64 67 65 65 66 70 69 69 67 62 58 60 51 44 45 48
42 41 38 41 41 42 43 45 43 44 45 44 44 44 45 47 49 52 56 57 60 59 45 56 64 65 67 71 72 70 70 70 71 72 70 69 66 61 58 49 51 56 59
46 48 45 45 47 46 47 48 48 50 49 50 50 50 50 52 53 55 61 60 61 58 49 61 66 65 74 74 74 74 71 77 74 71 68 69 70 62 56 52 63 64 60
51 52 50 49 52 51 51 52 52 54 54 54 56 56 56 58 59 59 64 67 68 58 59 69 68 62 75 75 76 77 75 75 74 76 71 67 59 61 62 66 67 68 66
57 57 58 57 57 57 56 55 57 59 59 59 60 61 61 64 64 65 69 71 69 66 65 61 63 70 73 77 82 77 78 81 79 78 75 70 67 68 72 72 68 69 71
62 62 63 64 64 63 62 61 61 62 62 63 64 65 65 67 68 70 73 71 55 65 63 63 68 76 79 85 81 82 78 81 79 75 77 78 79 80 83 81 80 77 77
69 68 71 72 70 67 67 67 67 67 65 65 65 67 68 70 70 72 67 67 63 65 56 60 75 82 81 81 81 82 81 81 82 82 82 79 82 87 86 84 82 83 83
76 76 75 74 72 72 72 71 72 70 69 70 69 71 70 73 72 73 73 74 76 67 56 74 79 82 82 82 84 84 84 82 82 85 87 89 93 100 92 84 82 81 78
86 84 82 79 78 76 76 75 78 80 80 77 78 78 75 76 75 75 75 73 74 67 74 77 82 87 89 85 84 82 83 81 84 88 95 97 100 102 91 86 82 75 72
87 86 84 82 84 82 81 82 83 84 85 82 81 80 80 80 77 79 77 70 70 75 77 84 85 85 86 82 83 82 80 82 88 97 98 97 100 98 90 86 79 71 64
69 68 70 74 80 83 84 84 88 93 85 83 85 86 86 83 81 77 56 55 66 76 76 78 80 87 84 84 83 78 80 85 92 94 95 98 105 95 85 79 69 60 56
56 54 51 48 52 63 62 63 76 73 65 61 65 70 71 62 60 51 57 60 68 71 72 78 84 81 84 84 75 77 83 86 91 93 99 106 99 88 79 69 57 53 53
49 42 21 28 33 39 41 43 32 29 35 45 55 54 63 56 44 48 61 66 70 74 81 78 78 82 86 75 75 77 86 91 90 96 100 105 91 82 72 61 56 53 51
36 20 20 27 28 34 37 33 27 25 26 30 49 45 67 58 66 67 74 75 85 87 82 76 77 87 79 74 73 80 84 86 90 96 101 107 92 79 67 60 56 53 49
24 19 27 26 23 11 19 30 20 33 32 74 41 58 77 76 78 78 83 89 95 101 91 78 87 84 76 71 73 78 86 89 90 97 99 103 89 76 67 60 56 52 49
42 31 18 20 33 22 25 29 28 41 47 63 57 71 75 76 89 86 90 95 101 108 92 93 88 76 73 71 71 81 86 90 89 97 102 102 91 77 68 60 56 52 49
64 45 35 21 32 60 54 46 39 49 63 70 76 74 75 85 90 95 90 96 105 108 98 85 77 75 73 73 77 86 89 92 90 96 104 97 89 77 69 61 56 51 49
51 44 43 55 72 71 70 75 63 58 70 78 85 89 93 98 99 93 95 99 103 98 86 74 76 73 73 77 78 85 85 87 92 97 101 94 91 76 70 61 55 51 48
52 44 48 61 71 71 65 62 69 79 83 86 87 92 86 103 110 102 104 97 85 85 83 80 78 75 75 78 83 89 86 87 96 98 98 91 93 75 68 63 57 51 49
41 49 57 63 65 69 66 70 74 83 91 92 96 93 77 75 74 76 80 79 79 78 70 66 67 71 76 83 84 89 93 89 95 94 92 90 94 76 69 63 58 52 48
48 59 68 70 71 72 79 80 77 80 81 83 76 64 61 70 69 70 73 73 71 71 65 67 71 76 80 82 82 84 87 91 94 94 91 89 92 76 68 62 57 52 47
47 48 50 54 55 59 59 46 59 64 73 72 68 74 80 84 74 69 71 73 74 75 72 73 77 80 78 78 85 89 87 93 94 89 90 89 93 78 67 60 55 52 48
61 58 60 60 58 59 66 68 71 74 80 84 90 94 89 73 70 71 70 71 70 66 72 74 77 81 83 87 89 87 89 93 91 90 89 89 91 78 65 59 51 50 48
80 77 74 73 73 77 79 83 85 90 83 90 86 81 77 73 72 69 70 69 74 76 75 78 84 87 89 93 88 89 96 92 94 89 89 90 90 75 64 60 50 46 47

GFSGL_250_spd_024.txt.gz
Wind_Speed
27 29 31 32 32 26 22 23 27 29 28 31 33 32 32 32 33 36 39 40 41 44 48 52 51 49 46 49 55 54 56 64 66 60 64 63 62 61 54 53 50 46 40
36 37 37 37 35 34 27 27 31 33 33 34 36 38 38 37 38 41 43 45 46 49 52 58 59 52 45 49 60 53 58 67 65 67 74 67 68 61 55 54 50 44 41
41 41 38 37 35 35 32 31 33 36 38 37 38 40 41 41 42 45 47 49 50 53 55 58 61 59 54 56 58 56 63 70 71 71 75 69 72 61 60 57 55 52 51
43 45 42 38 36 37 38 38 38 38 40 41 41 43 46 46 46 50 51 52 54 53 57 57 61 53 52 58 63 60 66 72 78 74 75 73 71 61 63 60 61 60 64
43 45 47 45 44 41 42 43 42 43 44 45 45 47 49 50 50 52 53 55 55 58 59 61 58 57 46 66 65 62 67 75 78 78 73 74 70 70 70 67 66 74 78
53 51 50 50 49 50 48 48 49 48 48 49 51 51 53 56 55 54 56 58 59 61 64 65 63 53 53 67 56 62 68 80 86 78 81 76 76 74 75 77 81 76 79
60 58 58 57 59 60 57 54 55 54 54 55 57 58 59 61 60 59 60 64 64 66 68 71 69 60 72 64 61 65 72 82 84 81 83 77 74 78 79 85 84 89 92
70 63 64 65 65 64 64 61 60 60 61 61 62 64 66 66 64 63 63 68 70 72 72 73 72 75 63 65 68 69 78 81 80 82 86 86 82 82 86 89 92 97 96
78 73 71 71 71 70 68 66 65 63 63 66 67 68 70 71 70 68 68 73 74 74 74 76 76 67 63 63 64 70 73 78 90 89 92 84 83 88 91 93 96 100 92
77 81 81 80 78 74 75 75 73 71 71 71 72 75 75 78 76 73 73 75 75 75 75 74 65 60 55 57 67 70 73 83 92 103 95 88 87 89 95 96 99 102 92
66 72 80 84 84 84 81 83 77 78 76 76 76 77 79 81 79 79 77 74 71 68 61 58 60 52 56 60 64 72 84 88 95 93 86 85 88 89 101 104 105 105 91
61 61 65 69 74 76 76 81 79 79 77 75 74 74 77 78 78 75 67 56 54 50 54 58 55 53 56 60 70 85 87 94 94 87 83 86 87 94 100 108 109 105 91
56 58 60 62 63 53 64 65 68 69 65 61 44 40 39 46 52 47 48 49 51 52 56 53 49 55 63 69 86 94 86 94 104 96 84 86 90 98 102 115 108 103 87
57 56 61 58 61 60 60 52 62 56 44 32 32 5 15 29 38 50 56 52 61 62 64 53 56 61 65 84 98 93 100 106 106 96 88 87 92 98 104 108 104 100 86
55 59 59 55 53 53 49 57 70 39 35 24 20 27 36 53 63 60 66 57 68 70 68 67 74 72 79 86 104 107 108 105 104 95 92 89 90 96 102 107 105 99 85
62 63 53 47 41 45 46 40 49 46 35 33 33 28 35 35 57 84 70 71 78 78 74 76 81 80 85 95 108 111 106 105 114 98 89 87 90 95 100 107 108 103 88
58 53 50 44 45 45 33 19 21 28 16 18 20 24 38 40 50 66 63 69 75 78 78 83 86 86 94 104 108 108 107 111 102 96 87 85 88 97 101 106 112 101 90
60 48 43 46 47 40 30 28 18 16 14 10 13 38 41 54 68 73 72 74 88 83 86 90 84 87 100 108 108 110 111 98 100 86 81 84 88 96 102 106 111 102 95
58 44 38 39 43 34 38 33 25 20 22 26 26 34 49 57 55 63 65 77 83 91 95 85 82 93 107 108 107 98 96 95 86 81 86 85 90 98 102 107 103 99 97
47 35 25 50 26 29 46 54 46 46 54 53 60 53 51 54 60 57 68 76 82 86 87 84 90 99 94 83 88 92 88 88 81 87 80 83 90 98 100 105 108 96 96
34 23 42 45 35 55 59 76 73 64 51 50 60 74 73 74 68 80 77 79 85 89 92 95 96 105 84 88 95 92 86 83 78 79 80 87 91 95 99 104 99 93 92
48 36 51 59 63 59 58 72 84 73 72 70 66 64 68 79 78 75 75 80 84 88 95 100 101 88 93 100 99 90 87 80 77 79 84 89 91 96 95 101 97 94 90
50 44 46 44 56 63 62 66 85 85 76 70 66 76 82 83 80 79 79 83 88 89 87 84 82 87 87 88 84 82 80 82 80 83 83 87 91 92 94 98 97 91 88
61 55 46 41 38 39 57 60 65 72 79 76 74 75 70 75 80 81 82 72 67 71 73 81 83 85 80 75 77 77 84 78 79 82 83 87 92 91 91 100 93 92 87
62 55 64 62 58 49 45 59 65 70 69 75 80 81 66 60 59 63 65 71 75 82 84 86 81 86 78 74 78 82 80 80 81 85 87 89 95 91 94 96 89 91 85
63 71 75 74 71 68 60 62 62 68 73 75 79 80 75 78 75 72 79 83 82 82 84 83 85 78 74 77 79 82 78 82 86 87 90 93 92 90 94 92 87 88 82

GFSGL_250_spd_027.txt.gz
Wind_Speed
27 24 23 23 23 22 22 23 25 27 24 25 25 27 28 29 31 33 33 35 37 40 42 45 46 48 49 50 52 48 42 58 54 54 58 64 71 74 76 70 70 66 53
33 33 30 31 31 32 33 32 30 31 29 27 27 30 31 34 36 37 37 38 40 42 46 49 51 52 54 55 57 50 48 61 59 53 60 66 73 80 83 89 78 68 61
40 39 37 36 34 36 37 34 33 32 33 33 33 33 35 38 40 40 42 43 45 48 51 52 55 57 60 62 60 57 61 68 57 56 60 67 72 82 92 84 75 64 67
46 46 44 44 41 39 39 35 35 36 37 36 38 40 40 42 43 44 45 48 50 52 54 55 58 60 63 64 63 61 66 63 56 56 59 62 73 84 87 79 70 65 69
46 45 45 44 45 41 42 42 41 42 43 44 43 44 46 46 48 48 49 52 55 57 57 58 61 63 65 66 64 62 62 51 51 52 62 65 77 88 88 87 77 72 81
49 49 49 47 47 47 47 46 48 48 49 48 49 50 50 51 53 53 55 57 59 61 61 63 64 66 67 65 66 56 47 46 48 54 61 66 82 83 93 82 80 81 86
55 54 56 56 57 55 54 54 55 56 55 55 56 57 56 55 57 59 58 61 64 64 66 68 68 67 67 58 50 54 45 44 50 57 64 75 82 89 89 84 89 86 87
61 60 61 62 64 60 60 61 62 62 61 61 61 62 62 62 63 63 63 64 68 69 71 71 67 64 52 43 48 45 43 47 48 63 76 76 82 91 91 96 93 90 90
61 67 70 70 69 67 68 69 69 68 66 66 67 66 67 66 68 68 67 70 71 72 71 66 56 45 39 49 47 47 50 59 54 71 86 78 81 86 93 102 91 97 99
52 55 56 60 64 64 67 71 73 73 70 72 72 71 69 69 72 71 71 73 72 67 53 46 41 45 47 48 45 50 58 65 68 78 89 85 90 95 104 106 101 102 96
51 50 52 52 54 55 55 58 59 55 63 68 70 71 75 75 71 60 52 50 40 39 39 41 46 47 50 46 42 51 66 69 70 84 95 94 95 98 108 101 105 97 98
44 48 53 55 58 54 51 46 48 69 65 55 54 56 61 61 49 44 35 28 22 31 41 44 47 45 43 43 49 59 64 69 72 83 94 94 97 103 104 104 102 98 99
42 44 47 52 56 56 54 48 46 43 47 63 69 53 42 42 44 38 32 27 41 41 51 48 49 54 42 48 63 59 65 67 79 79 88 98 97 96 100 101 100 97 95
46 48 50 55 57 57 60 48 51 50 52 49 56 57 44 33 35 28 40 50 56 56 53 41 40 49 59 67 63 63 70 70 76 83 92 96 95 93 101 100 100 97 100
53 52 53 58 60 56 57 57 49 48 55 55 49 59 52 31 35 44 45 44 43 56 58 53 60 58 65 75 74 72 66 70 79 88 91 88 95 99 101 102 97 94 99
59 56 57 60 60 60 58 60 55 52 51 64 61 56 40 32 30 22 30 28 11 25 55 56 64 65 64 73 70 75 73 78 86 90 93 96 102 103 101 94 100 100 100
62 60 61 62 64 64 59 55 51 51 53 49 50 52 39 35 30 30 28 37 31 35 57 40 73 62 67 67 80 79 80 85 90 92 97 99 97 95 96 92 97 98 97
61 60 62 67 56 57 54 52 49 49 50 46 49 50 49 40 36 38 45 45 44 42 53 63 62 64 68 72 77 81 86 90 91 97 100 103 96 97 90 91 92 95 97
64 62 65 66 61 57 51 51 46 32 25 34 45 47 50 41 36 45 46 46 43 49 56 61 71 77 82 76 76 78 84 87 94 94 97 95 85 98 93 91 91 95 96
66 64 58 59 65 47 46 42 39 28 30 30 32 41 43 47 43 46 46 47 52 57 57 56 55 61 67 71 76 82 84 85 89 90 94 89 93 93 86 88 89 91 93
65 62 55 65 55 44 45 44 37 40 43 36 73 79 64 77 52 57 54 56 60 65 70 68 65 66 68 74 78 85 84 87 91 87 83 83 94 94 92 94 91 88 95
67 64 65 70 59 48 54 33 29 43 42 59 56 76 80 79 81 70 72 74 72 70 73 77 81 84 77 80 84 84 85 85 83 81 88 92 92 96 90 97 94 88 96
75 76 84 73 64 53 56 52 49 55 57 56 61 59 58 66 76 74 73 76 79 73 77 80 79 83 82 83 84 69 71 74 81 86 89 95 94 96 95 89 92 89 89
91 82 74 68 70 57 63 62 65 70 68 66 68 61 66 60 68 79 83 70 75 77 76 79 77 84 86 85 84 82 79 81 88 87 89 92 94 90 87 89 86 86 89
80 74 76 70 73 69 68 66 71 71 72 59 53 53 61 63 61 62 60 64 68 72 76 80 84 83 86 89 88 87 91 94 95 90 98 94 89 90 87 82 88 88 88
76 76 74 69 68 68 70 66 62 67 70 68 63 56 56 56 59 62 68 65 70 76 80 82 84 88 93 90 86 88 91 92 89 89 93 90 89 89 84 83 88 90 90

GFSGL_250_spd_030.txt.gz
Wind_Speed
30 27 27 25 21 20 18 17 18 21 23 25 25 25 27 27 25 26 29 30 32 34 36 39 43 44 44 47 48 51 49 50 48 42 34 41 51 54 62 70 64 58 58
34 31 29 30 28 25 25 26 29 30 30 28 27 26 29 30 30 31 33 34 35 38 40 42 44 46 47 51 52 52 52 51 42 34 39 42 49 57 66 69 62 63 58
36 35 34 33 31 29 31 30 30 30 35 33 31 30 30 33 35 35 36 37 40 42 44 48 49 50 50 55 54 53 51 45 38 33 48 47 51 57 69 72 69 70 69
39 39 40 39 37 37 38 39 40 39 38 37 35 35 35 36 39 40 40 44 45 48 49 51 53 53 53 57 57 55 48 37 31 39 47 56 59 59 72 72 74 73 70
43 44 45 44 43 44 44 44 44 42 40 41 42 41 41 42 44 45 45 48 51 54 54 55 56 57 57 59 61 49 41 33 32 39 47 50 61 69 76 73 72 77 78
44 46 44 45 45 45 46 46 44 45 44 44 45 46 47 49 50 51 51 53 55 56 57 57 59 59 62 62 55 37 33 34 34 40 44 50 59 65 73 77 75 77 81
47 48 47 47 48 48 48 49 50 51 50 52 52 53 54 55 55 56 55 56 58 60 62 60 62 64 60 59 40 37 35 39 40 44 49 54 60 65 76 78 80 79 84
50 51 52 53 54 53 54 57 58 56 57 58 59 60 60 62 62 65 65 62 64 63 62 63 64 61 56 42 33 40 42 44 42 41 54 55 58 67 73 78 81 82 87
57 57 57 58 59 59 61 61 62 61 62 64 64 65 63 61 62 57 58 59 63 64 63 62 55 44 35 31 39 44 48 44 41 40 57 59 61 67 76 79 88 87 91
53 54 50 46 44 44 46 45 45 45 46 47 44 43 43 42 47 57 53 48 50 54 53 43 26 23 31 35 40 46 44 44 41 47 60 60 62 68 76 81 90 97 94
37 37 39 40 41 40 41 41 44 42 41 42 39 44 41 51 55 58 50 36 40 46 42 27 21 28 36 40 39 46 44 49 42 51 62 65 65 72 81 89 93 101 91
38 38 40 41 41 39 42 44 45 46 43 44 44 43 50 54 53 55 54 52 41 43 32 28 35 42 31 33 36 39 39 51 53 60 61 67 69 75 83 92 96 98 86
44 45 44 44 43 44 46 45 47 50 49 47 43 47 51 55 54 56 59 50 39 29 26 32 39 48 47 46 46 46 46 48 53 59 55 70 72 73 86 90 93 97 94
49 50 51 51 49 46 47 48 47 52 56 56 49 44 49 49 52 50 56 54 34 21 25 31 36 39 49 30 40 48 50 50 55 57 62 66 75 78 87 90 92 88 81
56 56 55 52 53 51 51 52 51 55 60 58 60 51 45 50 52 51 54 52 29 17 25 36 42 46 48 44 46 43 49 55 59 63 61 68 74 77 82 86 83 75 84
63 63 60 58 56 54 54 56 57 59 61 60 66 58 53 52 54 55 55 49 34 23 28 36 36 54 53 48 50 51 50 57 57 62 65 71 69 73 78 77 72 72 79
67 67 65 65 61 60 61 61 61 65 63 62 68 58 55 53 51 54 52 52 36 36 44 42 43 49 49 48 50 49 49 51 52 61 66 64 68 76 67 69 70 76 82
72 72 72 70 67 65 63 60 60 64 66 65 67 57 53 48 44 46 46 46 37 47 49 51 52 58 56 54 55 54 48 57 52 50 57 65 72 74 75 75 76 76 85
81 79 75 73 72 68 67 65 64 64 61 52 52 54 46 28 23 29 33 41 43 47 44 49 59 59 57 48 52 51 50 50 49 58 71 75 76 78 79 74 74 81 92
84 81 80 79 77 73 69 74 66 60 57 52 48 51 35 26 30 28 36 47 54 58 53 56 61 66 67 56 56 60 62 62 66 69 75 81 83 83 80 82 80 92 96
82 80 77 76 74 71 70 72 67 59 58 62 52 40 33 29 32 37 60 84 77 63 59 70 71 73 68 69 70 69 69 66 67 68 77 79 79 83 89 86 82 84 93
85 82 80 79 78 78 75 66 58 59 63 62 54 45 42 24 33 46 58 54 43 57 65 71 67 68 69 68 70 72 65 66 70 72 80 82 84 86 89 80 85 91 94
94 88 91 83 76 69 66 69 70 66 75 71 60 52 50 51 47 67 72 72 67 53 57 61 66 65 67 69 65 63 64 64 68 77 79 78 79 85 86 85 85 94 99
94 93 87 82 82 84 86 88 89 85 70 69 62 58 63 67 64 55 60 76 67 62 53 50 48 56 67 68 66 63 66 73 74 77 74 76 77 77 83 87 88 94 98
94 98 98 94 91 92 93 96 96 98 90 83 73 63 66 74 74 70 55 51 58 63 61 59 58 57 58 62 65 67 70 72 73 75 81 84 83 83 87 93 92 93 95
101 102 104 99 90 86 81 74 67 67 67 72 73 66 66 75 73 74 76 69 58 59 59 58 59 62 65 66 66 73 75 74 73 75 77 81 85 88 91 93 92 93 97

GFSGL_250_spd_033.txt.gz
Wind_Speed
33 30 28 27 25 22 20 18 16 17 19 20 22 20 23 23 23 23 26 29 30 32 34 36 38 40 40 41 42 44 48 47 32 13 19 32 44 44 49 47 54 62 65
36 36 32 29 27 24 23 22 20 21 25 24 20 23 27 28 27 25 27 31 33 35 37 39 40 42 43 46 45 44 47 42 24 10 19 34 40 47 48 48 59 65 70
39 40 37 31 29 27 27 25 24 24 26 28 30 31 30 32 31 30 32 35 37 39 40 41 43 45 45 49 51 52 50 33 22 22 20 30 41 47 48 49 61 64 71
38 39 37 35 33 32 33 33 32 33 34 36 37 37 35 34 37 37 38 40 43 45 46 46 48 49 50 51 52 54 46 34 27 23 24 28 38 41 42 41 62 67 75
38 38 40 39 36 36 36 37 37 40 40 41 41 39 39 39 41 42 45 46 48 49 50 51 53 54 54 54 51 51 41 30 30 32 31 29 35 41 43 47 57 66 73
40 40 40 39 40 41 40 41 43 44 43 42 43 43 44 46 48 49 50 51 51 53 55 54 55 55 53 53 49 43 36 27 32 34 34 34 34 40 45 50 60 62 73
43 41 40 43 43 43 43 43 44 46 45 46 47 50 52 53 54 57 58 58 58 58 56 56 52 51 48 45 39 30 26 29 36 39 35 36 33 45 50 56 59 65 70
44 44 44 43 45 45 45 47 47 48 51 51 54 57 59 60 58 57 58 57 58 57 52 48 47 46 40 28 21 24 32 38 39 43 39 40 40 45 49 58 59 67 75
52 51 51 49 48 49 50 50 51 53 54 56 56 51 48 47 46 48 47 46 44 41 45 44 37 35 33 22 15 25 35 33 34 41 37 41 39 47 55 58 60 67 70
58 55 53 52 53 54 55 55 56 55 49 43 42 40 39 40 41 44 48 45 44 47 51 48 37 32 32 17 19 26 21 24 26 31 44 44 45 53 53 55 62 71 72
55 51 50 50 51 48 44 42 38 36 35 35 36 36 39 40 39 39 44 48 50 51 47 44 39 35 31 22 21 25 34 31 31 34 38 44 53 49 55 56 67 66 68
52 49 46 42 39 37 36 36 34 36 36 38 39 40 43 45 44 45 49 50 51 51 52 46 40 39 36 30 22 26 25 27 28 36 40 51 50 49 54 62 62 62 68
43 42 41 40 38 37 38 37 37 40 42 43 42 45 47 50 50 54 54 51 54 54 56 52 44 39 37 28 27 25 27 39 39 43 39 43 51 57 60 59 59 58 69
47 45 44 43 43 43 42 42 43 44 44 47 47 50 50 53 55 59 59 61 60 56 59 46 38 36 37 29 25 31 34 38 45 46 49 55 60 54 53 54 54 60 68
53 50 51 51 50 50 49 46 44 47 50 51 53 52 55 58 59 61 64 65 67 62 58 58 49 36 40 34 35 44 45 45 40 53 48 45 56 51 48 44 57 60 65
60 58 57 58 57 55 54 51 52 55 54 56 57 57 59 60 61 62 64 67 66 62 57 53 46 40 35 31 35 33 42 37 54 47 50 54 46 49 53 50 55 60 64
63 62 61 61 59 58 59 60 60 61 60 61 61 62 64 63 63 66 56 59 62 59 52 41 42 46 46 29 29 35 50 59 52 62 60 57 52 53 55 53 57 64 70
66 66 66 66 65 65 65 66 66 65 64 65 65 66 68 68 68 68 58 64 60 53 45 37 31 41 41 36 38 42 55 62 64 62 59 53 56 57 57 54 60 68 75
71 71 71 72 73 73 73 73 72 73 71 69 71 70 71 74 72 67 57 59 54 37 35 42 36 39 47 43 50 55 60 60 59 61 62 60 57 58 57 58 62 70 77
77 77 79 79 81 82 81 81 80 80 78 74 76 75 75 72 67 61 59 55 46 48 44 41 33 42 50 57 67 67 55 52 59 64 66 63 60 57 52 57 65 72 76
87 85 84 84 84 85 85 85 84 84 80 78 79 72 64 61 53 61 64 55 47 49 43 41 44 74 74 73 59 67 69 71 68 61 60 68 68 62 61 61 66 67 70
87 86 87 88 87 86 87 83 83 81 77 75 72 68 68 62 56 59 65 59 53 50 39 29 48 78 72 61 49 57 64 66 62 62 64 63 63 66 63 65 64 66 69
88 91 92 90 86 87 86 86 84 82 81 79 77 79 73 70 70 76 70 71 65 58 52 46 53 62 69 64 62 61 52 52 57 57 57 58 63 64 65 61 61 68 73
92 93 95 88 86 87 88 85 87 87 87 86 82 79 81 76 78 81 74 76 71 67 71 77 73 62 50 63 68 57 55 51 49 50 55 56 57 62 65 64 63 64 67
102 100 98 95 98 96 96 96 96 96 94 94 93 91 91 86 81 78 83 73 79 80 77 80 87 81 63 55 51 51 51 52 52 56 57 61 62 63 62 62 64 69 73
100 97 95 98 100 99 97 97 100 100 97 95 95 90 86 83 81 80 68 60 65 64 64 68 80 82 76 63 56 53 51 53 53 56 57 59 64 66 68 66 69 75 73

GFSGL_250_spd_036.txt.gz
Wind_Speed
38 36 33 31 30 26 22 21 20 19 15 12 14 16 15 17 21 23 24 24 26 28 30 31 33 34 35 36 37 38 41 42 39 25 17 19 23 22 26 38 42 48 54
38 37 36 36 31 26 24 23 21 20 17 15 17 19 19 25 26 26 25 26 30 31 33 35 38 39 39 41 39 41 42 42 38 25 24 25 26 23 25 31 38 45 53
41 40 39 35 29 24 24 24 23 23 22 23 25 24 26 29 32 32 31 30 32 36 38 40 43 43 44 47 47 45 46 44 38 22 20 23 27 30 24 30 43 48 47
41 41 40 36 31 31 30 26 27 29 29 29 29 30 32 35 36 35 35 37 39 42 46 48 50 51 53 54 54 52 52 42 33 18 19 26 27 32 31 31 36 43 50
42 41 38 34 35 38 35 33 31 32 32 34 34 36 36 36 38 40 43 45 48 51 52 54 57 58 58 57 54 53 42 32 16 18 22 27 28 29 31 33 35 38 50
43 43 40 39 40 40 37 36 37 35 35 38 39 40 42 43 45 46 50 51 54 57 58 58 55 53 50 45 44 36 29 14 16 20 27 31 31 26 27 30 35 39 45
47 46 42 37 37 36 36 36 37 38 40 41 42 44 45 47 48 51 54 59 59 55 50 49 48 45 40 39 36 29 20 12 17 17 20 21 25 31 30 31 38 42 50
46 43 41 38 37 37 36 38 40 41 43 44 44 47 48 50 52 55 52 47 48 49 49 46 45 43 43 40 35 23 15 18 13 17 19 23 25 24 29 33 37 42 54
48 47 45 42 41 42 42 40 39 42 44 46 47 49 52 54 47 41 36 34 36 42 41 43 43 45 48 39 35 24 18 19 17 19 24 26 26 29 32 32 39 47 48
52 51 47 46 47 47 47 45 45 46 46 47 49 49 43 40 37 34 35 34 35 32 41 42 43 47 51 43 34 30 24 20 24 21 19 23 28 36 32 35 42 49 49
55 51 50 50 52 52 50 50 51 50 47 51 44 40 38 36 35 37 39 36 34 39 46 47 44 45 44 46 41 31 30 23 19 17 24 29 32 36 32 36 46 46 48
57 58 58 57 57 58 57 54 55 53 43 38 37 36 34 37 42 44 44 42 42 44 49 48 44 43 41 45 42 39 35 25 23 29 33 38 39 37 31 39 49 54 48
39 46 50 55 58 54 51 46 39 34 35 37 35 34 38 40 41 45 47 49 50 51 54 54 48 47 38 39 46 38 36 29 28 31 35 40 45 36 40 46 49 56 54
36 35 37 40 41 42 42 40 38 36 37 38 38 39 40 43 46 48 49 53 55 56 55 57 57 56 51 42 41 43 38 30 25 33 32 35 34 39 49 49 58 61 66
44 43 44 45 46 47 47 46 43 43 41 42 43 44 47 48 50 52 53 53 56 59 60 61 58 55 56 55 43 43 40 38 27 27 32 25 31 44 60 60 66 71 63
48 49 50 51 51 51 48 47 48 49 48 49 49 52 53 53 55 57 57 57 57 58 63 65 60 51 50 50 46 42 33 36 28 33 35 35 44 49 57 70 70 69 60
53 54 53 55 54 55 55 56 56 54 55 55 55 56 58 60 62 60 60 62 64 63 61 64 58 51 48 42 34 34 41 33 36 35 36 42 48 52 71 68 63 65 62
61 60 57 58 58 56 57 57 58 60 60 58 59 61 63 65 65 67 67 67 69 69 68 63 54 46 42 40 36 40 43 43 45 39 44 52 49 75 64 62 62 60 57
63 63 62 64 63 62 62 62 63 65 65 65 65 66 67 69 72 74 75 73 72 73 69 49 45 46 40 43 44 42 44 48 50 55 52 65 72 70 62 57 61 60 64
66 65 64 66 66 66 65 66 68 70 70 71 70 70 72 73 73 73 72 74 73 74 62 56 55 57 50 48 51 42 34 42 52 51 67 75 76 68 66 70 62 60 62
75 73 71 70 71 71 72 72 73 73 75 75 75 77 75 74 74 74 75 74 69 67 61 61 63 66 58 49 45 49 42 46 58 65 62 58 65 68 56 60 62 62 63
81 80 78 78 79 78 77 77 78 80 80 79 79 80 80 82 79 74 75 73 67 66 66 70 72 69 53 47 50 38 40 40 58 63 65 68 59 62 60 57 60 64 63
85 85 85 85 84 85 85 86 87 86 86 87 86 86 85 86 81 80 75 75 75 74 72 71 67 68 67 58 64 64 63 63 63 70 67 56 59 61 60 57 53 53 55
92 91 92 93 93 92 92 94 93 94 92 89 88 88 88 86 88 84 87 83 79 78 75 75 74 70 70 76 71 68 75 74 71 66 65 62 61 65 60 57 53 53 55
97 99 96 95 95 93 91 92 95 96 94 89 91 91 93 93 92 86 85 86 84 82 81 76 70 69 75 69 67 64 71 74 70 61 57 56 57 58 56 56 53 56 55
101 101 102 102 103 102 100 101 99 100 100 100 99 96 95 93 88 92 93 86 84 82 80 80 78 78 62 62 64 67 66 61 65 58 56 58 56 55 55 58 58 61 65

GFSGL_250_spd_039.txt.gz
Wind_Speed
44 40 36 34 31 28 22 21 20 17 15 13 14 12 11 12 12 15 19 23 24 24 26 29 31 35 37 40 41 42 45 44 44 41 33 24 23 22 21 24 26 30 28
44 41 39 38 35 29 26 23 22 19 18 17 17 18 19 18 20 22 25 28 28 29 31 35 38 42 45 47 48 50 50 48 45 40 32 24 21 21 25 29 28 30 28
46 46 43 41 36 30 27 25 23 23 22 23 22 23 24 24 26 28 31 34 34 36 38 40 44 47 50 52 52 51 48 45 39 30 25 15 9 13 20 30 26 26 28
49 47 44 41 36 31 30 29 26 26 26 28 28 29 29 29 32 34 36 39 38 41 44 47 51 53 53 51 46 43 37 40 36 22 6 10 15 17 20 26 23 24 23
50 48 45 41 36 34 32 30 30 28 29 29 31 33 33 35 36 38 39 40 42 46 49 52 50 45 43 42 40 33 34 37 27 9 9 13 16 19 22 25 26 27 25
50 50 45 42 39 38 35 34 35 35 36 34 35 35 36 36 37 39 40 43 47 48 51 44 40 38 38 38 36 32 32 35 16 11 10 15 21 22 24 27 24 27 30
49 49 48 44 42 40 38 37 38 36 38 39 39 37 37 36 37 40 43 46 50 46 34 37 31 35 36 36 33 31 34 27 15 15 17 17 24 25 23 26 28 25 26
48 48 48 45 43 40 39 36 37 38 39 38 38 37 37 37 40 42 45 49 44 35 32 28 33 35 36 34 36 35 31 27 23 20 19 23 22 22 27 29 32 32 32
46 49 47 43 41 40 39 38 39 38 39 37 36 36 38 41 41 43 48 39 33 30 29 28 31 37 39 38 37 36 32 28 29 27 28 29 30 32 29 29 35 38 31
44 47 44 41 39 39 40 42 40 40 41 41 41 42 43 44 45 47 38 33 28 27 29 34 35 39 39 40 38 43 41 33 31 28 30 32 31 29 25 28 32 34 31
45 40 38 39 42 42 42 44 43 43 43 44 46 46 49 44 44 39 33 33 26 28 32 36 40 41 41 43 41 41 44 41 32 30 30 34 34 32 29 34 35 36 36
50 45 45 46 46 45 46 47 47 46 48 48 48 48 45 41 38 37 35 30 28 31 35 38 42 45 45 45 45 42 41 45 40 33 29 35 38 37 36 38 35 34 42
54 54 53 52 50 49 50 50 51 50 51 52 41 38 38 37 38 37 36 34 33 35 40 44 43 45 47 50 49 47 42 37 36 37 35 37 38 36 34 33 31 34 42
45 51 54 53 52 53 52 52 51 48 44 37 37 38 38 39 39 40 40 40 40 43 44 47 48 49 53 55 56 47 40 39 37 36 24 30 32 35 30 29 37 47 50
41 42 43 43 44 46 43 41 40 40 40 40 40 41 41 41 42 42 42 45 48 51 51 51 53 55 56 59 57 46 36 31 30 33 33 30 36 36 31 39 35 46 53
47 46 45 41 40 41 42 40 42 43 43 42 43 44 45 45 46 45 48 49 52 54 55 58 58 59 60 59 57 48 42 36 30 27 33 34 37 44 41 40 40 46 58
53 52 49 46 43 45 45 45 48 48 47 45 46 48 49 50 50 51 51 52 51 53 55 58 60 62 60 62 58 51 41 40 43 45 41 40 43 43 38 40 46 46 72
55 51 51 50 51 50 49 50 48 47 49 51 53 53 51 50 52 53 53 55 55 57 56 56 56 57 59 57 49 46 50 51 49 50 44 36 35 33 41 45 49 54 71
59 58 57 55 53 52 51 51 52 52 53 54 55 56 54 53 54 54 55 55 58 58 59 60 59 61 60 59 59 49 49 52 51 50 50 33 31 38 61 69 56 61 72
65 64 62 61 60 58 58 59 58 57 58 60 59 58 57 58 59 58 60 60 62 63 64 65 63 63 61 64 61 59 55 56 51 47 51 48 32 24 56 53 63 89 85
71 69 69 67 67 66 65 65 64 66 66 64 63 63 64 65 65 66 67 68 68 70 69 71 71 69 66 66 69 63 60 58 53 48 55 54 31 59 61 79 83 83 77
77 75 73 72 71 72 73 72 72 72 72 72 71 72 73 74 74 75 76 77 75 77 76 79 78 74 73 70 68 64 63 59 53 50 33 25 55 56 60 73 77 71 67
83 82 79 80 80 81 80 79 79 78 78 80 81 82 82 82 81 80 81 82 83 86 85 84 80 76 74 73 69 65 59 55 58 61 55 59 65 56 63 69 76 75 76
88 88 88 87 89 89 87 87 87 88 90 90 90 89 88 87 86 89 89 89 87 86 86 84 84 81 83 76 69 62 57 58 56 63 66 62 62 57 64 74 81 72 72
92 91 91 91 91 93 93 93 93 94 94 94 95 96 95 95 93 94 92 88 91 92 91 88 86 80 77 72 70 66 60 62 65 62 61 59 61 64 66 65 66 70 69
96 96 96 96 96 95 97 97 97 98 99 99 100 100 100 101 98 96 96 96 94 90 90 84 82 80 78 77 76 76 76 81 68 62 48 53 56 62 64 66 63 64 65

GFSGL_250_spd_042.txt.gz
Wind_Speed
45 44 39 35 32 31 28 24 21 20 17 16 16 17 16 15 13 16 16 18 22 26 28 28 32 36 40 43 46 48 47 43 40 31 33 31 27 23 23 26 29 26 24
42 45 42 39 37 35 31 26 23 22 21 19 21 22 22 22 22 20 20 22 25 30 33 34 37 42 46 49 47 37 36 33 30 37 34 25 22 18 21 22 26 26 27
42 46 46 44 40 39 35 30 27 25 23 24 25 25 26 26 26 25 25 27 32 34 35 38 42 47 46 37 33 32 31 27 25 33 33 23 7 5 11 19 23 26 24
44 46 48 47 44 43 39 34 32 30 27 27 27 25 28 28 29 28 29 32 34 35 37 41 45 41 36 34 36 34 30 26 25 30 25 17 13 13 14 17 20 21 23
43 46 48 48 47 44 40 37 35 32 31 29 27 27 29 31 32 33 33 33 35 36 39 43 42 31 29 32 37 35 31 28 24 25 16 14 20 22 21 17 20 20 24
42 45 48 49 48 46 43 39 37 34 33 32 30 29 30 31 31 31 34 34 34 37 40 42 30 31 29 30 32 33 35 35 27 20 14 19 22 27 29 24 24 25 29
38 42 46 49 50 48 43 41 39 38 37 34 34 35 35 34 33 34 33 33 35 38 43 34 24 25 26 30 29 33 33 32 26 25 23 21 25 31 31 28 27 30 30
33 39 45 49 51 49 45 44 42 40 38 38 37 35 32 32 33 33 31 34 37 39 36 29 27 27 27 30 31 37 37 38 31 22 26 28 36 31 34 33 33 33 32
36 34 41 48 50 48 48 47 44 42 41 40 38 35 32 31 32 31 34 38 39 40 32 28 25 26 26 31 37 41 42 44 44 40 31 23 30 33 36 32 35 30 34
41 39 37 40 46 46 45 45 45 43 43 43 39 36 34 33 32 34 37 42 41 37 32 32 31 30 31 32 35 37 43 48 46 44 42 24 24 30 39 38 32 32 36
49 43 37 36 40 46 46 44 46 47 45 45 43 39 38 35 35 37 39 39 39 34 34 31 29 31 33 33 37 42 46 50 49 40 38 37 30 32 35 35 34 33 38
47 43 39 38 37 39 42 46 48 47 46 45 44 43 41 38 39 41 39 38 33 37 33 32 34 35 36 37 41 46 49 50 51 40 38 40 35 28 29 37 36 38 37
54 50 47 45 44 44 43 44 42 42 43 44 44 45 45 42 44 40 37 34 33 34 33 35 36 39 40 45 49 50 52 52 52 43 40 36 28 25 28 33 33 35 37
57 55 54 53 52 51 50 49 48 49 50 50 50 49 49 51 48 44 39 35 33 33 34 37 39 39 43 44 47 51 53 53 49 40 35 35 28 32 37 38 38 36 31
37 41 48 56 58 59 57 56 56 56 55 55 56 56 55 52 49 43 36 37 37 36 38 41 42 42 43 45 47 50 50 49 50 42 31 29 31 34 35 40 46 42 37
43 42 41 41 45 51 54 56 58 60 60 61 61 59 54 49 41 37 39 41 41 42 43 44 45 45 45 48 49 49 49 53 52 50 45 41 40 43 40 37 43 45 41
49 47 46 45 46 44 43 46 48 50 50 51 52 49 45 39 40 42 44 43 44 46 46 46 48 46 46 48 48 48 48 51 51 55 56 55 53 47 40 40 34 31 34
57 55 53 52 51 49 46 46 45 44 43 42 40 41 43 46 47 47 47 47 48 48 48 49 49 48 48 50 51 52 54 53 52 54 59 59 57 51 43 40 21 31 37
59 60 59 57 56 54 52 52 52 50 49 49 49 49 49 50 50 51 50 50 52 52 52 52 54 54 54 57 60 62 62 64 60 60 60 56 53 48 46 38 29 41 47
60 60 61 60 58 57 57 55 54 55 54 54 52 53 53 53 53 54 54 55 56 57 58 59 59 60 62 66 69 68 67 68 68 67 65 61 53 46 39 38 29 21 51
64 62 62 64 64 64 63 63 61 60 59 59 58 57 57 58 58 59 60 61 63 63 63 65 67 69 71 74 73 72 71 70 71 71 61 64 57 48 43 44 36 41 57
67 67 68 68 68 69 70 69 68 67 67 66 65 64 65 66 67 68 69 69 70 71 72 74 74 78 80 78 78 77 76 77 77 66 64 56 56 51 49 54 53 54 56
73 72 72 72 72 74 75 75 75 75 75 75 74 74 74 74 75 76 77 77 78 78 80 82 83 83 84 83 82 82 79 80 73 72 63 62 58 53 54 60 64 71 74
80 78 78 79 79 78 78 79 80 81 82 83 83 83 83 84 84 85 85 85 86 87 88 89 89 87 87 88 87 84 83 82 79 66 65 55 52 51 57 64 67 65 67
88 88 87 85 85 84 85 84 84 85 86 86 87 88 89 90 90 91 91 93 95 95 94 93 92 91 92 93 88 85 82 76 66 68 61 56 57 58 55 60 62 63 64
94 92 91 91 90 91 93 92 93 93 94 95 96 96 96 97 98 98 99 98 97 95 94 95 95 92 92 93 91 86 72 66 62 62 58 59 64 70 74 62 60 56 60

GFSGL_250_spd_045.txt.gz
Wind_Speed
35 32 37 36 33 30 28 28 26 24 22 21 21 20 20 21 20 19 14 17 20 22 29 34 34 36 42 48 43 40 39 39 34 30 29 33 34 26 19 14 15 16 17
37 34 35 38 36 34 32 31 29 26 26 25 22 22 22 21 22 21 19 21 22 25 31 33 34 37 43 42 39 35 40 40 35 33 32 33 31 16 17 12 5 11 12
39 36 34 38 41 38 35 33 32 29 27 27 25 25 24 23 23 23 23 24 25 30 33 33 35 40 44 36 34 31 36 35 32 32 30 33 28 10 11 13 12 13 14
41 41 38 38 43 43 38 36 35 33 31 29 27 26 26 25 24 26 26 27 29 31 32 32 34 40 38 31 30 32 32 32 33 27 24 27 24 19 17 17 16 16 15
43 42 41 39 41 44 43 39 38 38 35 33 31 28 27 26 25 24 26 27 28 30 31 31 35 37 32 30 32 23 28 32 34 32 27 22 22 22 26 25 20 21 19
36 45 42 43 44 45 44 43 43 41 40 37 34 31 30 28 26 28 30 30 29 30 30 29 34 30 28 27 26 28 29 32 37 39 32 26 27 26 26 30 29 26 31
38 33 41 44 47 46 44 45 45 44 42 40 37 34 32 32 32 29 29 29 29 29 29 32 34 29 27 24 23 23 23 28 34 41 43 36 39 31 29 33 34 31 31
40 36 33 43 46 47 47 48 46 46 43 42 40 37 36 34 31 31 29 29 27 28 30 33 32 27 27 26 26 23 23 25 31 33 39 41 33 31 29 28 32 32 33
43 41 38 35 39 45 49 50 48 44 42 42 41 40 39 35 33 31 30 30 29 32 35 36 34 28 28 31 27 25 29 31 35 37 40 41 37 33 36 35 34 31 35
49 48 44 37 33 38 42 47 48 47 46 45 45 44 42 36 34 34 32 32 31 33 36 37 36 30 32 32 29 28 32 33 35 39 42 42 35 33 34 21 24 24 31
55 50 45 41 38 35 35 39 47 49 49 49 49 47 45 39 36 37 35 36 35 37 39 40 39 30 32 33 34 32 32 33 36 38 41 44 42 38 37 25 24 22 20
55 52 50 48 46 42 37 38 43 47 49 49 50 50 46 41 39 39 38 39 39 42 43 43 39 32 32 34 34 33 34 36 38 39 39 41 40 38 39 40 40 31 28
57 56 53 50 47 43 40 37 40 44 49 51 51 49 47 45 42 41 41 42 45 46 48 46 37 33 33 36 36 36 35 36 38 39 39 41 39 38 37 37 44 50 43
57 56 52 50 49 45 46 43 40 41 45 46 48 49 46 46 44 44 46 48 50 50 51 46 39 35 37 40 38 38 38 39 39 38 40 40 42 40 39 37 44 52 52
51 56 57 56 54 52 49 48 47 46 46 45 46 46 46 47 49 50 52 53 55 55 47 43 40 38 42 42 41 41 41 42 41 39 40 43 46 47 47 45 45 44 50
40 43 48 54 57 58 56 54 53 53 54 54 54 53 53 55 56 57 57 58 59 52 42 40 40 42 42 43 42 43 45 44 42 43 46 50 54 60 57 58 52 46 42
44 43 41 42 41 42 45 50 55 57 59 60 60 60 60 61 61 60 57 55 52 43 37 40 43 44 45 45 45 47 48 48 48 48 51 55 58 61 59 59 62 57 51
54 52 48 46 44 42 41 41 41 42 44 45 46 47 47 47 46 45 45 43 41 41 43 44 47 48 48 49 50 52 52 52 54 54 57 60 65 64 62 59 63 62 55
59 57 56 55 53 50 48 47 46 47 48 47 46 45 46 47 47 46 45 44 45 47 47 49 50 50 52 53 54 56 57 57 58 61 62 66 69 71 67 62 62 64 61
66 65 63 62 61 60 58 56 55 53 54 53 54 55 56 56 55 55 53 52 53 52 52 53 53 56 57 58 59 60 61 62 64 69 71 72 72 74 70 70 63 66 64
68 68 68 67 67 66 65 64 63 61 59 58 58 59 59 59 59 59 57 57 57 57 58 57 59 60 62 63 64 66 67 70 71 75 81 78 79 80 74 73 65 67 62
69 70 70 70 70 69 68 67 66 67 65 64 63 62 62 61 62 63 62 62 62 63 63 64 66 69 70 70 70 71 73 78 80 82 83 86 84 81 78 73 69 59 58
75 75 76 75 74 73 72 71 70 70 69 70 70 69 68 68 68 69 69 70 70 71 72 73 75 76 77 77 78 79 82 85 86 84 87 84 84 85 82 73 64 56 62
82 82 81 80 79 77 76 75 75 74 73 73 74 75 75 75 75 75 77 78 78 79 80 81 82 83 84 85 86 86 86 89 89 90 84 85 83 75 66 52 56 63 60
89 89 88 87 85 85 84 82 80 78 77 77 78 79 79 81 83 84 84 85 85 87 88 88 89 90 89 90 91 91 91 93 94 88 86 77 70 64 60 58 53 53 49
95 94 92 92 91 91 91 89 88 86 84 84 82 82 82 84 85 86 88 89 90 91 91 92 92 93 94 95 98 98 96 88 88 87 76 73 68 64 59 54 53 52 48

GFSGL_250_spd_048.txt.gz
Wind_Speed
34 32 28 31 29 30 27 27 27 25 23 23 22 19 18 17 17 18 18 17 17 21 23 28 33 33 36 40 37 36 38 35 33 36 31 32 29 24 21 20 7 4 2
35 31 31 30 34 33 32 29 29 27 27 27 25 22 21 20 18 17 19 20 20 23 26 31 32 33 35 40 33 34 31 28 31 28 30 31 26 19 15 17 11 6 6
35 34 33 36 35 35 36 33 31 31 32 30 27 24 22 20 19 18 19 21 22 25 27 29 31 31 32 36 31 28 30 32 33 33 34 34 32 26 17 14 14 11 11
37 37 37 40 38 36 38 38 34 34 34 34 31 27 24 19 20 20 20 20 21 22 25 28 30 29 32 34 27 26 31 30 29 32 33 34 30 33 25 23 20 19 17
34 32 37 41 39 38 39 42 41 39 36 36 35 31 27 22 21 22 21 22 22 25 28 28 29 27 32 33 24 24 21 24 25 26 29 32 31 26 28 26 25 27 27
36 34 30 35 41 43 43 42 43 43 40 40 39 36 31 28 26 25 24 24 27 27 26 27 25 27 31 32 22 20 20 22 29 29 29 32 36 32 25 24 28 29 30
41 36 34 33 39 42 42 43 43 43 43 43 42 40 36 33 30 28 27 29 27 27 26 24 24 27 32 32 26 23 22 21 27 30 32 31 33 32 31 28 27 27 31
46 44 41 39 36 37 44 45 45 45 44 45 43 42 40 36 34 32 32 30 29 28 26 26 25 26 29 32 28 25 23 22 26 24 27 27 29 31 27 27 25 20 27
52 49 46 46 42 38 36 41 44 46 46 45 43 43 41 39 37 36 34 33 31 30 29 30 30 28 29 31 30 29 24 26 27 27 26 24 25 27 23 19 23 21 19
55 56 52 49 47 42 35 33 36 41 47 47 46 44 41 40 39 38 37 37 35 34 33 34 33 33 32 33 31 29 31 27 26 27 27 27 25 26 27 26 19 13 19
52 56 56 53 50 46 40 34 33 37 39 45 47 47 46 44 42 42 41 42 41 39 37 38 38 38 37 36 33 29 30 26 26 27 30 28 27 29 36 39 39 31 22
48 51 57 56 52 48 44 41 38 37 40 43 45 47 47 49 48 46 44 45 45 44 42 40 41 41 40 40 38 34 30 28 29 29 30 29 26 28 30 35 41 48 54
48 52 53 53 54 52 50 47 44 42 41 42 44 47 49 50 50 50 48 46 47 47 44 43 44 43 43 44 44 37 33 31 33 31 31 30 28 31 33 36 39 42 47
46 49 51 51 53 55 53 51 50 49 46 42 42 44 45 50 51 48 46 47 47 45 44 46 47 46 48 47 45 39 36 36 37 35 34 33 30 33 38 40 41 44 47
45 46 50 53 53 54 56 55 55 54 52 53 50 46 44 43 43 43 45 46 45 44 45 49 52 52 50 50 45 40 39 39 40 39 39 38 36 37 43 46 49 49 52
43 41 43 46 49 51 55 56 55 55 54 52 50 47 45 45 45 44 44 45 46 48 50 53 54 56 55 51 43 41 42 42 42 43 43 42 42 43 44 49 51 55 58
46 44 42 41 45 49 53 56 57 57 57 54 52 51 51 51 52 50 50 51 53 54 56 59 60 57 51 47 45 44 44 45 46 46 47 46 47 49 50 53 54 57 64
52 48 45 45 44 43 45 50 54 57 60 61 62 60 61 61 59 58 58 59 61 61 57 53 50 47 46 45 46 48 48 48 49 50 50 51 52 52 57 60 61 62 69
57 57 55 51 48 47 45 44 45 46 47 48 48 49 49 49 49 50 49 48 45 44 43 43 43 43 43 45 48 50 50 51 53 54 54 55 57 59 63 66 67 68 73
64 64 63 61 59 56 54 52 52 51 50 49 48 48 48 48 48 48 48 47 47 48 49 49 49 49 50 51 51 53 55 56 57 58 58 62 64 65 69 73 74 75 76
69 69 69 68 67 66 65 63 61 59 58 57 57 56 55 54 53 55 56 56 56 56 57 56 57 57 56 56 57 59 60 60 61 63 67 70 70 74 76 80 80 81 81
79 78 76 74 74 73 70 68 67 65 65 65 65 64 62 62 61 60 61 62 63 62 61 60 60 60 61 62 64 65 66 67 68 71 74 75 78 80 82 82 85 86 84
86 86 83 82 81 76 74 73 73 73 72 72 71 70 69 68 67 67 66 66 66 66 66 66 66 66 67 68 70 71 73 74 76 79 80 82 84 84 85 87 86 85 83
92 91 87 82 78 78 79 80 80 79 77 76 75 75 74 73 72 71 72 71 71 72 72 73 73 74 75 75 76 77 79 81 82 83 85 86 87 89 90 88 89 86 82
96 94 91 86 81 83 84 84 83 82 83 81 79 78 78 78 78 77 76 76 75 75 76 77 78 80 81 82 83 85 86 86 87 87 89 91 91 91 90 88 87 80 74
101 99 96 93 91 90 91 88 88 89 89 86 85 82 82 81 82 81 81 80 79 79 81 82 81 81 82 84 86 87 89 90 91 92 92 93 93 94 91 87 84 84 69

GFSGL_250_spd_051.txt.gz
Wind_Speed
27 27 31 32 30 29 28 24 22 22 21 19 19 17 16 15 15 16 17 17 18 20 20 23 24 26 28 30 33 28 27 33 31 30 33 30 24 16 16 18 15 7 1
27 30 29 32 32 31 30 26 24 23 23 22 22 21 20 18 17 17 17 16 16 18 20 23 24 26 25 27 31 26 27 26 29 33 35 33 24 22 13 11 11 10 10
25 29 30 31 35 34 32 29 26 25 25 25 25 24 24 22 20 19 19 17 17 19 19 21 26 26 24 26 27 25 23 25 27 28 31 33 33 26 22 16 10 10 13
27 29 31 34 37 35 32 32 30 28 29 28 27 27 26 25 23 21 19 19 20 20 22 25 27 24 22 23 26 23 23 24 25 27 26 29 31 28 26 23 20 20 13
29 30 32 34 34 34 36 36 34 33 33 33 31 30 29 29 28 24 21 21 22 22 23 27 26 24 21 22 23 22 21 23 24 27 26 26 27 28 23 21 22 27 24
35 34 32 30 30 34 36 39 39 37 36 37 36 35 34 33 32 31 27 26 26 25 25 27 26 25 22 22 23 24 17 21 24 25 27 24 24 26 25 22 21 26 25
41 37 35 35 34 31 34 37 40 40 39 39 39 40 37 36 36 34 33 30 31 30 29 28 26 25 25 25 23 25 21 20 25 27 29 27 23 23 24 23 20 25 26
42 42 41 40 38 35 32 34 36 37 41 41 40 41 41 40 38 38 38 36 35 33 34 31 27 27 27 28 26 24 27 20 24 28 31 28 24 22 21 18 18 22 24
41 46 46 44 41 40 39 33 29 34 38 39 42 44 45 43 42 41 40 38 38 36 36 34 31 29 29 31 31 28 25 25 26 26 28 28 25 21 16 14 13 15 22
41 42 45 48 48 46 43 39 35 33 33 37 42 46 48 48 45 43 42 41 40 38 38 38 35 33 32 33 34 32 29 27 29 29 27 29 27 22 19 14 16 16 17
45 44 45 46 49 50 48 42 41 39 37 36 38 41 45 48 49 47 43 43 44 43 42 42 39 37 36 34 36 35 32 32 32 32 31 30 29 28 25 26 26 26 29
49 45 45 46 49 50 51 49 45 43 44 43 40 41 42 42 44 47 48 49 49 49 47 44 43 41 40 39 38 38 34 35 35 36 37 34 32 32 30 30 30 30 36
49 47 47 47 48 48 49 52 51 50 49 48 46 46 43 41 41 41 45 50 52 53 52 49 46 45 45 43 42 41 38 39 39 39 39 37 35 36 35 34 33 33 37
50 47 47 46 46 47 49 52 56 55 53 52 51 50 45 42 40 39 42 49 52 51 49 49 47 46 46 44 43 43 42 43 42 42 42 42 39 38 39 36 36 37 38
48 46 44 41 42 45 49 54 57 58 56 56 56 53 50 49 47 45 45 44 42 42 42 47 49 49 47 46 45 45 47 47 47 45 45 43 42 41 43 41 39 40 42
49 44 41 37 38 47 48 51 55 58 61 61 56 56 56 54 50 49 48 44 43 42 44 47 47 46 45 47 49 50 52 53 50 46 46 44 44 44 45 44 44 45 47
50 47 42 37 15 54 49 50 50 55 56 57 57 57 57 56 54 53 52 49 46 44 45 47 48 48 51 53 54 57 55 51 48 45 45 45 46 47 46 46 48 49 52
54 48 51 59 57 54 52 53 51 51 50 52 53 54 55 54 52 50 49 47 48 48 49 52 55 57 56 57 54 48 43 42 41 43 44 46 49 49 48 50 51 54 58
60 58 56 56 58 58 59 57 53 49 47 48 50 52 55 57 59 58 56 54 52 53 53 52 50 49 46 44 43 42 43 44 46 47 47 49 50 50 53 54 57 60 64
63 62 61 59 60 60 58 56 54 51 49 48 49 50 51 50 50 49 49 48 47 46 45 45 46 46 47 47 47 48 50 51 52 52 52 53 54 55 57 59 62 64 69
67 65 63 61 61 63 61 59 57 54 53 52 51 51 50 50 49 49 49 49 49 48 49 49 50 51 52 53 54 54 55 55 56 56 57 58 60 62 64 66 68 71 73
72 72 71 69 68 68 68 66 64 63 62 60 59 58 58 57 57 58 58 58 58 57 57 57 57 57 58 58 59 60 60 60 60 60 62 64 65 67 69 71 74 76 78
80 79 78 76 76 75 73 73 73 71 70 68 67 67 67 66 65 65 64 64 64 64 63 62 63 63 64 64 64 65 66 66 66 68 69 69 72 73 75 76 77 79 79
86 85 84 83 82 83 82 80 79 78 77 76 75 74 73 71 71 70 70 69 70 70 70 70 69 69 69 70 70 71 72 73 73 73 74 75 77 78 79 78 78 82 83
96 95 92 90 90 88 89 87 85 85 84 83 80 78 77 76 75 75 76 76 75 74 74 74 74 74 75 76 76 77 78 78 78 79 80 80 80 81 82 84 85 84 83
101 101 101 99 99 97 94 94 94 92 91 89 85 81 81 81 81 81 81 81 81 80 80 79 79 79 80 81 81 82 83 83 83 84 85 85 87 88 86 86 85 84 84

GFSGL_250_spd_054.txt.gz
Wind_Speed
21 22 23 27 29 27 27 24 22 22 21 19 17 15 14 13 11 10 12 14 16 17 16 18 19 23 23 22 26 29 27 27 30 33 35 34 26 18 12 12 11 7 4
26 23 23 26 29 31 31 29 27 26 25 23 20 18 17 16 14 13 14 16 18 18 18 18 20 24 23 20 23 27 25 26 28 31 35 36 33 25 20 13 11 10 8
27 26 24 25 28 31 32 32 30 28 28 26 22 21 20 18 18 17 16 18 20 19 19 20 21 25 23 20 21 23 25 24 25 26 29 33 32 31 23 18 17 17 12
28 29 26 27 30 29 29 32 33 30 28 27 24 23 22 21 21 20 19 19 20 20 21 22 22 25 24 21 20 22 25 22 22 24 26 28 30 30 29 25 18 18 18
30 31 32 29 28 29 30 32 34 34 34 31 29 27 25 24 24 24 23 22 24 24 24 24 25 27 25 21 19 22 23 22 19 21 21 24 24 24 25 24 22 20 21
33 34 33 31 28 28 31 32 35 36 36 36 36 32 30 27 27 26 26 27 29 29 28 28 27 28 27 23 21 21 21 23 21 20 21 22 22 22 20 19 22 22 22
35 35 35 34 32 30 29 32 36 36 36 39 37 36 35 32 32 31 30 30 31 31 31 31 30 30 29 27 24 23 22 23 24 23 21 23 22 21 21 16 16 17 14
34 34 37 38 37 34 33 34 33 34 38 37 35 37 37 38 36 35 35 35 33 33 34 34 33 33 33 30 27 26 25 25 26 26 25 23 23 23 21 16 17 19 12
35 34 36 39 40 39 39 39 37 35 32 35 36 34 38 38 39 39 40 39 38 36 36 36 36 35 35 35 32 29 29 27 26 27 28 29 27 25 24 24 19 19 25
39 38 38 38 38 42 43 44 42 39 35 32 30 35 38 38 41 43 44 43 43 41 41 40 39 38 37 37 37 35 33 30 31 29 29 30 30 29 28 28 26 26 26
42 41 40 39 38 38 38 39 42 43 42 41 37 34 34 36 40 42 45 46 45 46 45 44 43 43 39 40 40 41 38 36 35 35 33 34 34 33 34 34 36 32 31
45 43 42 42 40 38 39 41 44 46 47 46 45 43 39 37 37 40 43 45 45 47 48 50 48 46 45 44 44 44 42 41 40 39 37 37 37 39 38 37 40 39 37
47 45 43 45 47 47 45 43 43 47 50 50 50 48 47 43 40 38 40 42 42 44 45 44 47 50 49 48 48 47 45 44 42 41 40 40 41 41 43 44 44 44 43
51 48 47 46 46 48 48 47 46 47 48 50 52 51 50 46 44 43 43 42 42 41 40 41 39 41 42 45 47 46 45 46 46 45 42 42 46 47 48 49 48 46 45
55 52 50 47 47 49 48 46 46 48 49 50 50 52 52 51 50 50 48 48 46 44 43 44 41 41 40 41 45 45 44 45 43 42 43 46 49 52 53 50 49 48 47
59 57 51 50 50 49 47 45 44 47 51 53 53 55 56 56 58 55 52 50 51 49 47 45 45 47 45 44 42 41 40 41 42 45 49 51 54 54 52 50 49 47 47
63 60 54 51 50 48 44 40 45 51 55 58 53 53 56 58 60 59 55 53 52 51 50 49 50 49 46 44 43 43 44 47 50 51 53 57 54 49 46 45 44 45 48
65 62 58 52 49 46 40 39 41 31 45 36 39 42 47 52 57 58 57 55 55 55 54 55 52 48 45 47 48 49 51 53 54 53 47 43 42 42 43 44 45 47 50
69 59 57 54 49 51 49 40 39 50 62 63 59 55 49 50 52 53 53 53 54 52 51 51 54 52 51 52 52 51 50 46 43 42 43 44 46 47 48 49 50 51 54
68 63 65 64 58 50 62 59 67 67 68 66 63 55 53 49 47 48 49 50 53 55 57 59 60 56 52 49 47 44 44 45 46 48 49 50 51 51 52 53 54 55 56
76 75 73 74 71 67 75 64 67 72 73 65 61 59 55 52 51 49 49 49 49 50 50 49 48 48 48 47 49 49 50 51 51 52 54 54 54 55 56 57 58 59 60
84 81 80 82 82 78 80 79 76 74 68 69 66 60 58 57 57 56 52 52 53 52 52 51 52 52 52 53 55 57 58 59 59 59 59 58 58 59 59 60 62 62 64
90 87 84 84 84 84 85 88 82 81 83 81 75 69 67 66 64 63 62 61 60 60 59 59 60 60 62 64 65 64 63 63 63 64 65 65 65 65 66 67 68 69 70
94 91 89 86 86 84 83 82 84 86 87 84 80 77 74 72 70 70 71 71 70 69 69 69 68 68 67 67 68 68 68 68 68 69 70 71 72 72 72 72 73 73 74
95 93 91 87 86 86 85 85 83 81 82 82 81 79 78 77 78 78 76 76 76 75 74 73 72 71 71 72 73 73 74 75 75 75 75 75 76 77 77 77 77 78 78
101 99 96 95 93 91 90 89 88 88 87 86 85 84 83 82 82 81 81 81 81 80 78 77 76 76 76 78 78 78 80 80 80 81 81 81 82 83 83 84 83 83 85

GFSGL_250_spd_057.txt.gz
Wind_Speed
24 22 22 24 24 23 23 23 23 22 20 18 15 13 13 14 14 13 12 10 10 13 15 18 20 21 25 24 23 25 29 28 28 26 29 32 32 25 20 17 15 10 6
26 25 26 24 26 27 28 27 27 25 24 22 19 17 17 17 17 17 16 13 12 12 13 15 19 20 23 24 22 23 25 27 27 27 26 27 29 29 24 19 20 20 15
25 27 27 27 26 30 30 30 31 29 27 25 23 21 21 21 20 19 19 18 15 13 13 13 17 20 23 23 21 20 21 24 26 26 25 25 26 28 27 23 17 13 10
27 28 28 30 31 29 27 28 31 31 29 27 25 24 24 24 23 23 23 23 20 17 15 15 17 20 23 24 22 19 19 20 23 24 25 25 25 23 24 22 21 20 15
30 30 31 31 32 32 29 27 30 32 31 29 27 27 26 26 24 25 25 26 25 23 20 20 21 22 23 25 25 21 18 19 21 22 22 24 24 23 22 21 19 17 12
34 34 31 31 31 32 33 32 30 34 33 30 30 31 31 30 28 28 28 28 28 27 26 24 24 24 24 26 26 25 21 18 19 21 21 22 23 22 21 22 20 15 11
39 36 34 32 33 34 35 34 34 34 34 34 32 32 33 34 34 34 33 32 30 28 29 29 27 27 27 28 29 29 27 22 21 20 21 23 22 22 23 22 20 17 11
42 38 34 31 34 34 35 34 35 36 35 34 33 33 34 37 38 38 37 37 37 35 33 32 30 29 29 30 31 32 31 29 26 26 22 23 25 24 25 25 26 24 20
45 41 37 35 32 32 34 37 37 35 34 33 31 32 37 36 36 38 40 40 39 39 39 36 35 35 34 34 35 35 34 33 32 32 31 27 26 27 26 27 28 32 31
49 47 40 35 33 33 35 37 37 37 37 35 32 32 34 37 41 40 40 39 38 39 40 40 39 39 38 39 39 38 38 38 36 36 36 36 32 30 31 30 29 31 35
55 48 43 39 38 36 35 35 36 40 40 41 39 38 38 36 35 37 40 40 39 40 41 41 42 42 42 43 42 41 41 40 39 41 40 40 39 34 34 35 35 33 34
54 48 47 44 41 39 38 38 38 39 41 42 42 43 44 44 43 42 40 38 33 36 39 40 40 40 41 42 43 45 45 44 44 42 43 44 42 41 41 39 37 37 37
56 53 51 48 43 42 41 40 41 40 39 39 39 41 41 43 45 47 47 45 41 38 37 36 36 36 36 37 40 43 43 43 46 45 45 45 44 43 42 40 41 44 45
60 56 55 53 48 48 44 43 44 44 43 41 41 42 42 43 44 46 48 48 47 44 43 41 38 35 34 31 32 35 38 41 44 44 44 44 44 42 38 41 46 49 51
65 61 60 57 54 51 48 47 45 45 45 46 45 43 43 44 45 47 49 50 51 52 50 47 43 41 39 37 38 38 40 42 45 45 45 43 40 39 42 46 51 53 54
68 66 64 62 58 54 53 53 49 48 49 48 46 44 46 46 46 48 49 52 54 54 54 52 48 47 44 43 43 44 46 45 44 42 40 41 42 45 49 53 55 53 46
71 68 66 65 63 59 58 55 53 51 48 46 44 45 45 47 49 51 49 53 54 53 54 55 55 54 52 50 50 51 50 51 49 46 46 46 48 52 54 55 49 43 42
73 73 70 68 65 63 60 59 56 53 51 51 51 49 45 47 54 53 52 53 48 48 53 54 54 54 55 56 55 52 54 47 46 47 49 51 52 51 48 44 43 45 46
69 72 71 68 69 67 63 61 58 57 54 52 47 50 50 48 39 36 38 46 48 44 46 49 51 54 51 51 51 50 50 52 55 52 50 47 45 44 46 47 48 49 49
70 73 67 70 73 69 67 62 59 56 50 48 54 52 43 45 47 53 55 54 51 45 47 49 50 50 51 52 52 53 54 53 50 46 43 44 46 47 49 52 53 54 54
63 63 65 69 67 67 68 67 59 58 62 60 60 56 62 58 60 58 58 56 57 58 50 49 49 50 51 50 50 50 48 46 48 48 49 49 51 54 55 57 58 57 57
73 71 70 66 68 68 68 69 57 63 67 67 74 72 66 67 72 70 70 72 72 56 54 55 55 55 55 54 55 55 52 51 52 54 54 55 58 59 60 61 61 60 60
79 77 75 78 76 73 75 74 72 79 74 74 75 77 76 76 74 77 77 75 70 60 61 63 62 60 60 59 58 58 58 58 59 60 61 62 63 63 64 65 66 66 66
88 82 82 89 84 83 79 76 73 72 79 79 76 78 84 84 85 87 89 85 79 77 77 74 74 67 66 67 67 67 68 67 67 67 67 67 67 68 68 70 72 74 74
97 91 65 70 87 87 83 78 75 77 81 80 81 80 82 86 90 91 90 86 83 86 86 85 84 78 73 73 74 74 74 73 74 74 74 73 74 75 77 76 77 77 79
101 101 105 107 101 100 97 90 86 88 88 89 89 86 87 88 90 91 93 90 89 90 91 88 82 79 79 78 77 77 77 78 79 79 80 79 79 81 83 86 82 83 83

GFSGL_250_spd_060.txt.gz
Wind_Speed
23 24 27 27 25 22 22 22 22 20 19 16 15 13 12 11 11 12 13 12 11 12 11 13 15 17 20 23 23 23 25 27 29 28 25 25 26 27 24 20 20 20 13
25 24 25 27 28 28 26 24 23 23 21 20 19 16 16 16 15 14 15 17 15 13 10 10 12 15 17 19 21 20 22 24 25 28 27 25 24 23 23 23 21 19 16
25 25 25 25 28 30 30 30 29 27 25 24 21 18 19 20 19 17 18 20 19 17 14 12 12 13 15 17 18 19 19 20 22 24 25 26 25 22 21 23 23 20 14
29 26 26 27 30 30 29 31 31 29 26 25 23 22 22 22 22 20 21 23 24 21 19 18 16 17 16 16 18 19 19 18 19 21 22 24 25 24 22 19 21 23 15
34 32 31 29 27 30 30 28 32 32 30 27 26 25 25 25 23 23 23 24 24 24 23 22 22 22 22 20 19 19 20 19 18 20 22 22 24 25 25 23 17 16 19
39 36 32 30 29 30 32 34 32 34 34 31 29 27 28 29 26 26 27 27 26 26 27 25 25 25 25 25 24 23 21 22 21 20 22 23 23 22 23 24 22 17 17
44 41 38 35 33 31 31 31 35 37 36 35 33 31 30 30 29 29 31 31 31 30 30 31 31 31 30 28 28 26 25 23 24 23 22 23 24 25 26 23 23 22 22
47 45 42 39 37 33 32 33 33 36 37 37 36 34 34 34 33 32 32 34 34 33 32 34 34 35 34 34 33 31 30 29 27 28 27 26 26 26 27 29 28 26 27
51 50 48 44 39 35 34 33 32 35 36 37 36 35 34 34 34 34 34 36 35 34 34 35 36 35 34 35 35 35 35 33 32 31 31 30 30 29 29 30 31 31 29
57 57 52 47 42 39 34 32 30 31 36 37 35 34 34 36 34 35 35 36 36 36 38 36 36 36 37 37 38 38 37 36 34 33 34 33 33 33 33 34 35 34 35
66 60 54 51 47 43 38 35 33 33 32 36 38 38 37 36 35 36 35 34 35 32 34 34 35 35 36 36 36 36 35 34 35 36 35 36 37 37 38 38 39 36 38
68 62 58 55 50 46 42 39 37 36 34 35 36 36 38 38 38 39 39 39 38 36 36 36 36 35 33 32 32 31 31 30 30 31 34 35 36 38 37 38 39 37 35
69 63 62 57 53 49 46 46 42 39 38 38 38 37 36 37 38 38 39 41 40 42 43 43 43 40 39 37 34 30 29 29 30 31 33 34 35 38 39 37 38 38 34
71 66 64 60 57 53 50 51 48 44 43 41 38 38 37 37 37 37 37 39 41 43 44 44 44 44 45 42 38 35 34 35 34 36 37 37 38 37 37 37 37 37 39
75 70 66 62 60 59 56 56 52 49 47 45 44 42 40 40 41 41 42 43 44 45 44 44 45 46 46 45 43 41 41 40 41 41 41 41 42 42 41 39 39 40 43
77 71 67 65 64 63 60 59 55 52 51 49 47 46 46 45 45 45 46 48 47 45 45 46 44 44 44 43 42 44 44 46 48 48 47 47 47 48 45 43 44 44 47
76 70 68 67 67 66 64 62 59 58 56 54 52 51 51 49 48 48 49 48 49 48 47 44 43 40 37 37 41 41 43 44 47 46 47 48 45 45 39 45 46 46 41
78 71 68 70 69 67 67 64 62 62 61 60 57 55 54 54 53 51 49 47 49 47 46 49 46 42 41 37 38 43 42 40 41 40 43 43 44 46 49 48 43 37 37
76 73 71 73 69 66 65 67 69 66 65 62 61 60 57 56 52 53 52 50 48 51 47 45 43 39 42 44 45 43 41 41 41 41 43 45 44 46 44 41 38 39 41
69 77 77 74 70 66 63 64 68 67 65 64 63 61 59 59 58 58 57 52 58 60 42 37 45 44 45 46 45 44 43 45 44 43 45 45 46 45 43 43 44 45 47
29 73 73 68 64 65 61 64 60 62 63 61 56 55 56 60 62 56 56 48 61 53 51 47 50 46 46 53 53 52 49 48 48 50 49 50 47 45 46 47 48 51 53
91 83 74 70 67 64 65 67 68 69 64 66 68 66 64 59 58 61 64 60 53 59 61 62 62 59 62 65 67 68 62 52 55 57 57 57 56 58 53 53 55 57 58
83 82 78 66 67 67 68 75 71 67 66 66 70 68 72 74 74 72 71 66 67 68 71 68 68 69 68 73 70 63 63 68 70 64 63 68 65 63 63 62 63 65 66
93 88 85 85 79 76 77 74 71 61 54 64 67 68 65 71 77 77 72 70 69 70 69 71 74 72 74 74 74 77 76 75 67 66 70 70 68 66 65 65 70 71 72
99 100 96 89 86 85 81 79 78 72 73 82 81 71 75 70 72 73 75 75 75 81 79 75 78 81 82 81 81 83 82 79 76 74 73 73 71 71 72 73 74 74 77
93 96 95 94 93 89 89 88 88 89 90 88 85 76 78 76 79 82 83 82 85 86 83 82 80 83 83 81 82 85 86 86 84 82 81 81 80 80 84 86 85 83 86

GFSGL_250_spd_063.txt.gz
Wind_Speed
22 23 27 28 30 31 29 27 26 24 22 20 18 16 14 13 11 11 13 11 8 8 10 11 11 14 16 18 20 22 22 22 24 25 28 28 25 22 22 23 23 18 18
24 23 24 27 29 31 31 31 29 27 26 24 22 20 18 16 14 13 14 15 12 10 10 12 12 12 15 17 18 19 21 21 20 22 23 25 27 26 24 20 20 19 17
29 28 26 27 29 31 30 31 32 29 27 25 24 22 21 20 18 16 15 16 16 14 13 15 16 16 16 18 19 19 18 19 19 19 19 21 21 22 23 23 21 17 18
31 31 28 26 28 27 24 28 29 29 29 28 26 24 24 23 22 20 19 18 17 16 15 15 17 19 19 20 21 21 20 20 19 19 19 19 20 20 20 19 19 21 20
34 33 32 30 27 26 28 28 25 25 27 29 30 28 27 27 25 24 23 22 20 19 18 17 18 19 20 21 22 23 22 21 20 20 21 20 20 19 21 21 20 18 18
40 33 33 35 33 29 27 28 29 28 27 26 30 33 32 32 30 28 27 25 23 22 21 22 22 22 22 23 25 26 26 25 23 21 21 23 23 22 21 22 22 22 20
45 39 38 37 37 35 30 29 30 30 27 28 29 31 34 35 33 31 30 29 27 26 25 25 26 25 25 25 26 27 28 26 26 26 26 24 22 23 23 23 24 25 24
49 45 43 41 39 38 36 33 31 30 29 27 27 29 31 34 34 33 32 32 30 29 29 29 28 28 28 27 28 27 28 29 28 28 27 27 27 25 24 25 26 27 28
56 55 51 46 42 41 40 36 33 31 30 28 26 26 28 30 32 33 34 35 33 30 30 31 30 29 29 29 29 30 29 30 30 31 31 30 28 27 27 28 28 29 32
65 71 59 50 46 43 41 38 36 34 33 31 29 28 29 30 31 31 31 33 33 28 27 28 28 27 28 28 27 25 25 26 29 29 29 28 28 29 28 28 30 33 33
66 62 65 56 50 45 44 42 40 37 33 33 33 31 30 31 32 32 32 32 34 31 29 29 30 28 27 28 29 29 28 26 26 26 27 27 26 27 28 28 29 30 31
70 64 65 60 54 49 48 46 42 41 37 37 36 35 35 33 32 32 33 36 36 34 32 32 34 34 34 33 35 34 32 30 28 27 29 30 30 30 30 30 30 31 30
62 59 54 56 54 52 50 49 47 44 43 42 40 40 39 36 34 33 34 36 36 35 33 34 37 36 37 38 39 37 35 34 33 34 36 37 37 35 35 35 36 34 33
91 80 71 64 62 58 56 52 51 49 48 47 47 45 42 39 36 34 35 35 35 37 36 36 37 38 39 40 39 38 36 36 35 37 38 41 40 41 40 42 45 42 40
92 89 79 71 69 66 61 56 54 54 52 51 52 50 46 43 43 40 38 38 37 38 38 39 39 39 40 40 39 37 35 33 33 35 39 40 40 40 41 44 45 42 41
96 93 84 78 75 72 65 60 58 57 58 56 54 53 50 49 47 45 44 42 40 39 42 42 42 40 40 40 39 36 32 30 30 34 36 37 38 37 37 39 39 38 38
102 96 91 86 81 76 68 62 62 62 62 60 56 55 53 53 51 49 48 47 41 42 43 42 43 45 46 44 40 39 31 27 30 32 35 35 32 32 34 35 39 39 41
98 95 90 85 81 77 71 66 64 65 64 62 59 58 59 56 55 53 52 50 47 43 44 42 42 48 47 43 43 49 44 40 35 35 34 35 33 31 33 35 38 38 36
98 93 88 82 76 76 71 69 69 70 66 64 62 60 59 61 60 58 56 52 48 42 42 46 46 45 49 50 47 41 38 39 40 35 35 36 39 38 36 35 36 36 39
97 94 89 86 79 75 72 68 67 69 67 64 61 58 63 64 66 66 62 54 46 45 45 46 43 46 55 56 55 43 41 45 42 40 44 43 51 56 44 40 41 43 44
102 93 88 86 77 70 67 66 68 68 68 63 60 54 53 57 64 58 55 54 50 41 36 30 24 29 47 52 52 52 52 51 58 60 61 60 57 55 52 54 55 49 49
88 86 80 74 69 66 68 69 71 73 68 61 57 53 47 50 56 57 53 55 54 52 53 44 33 47 60 44 59 69 65 71 71 73 71 66 62 61 60 64 62 55 55
95 81 77 61 41 64 65 68 69 71 61 54 47 49 54 65 73 68 66 65 63 65 62 55 54 55 61 66 71 77 81 77 72 69 69 67 69 67 66 67 63 63 62
97 87 75 84 76 55 54 62 56 64 59 56 54 61 61 75 78 83 75 68 70 68 67 65 62 69 75 77 77 74 78 79 75 74 72 73 73 73 69 71 73 73 73
102 97 94 87 91 76 51 62 63 62 55 55 61 71 73 60 60 74 78 75 74 67 65 66 66 67 72 76 80 80 77 79 82 81 78 73 70 72 78 82 81 81 80
109 106 96 99 97 98 87 79 73 74 74 72 58 62 64 84 74 72 78 76 76 72 65 63 67 72 76 78 78 80 83 83 84 84 83 75 77 80 83 86 86 86 85

GFSGL_250_spd_066.txt.gz
Wind_Speed
25 28 28 28 29 30 28 26 24 22 21 20 18 17 16 15 14 12 11 9 10 12 10 10 13 16 17 19 20 22 21 21 21 21 21 21 21 23 23 21 19 17 17
26 26 29 30 30 30 30 30 29 28 26 24 23 22 21 20 17 15 14 12 12 12 13 12 12 15 17 19 20 21 21 20 20 19 20 20 20 19 19 19 19 18 17
30 30 27 30 32 32 29 29 31 31 30 28 26 24 23 22 20 18 17 16 15 15 15 15 14 14 17 18 20 21 22 22 22 20 18 17 18 18 18 18 18 17 17
34 32 33 28 28 28 26 27 27 27 26 26 26 24 24 24 23 21 20 21 19 18 18 17 18 16 16 17 18 19 21 23 23 22 21 19 18 16 17 18 18 20 18
38 34 34 34 28 28 27 26 24 26 26 23 25 27 27 27 26 25 25 24 24 22 21 20 21 21 21 21 20 20 22 22 22 23 23 22 21 21 19 17 16 17 23
45 41 34 35 33 29 28 27 24 24 24 24 23 22 25 26 27 29 30 29 27 25 25 24 23 23 23 23 22 23 22 21 20 21 23 24 23 22 21 23 22 20 18
51 44 39 34 38 34 29 29 27 26 23 25 26 25 24 24 23 26 29 30 29 28 25 25 25 25 26 26 25 25 25 24 23 23 24 25 25 25 24 25 27 29 28
51 52 48 43 39 41 36 32 28 26 26 23 22 24 24 25 23 22 24 27 28 28 28 27 26 26 26 27 26 26 26 26 26 26 26 27 26 25 26 27 28 29 29
57 54 52 52 45 43 38 37 31 27 27 27 23 22 22 20 20 22 22 26 26 25 24 25 24 23 23 24 24 21 20 20 24 25 25 26 27 27 27 29 28 29 29
63 51 51 56 54 48 42 40 35 33 30 28 27 26 26 24 22 22 22 24 26 23 20 23 25 24 25 26 25 25 26 25 26 26 26 27 27 26 26 27 28 30 31
52 59 49 52 55 53 46 44 39 36 34 32 31 27 28 27 26 24 24 25 24 24 25 25 27 27 27 27 28 29 30 30 32 30 28 26 28 29 29 30 30 32 32
59 52 51 53 53 52 51 49 44 41 39 36 35 33 31 31 29 27 27 28 26 25 26 25 27 28 29 29 30 31 32 32 33 32 32 30 30 34 31 33 34 35 34
72 66 64 56 58 49 52 49 52 45 44 41 39 37 35 33 33 31 30 29 29 29 26 25 27 28 30 31 31 31 32 31 30 30 28 28 30 32 32 35 37 38 36
77 75 61 73 67 59 59 55 55 52 51 45 43 41 37 35 37 37 33 32 31 32 31 27 27 30 31 31 31 31 31 29 30 30 29 29 27 28 27 28 28 30 32
83 71 67 69 77 66 70 64 62 58 57 49 46 43 40 40 40 39 37 36 35 34 32 32 33 33 33 32 34 32 31 32 32 29 27 28 26 26 26 21 23 23 28
87 75 56 52 57 63 61 64 62 57 54 49 48 46 44 44 43 41 40 40 38 37 35 36 38 36 37 38 37 36 33 33 24 26 31 29 24 25 27 23 22 26 23
105 90 69 69 68 66 63 63 63 58 50 52 52 51 50 49 47 46 45 43 41 39 38 41 44 41 41 43 44 43 39 33 25 30 32 34 30 31 29 28 28 31 33
111 105 99 87 83 75 70 70 71 67 63 60 59 57 56 54 52 51 50 47 44 41 43 46 46 46 47 46 45 45 44 40 37 37 32 30 30 31 27 32 34 41 44
116 114 113 108 105 98 91 84 83 82 79 74 67 64 64 60 58 57 55 51 48 45 46 50 47 47 46 41 39 40 44 47 48 42 29 28 31 29 29 37 42 50 47
116 120 113 108 105 105 99 95 92 84 80 76 73 69 67 65 62 62 56 54 50 53 50 53 51 50 46 41 38 37 30 31 36 43 53 46 41 39 41 50 53 54 50
124 122 119 111 106 104 104 98 93 89 80 66 68 68 66 65 64 60 61 55 49 49 45 45 45 41 38 38 32 29 40 39 40 41 76 55 58 47 68 65 65 60 58
125 121 121 116 109 104 103 101 97 92 86 81 73 64 65 67 65 62 57 55 56 50 49 49 45 41 42 46 43 34 34 37 52 50 59 69 66 71 77 74 72 69 66
123 121 122 121 114 108 104 102 97 90 81 74 68 70 72 68 62 61 59 60 62 57 56 54 52 53 58 59 61 51 45 54 66 60 57 70 72 77 81 82 83 79 76
130 121 121 119 114 112 105 103 99 85 62 57 73 76 75 74 61 59 59 58 62 59 63 64 61 61 63 68 70 67 61 60 69 72 73 75 74 80 91 93 93 87 82
125 125 121 119 114 108 109 99 94 84 80 63 65 64 67 63 59 64 61 61 61 69 74 73 70 70 73 73 74 76 77 76 73 78 73 79 87 92 95 98 94 96 89
117 116 124 122 115 103 107 97 93 83 78 91 73 68 71 69 63 65 71 69 76 75 70 72 76 82 75 79 82 86 85 83 80 82 86 92 93 99 98 94 98 93 87

GFSGL_250_spd_069.txt.gz
Wind_Speed
27 27 28 31 30 30 31 28 26 23 21 19 16 15 14 13 9 9 9 9 9 9 9 10 13 13 15 16 18 20 21 21 22 21 20 21 22 21 21 21 22 21 19
27 26 26 27 29 31 33 32 30 28 26 24 22 20 19 18 14 12 11 11 10 11 12 12 13 14 13 14 15 17 19 21 22 22 22 19 18 18 19 19 18 17 18
32 29 27 29 30 30 32 33 32 32 31 29 27 24 24 22 19 16 14 15 12 12 14 15 14 14 15 16 17 16 17 19 20 22 22 21 21 20 18 17 17 16 17
36 32 29 28 27 27 29 32 31 30 31 30 27 27 25 24 20 18 18 18 17 16 15 15 16 16 17 18 18 18 18 19 19 19 19 20 20 20 21 21 19 20 20
38 35 35 30 27 23 22 28 31 29 28 28 26 25 23 22 20 19 19 19 19 18 18 17 16 17 18 18 19 20 20 20 20 19 20 21 20 21 21 23 23 21 23
45 43 37 34 33 29 25 24 25 27 25 24 27 25 23 22 20 20 19 19 20 19 18 18 17 17 18 19 20 20 20 20 20 20 21 23 23 22 22 23 23 23 22
54 49 43 38 32 34 32 27 25 24 24 25 23 22 22 22 20 19 18 16 16 16 17 17 18 19 20 20 19 20 19 19 19 18 18 20 20 22 23 23 23 21 21
57 53 48 45 36 36 37 34 29 25 25 23 19 18 17 18 19 20 20 19 18 14 14 18 18 18 19 19 20 17 18 17 16 18 18 19 19 21 23 23 23 22 22
60 56 51 50 44 41 42 41 35 28 26 24 22 18 17 15 14 16 17 19 18 16 13 13 14 17 17 19 21 21 20 17 20 24 23 21 21 22 23 23 25 26 27
61 57 58 56 51 49 50 48 41 38 31 28 25 23 21 18 18 18 18 17 17 15 13 14 15 16 16 20 23 22 20 20 24 25 27 27 24 23 26 26 23 23 27
63 59 57 55 49 48 47 51 47 44 40 33 30 26 24 23 21 21 20 19 16 13 14 15 16 17 18 20 23 24 22 23 26 27 27 26 24 24 23 25 25 23 24
75 70 62 59 51 57 56 51 50 49 50 40 36 32 29 27 26 25 24 23 18 17 15 14 14 16 18 18 22 24 21 23 26 27 25 24 25 24 22 21 20 19 19
87 82 73 67 63 57 59 60 55 49 53 45 40 40 33 31 30 29 27 27 23 22 19 16 17 19 20 19 18 20 21 22 23 25 27 24 25 27 25 20 14 8 12
88 87 80 76 70 68 61 64 58 53 54 56 49 46 40 34 34 34 32 29 28 28 23 19 20 24 25 25 23 22 23 24 26 27 26 28 28 26 25 21 14 9 13
88 87 83 81 83 73 67 72 63 57 54 53 50 47 45 42 39 38 36 34 31 29 26 25 27 30 31 29 27 27 28 29 31 33 28 27 27 27 25 20 17 16 14
100 90 90 89 85 82 74 74 67 61 59 54 51 49 48 51 43 43 39 35 33 30 28 31 33 33 36 32 31 33 34 35 39 39 39 36 35 35 28 24 19 16 16
105 102 93 92 92 84 79 83 74 63 64 64 59 55 53 57 51 50 43 37 35 34 34 36 36 37 39 36 34 35 36 37 36 38 36 38 40 42 41 35 28 18 17
109 103 100 98 95 89 85 85 75 71 72 71 66 60 64 64 54 52 45 34 37 38 39 41 40 42 44 43 42 39 38 36 33 33 36 37 37 35 41 41 30 30 29
116 113 109 103 103 95 87 86 84 82 72 75 66 65 68 65 58 50 45 44 47 46 44 46 46 48 46 48 44 42 42 41 32 34 41 34 33 41 38 31 33 34 37
122 123 115 110 106 100 96 93 87 79 81 73 64 64 63 65 60 58 55 55 55 53 50 50 49 53 49 49 47 42 40 38 37 32 34 34 34 37 40 43 41 44 47
126 131 125 119 119 108 104 98 86 80 79 66 66 71 70 68 64 60 56 51 50 54 54 50 47 51 51 48 51 47 44 35 35 39 38 39 45 44 31 47 46 37 67
131 132 133 130 126 120 110 108 97 92 92 83 81 79 77 75 73 70 69 66 60 52 54 55 49 49 49 51 55 53 46 44 41 39 36 37 34 37 33 22 38 52 56
135 136 134 134 133 128 121 115 114 101 93 88 95 96 94 89 83 79 77 73 68 65 63 55 54 54 55 54 56 57 55 54 57 55 52 48 41 46 48 47 44 51 59
133 137 136 135 133 128 126 121 117 114 114 99 102 104 103 97 95 87 81 68 65 71 70 65 60 55 57 59 62 65 67 68 68 68 68 63 58 58 56 53 56 65 72
129 133 138 137 134 131 130 123 119 116 117 115 113 106 104 101 91 77 74 76 75 79 76 68 59 52 72 65 67 68 69 72 74 73 77 77 76 72 69 72 72 73 79
126 129 137 135 135 130 129 125 121 116 118 117 115 109 103 94 88 80 68 69 69 74 78 76 72 71 73 66 66 71 67 71 76 82 85 89 89 88 85 82 85 88 88

GFSGL_250_spd_072.txt.gz
Wind_Speed
30 30 25 28 30 29 27 28 25 22 21 18 17 16 13 11 9 10 10 10 11 11 10 11 11 12 12 13 14 14 15 16 17 19 18 18 18 18 18 18 19 19 18
29 29 27 26 28 29 31 30 29 25 24 24 23 22 19 19 16 13 12 11 11 12 13 12 11 11 11 12 13 14 15 15 15 14 14 15 15 15 16 15 14 14 15
29 29 28 25 27 26 28 29 31 29 27 28 26 27 26 23 20 18 15 14 12 13 14 14 12 10 10 11 12 12 13 14 14 14 13 13 14 14 14 14 14 13 13
31 32 31 29 27 26 24 25 26 27 28 29 28 28 27 25 20 17 17 16 14 15 15 15 13 12 11 10 11 13 13 13 13 14 14 15 14 15 16 18 16 17 18
38 37 36 33 30 25 22 24 25 25 24 25 25 26 24 23 21 18 17 17 16 15 15 15 14 13 12 11 11 12 13 13 14 13 14 15 14 14 16 18 19 18 18
54 42 40 38 34 30 27 24 23 22 22 22 22 21 21 21 19 18 20 20 19 18 16 15 14 13 13 13 14 13 13 12 13 13 12 13 14 14 17 18 18 15 16
56 52 46 43 39 35 32 28 27 25 20 20 19 17 18 18 17 18 18 18 18 17 15 15 15 13 13 13 15 13 14 13 12 12 11 14 15 17 17 16 14 14 15
63 59 51 48 45 39 37 33 32 29 26 21 19 18 15 16 15 16 17 19 20 20 18 16 17 16 15 14 16 14 15 14 14 17 17 18 16 19 21 19 18 15 14
70 66 60 54 51 47 46 45 39 33 29 27 22 19 18 16 13 13 12 15 14 14 15 16 16 15 12 15 15 14 15 13 14 16 17 17 18 18 19 18 15 13 12
71 72 67 61 57 53 50 50 43 39 34 29 26 25 24 21 18 16 14 14 13 10 10 12 14 14 13 14 14 13 12 11 16 16 15 16 18 19 18 16 9 7 11
75 70 70 67 60 57 56 57 47 41 41 37 32 30 30 26 22 19 17 17 13 9 10 10 9 10 10 12 16 12 8 11 17 16 15 14 16 19 18 17 12 8 1
78 76 75 76 69 63 61 58 59 53 49 45 41 38 36 34 29 25 22 22 19 15 13 10 10 10 11 13 17 14 12 11 14 17 18 17 16 19 21 22 19 13 8
85 79 74 73 75 71 67 64 64 61 52 48 50 44 43 38 37 32 27 24 22 21 18 15 12 12 15 18 19 18 16 16 16 17 19 19 19 21 24 23 22 16 16
91 86 80 75 75 76 73 70 64 61 58 52 48 50 48 43 44 39 34 28 24 25 24 17 17 20 22 23 21 20 20 20 20 21 21 23 25 26 27 25 22 17 19
98 94 87 83 85 81 79 76 68 62 61 59 52 53 49 44 49 44 40 35 30 27 26 28 27 26 24 25 27 23 20 22 23 23 24 27 27 26 27 28 34 26 22
103 100 94 91 93 88 87 84 72 70 60 58 53 53 51 51 50 51 50 43 35 33 32 33 33 31 30 27 27 26 26 25 27 28 26 22 21 24 26 28 29 31 33
106 103 101 101 99 96 94 90 80 76 70 66 61 57 56 55 56 54 50 47 42 40 37 36 37 36 33 30 29 28 29 30 28 29 29 25 22 26 30 30 33 32 33
115 108 107 106 105 103 100 95 91 84 80 74 73 67 63 60 59 58 58 54 49 46 43 42 42 40 34 34 34 34 33 31 31 30 30 29 26 28 32 27 26 33 37
121 116 113 111 111 105 105 103 96 94 87 83 81 78 72 66 66 58 55 51 52 50 48 49 46 47 42 39 41 37 38 37 34 33 34 31 33 33 31 30 30 28 32
124 123 120 117 112 109 110 109 99 97 95 89 86 84 81 75 73 70 66 63 61 58 57 56 55 48 48 42 42 45 45 41 38 37 37 36 38 42 36 32 34 39 37
127 129 126 121 118 112 112 112 109 97 97 95 93 87 84 85 82 78 72 65 67 69 64 62 59 48 45 40 43 40 44 42 43 42 40 41 39 39 36 31 34 36 28
129 132 132 128 124 120 117 115 115 110 99 98 96 92 90 89 86 84 79 78 73 69 67 65 62 51 46 43 39 42 42 43 45 47 46 46 40 40 42 41 39 35 39
127 132 134 133 130 126 122 122 116 115 112 105 99 94 95 93 91 89 83 83 79 79 71 70 67 62 53 54 52 49 49 50 52 54 55 54 54 55 53 55 56 54 46
124 128 133 136 135 131 129 123 124 118 116 112 108 102 102 100 95 93 89 87 81 79 73 75 69 67 63 63 61 56 57 53 58 62 64 63 68 65 64 62 63 67 68
120 123 130 135 138 136 133 128 129 122 120 118 111 108 108 104 101 99 92 88 84 83 79 78 81 80 82 76 74 72 67 65 67 67 66 62 61 66 71 73 73 72 70
112 117 124 131 136 138 137 134 133 128 124 121 118 114 108 111 108 103 100 93 89 87 86 88 90 87 88 81 81 77 75 80 77 71 72 72 73 72 76 78 79 79 81

GFSGL_250_spd_075.txt.gz
Wind_Speed
18 17 23 23 27 25 25 23 22 20 18 16 12 11 9 10 10 11 10 9 9 9 10 12 12 11 11 11 12 13 14 14 13 13 13 12 13 13 12 13 14 14 14
28 25 20 22 24 28 28 26 25 23 21 20 19 16 16 15 14 14 12 11 9 10 9 9 11 11 10 11 11 12 13 14 14 13 13 13 12 12 11 10 10 11 11
34 33 25 24 24 23 27 29 28 26 24 22 22 23 20 19 19 16 14 12 11 11 12 10 9 9 9 9 9 12 12 12 13 13 14 14 14 15 14 12 11 9 10
43 37 32 29 28 26 25 29 29 29 28 25 24 25 24 21 19 17 12 12 11 11 11 12 10 8 9 8 9 10 11 11 10 11 12 12 12 13 15 15 14 12 11
50 46 40 34 30 30 26 26 28 28 29 27 25 24 24 22 18 15 14 13 13 15 15 14 12 10 9 8 8 10 10 12 12 10 9 10 11 12 14 12 11 9 9
52 51 47 40 37 35 33 29 26 26 25 26 25 22 22 21 17 15 14 13 14 14 15 15 14 12 11 10 10 9 10 11 11 10 9 11 15 12 13 11 11 13 14
55 56 53 47 40 40 38 33 32 27 23 22 22 22 21 19 16 13 13 15 15 14 13 14 15 15 13 12 11 10 8 9 11 7 8 10 12 14 13 11 9 10 10
58 59 59 56 52 44 41 41 37 33 28 25 22 22 21 20 17 15 16 16 18 15 13 13 15 16 15 14 14 8 8 5 8 7 6 8 10 13 13 10 5 7 9
65 62 61 61 59 55 51 45 42 37 33 30 26 25 24 24 21 19 18 18 17 12 10 8 9 12 13 13 12 9 6 4 7 6 6 7 9 11 8 6 5 6 7
69 67 64 61 63 61 56 50 47 43 37 36 32 31 29 28 24 23 21 19 18 12 10 8 7 5 7 11 10 8 5 5 10 7 4 5 7 9 7 3 4 3 6
77 74 71 67 65 66 63 59 52 50 44 42 39 36 34 33 27 25 24 23 19 11 13 11 8 7 8 10 10 9 3 8 10 9 7 5 6 9 10 8 8 10 12
84 82 78 74 71 69 69 68 61 55 52 49 44 41 40 37 33 27 26 26 23 19 18 15 13 11 11 12 15 11 9 11 11 11 11 8 8 10 12 12 14 13 18
90 89 86 83 78 74 74 76 69 62 60 57 52 47 45 44 38 32 29 28 27 25 22 18 18 17 17 20 21 14 11 12 12 15 16 15 16 16 17 19 20 17 17
96 94 93 90 86 80 74 76 77 72 68 60 57 59 54 49 45 41 36 32 30 31 30 24 23 26 28 26 21 18 15 15 15 17 16 17 19 21 21 17 16 18 20
104 100 97 96 93 87 83 78 76 78 77 68 62 62 64 56 55 48 44 38 36 36 36 34 31 28 28 28 27 25 21 19 20 20 21 20 19 20 17 16 18 22 25
111 108 104 101 98 94 89 87 83 79 77 79 71 69 67 64 55 51 48 47 42 43 44 46 38 33 32 31 30 28 27 25 23 24 26 25 22 20 20 20 23 27 29
116 114 112 107 103 99 96 92 90 85 79 83 82 74 73 69 64 58 53 49 48 47 51 55 48 43 40 37 34 32 30 29 27 29 29 27 27 24 23 26 21 27 33
122 119 116 113 108 106 101 96 94 91 86 83 87 80 75 69 65 64 59 55 52 53 56 59 55 52 46 44 40 37 36 34 32 30 31 31 29 29 29 27 31 35 37
125 123 121 118 114 110 107 101 97 97 93 88 88 85 78 73 67 64 64 57 55 58 59 59 59 56 50 49 49 46 44 40 37 36 37 37 33 32 32 33 33 35 39
128 125 127 123 121 116 113 108 101 98 97 94 90 92 85 81 72 69 67 64 62 65 66 63 64 61 61 57 54 50 48 49 43 37 34 34 36 36 37 37 37 39 41
129 127 127 128 126 123 118 113 107 104 101 101 98 94 92 86 84 78 77 77 68 65 68 64 64 64 58 56 59 56 53 51 43 40 33 34 35 35 40 39 39 39 40
126 126 126 126 130 128 125 121 115 111 104 100 103 101 97 93 91 88 86 84 83 80 78 73 68 70 69 64 64 66 62 60 57 45 41 41 40 44 46 46 45 40 42
117 122 124 126 128 130 130 128 122 117 112 107 106 107 103 100 95 96 94 92 93 90 87 85 80 77 75 76 72 69 64 63 62 53 48 49 51 47 47 49 51 48 48
109 111 119 121 124 127 131 132 129 123 118 114 110 107 107 107 103 100 100 101 98 97 93 88 86 81 82 81 79 75 71 71 70 69 64 55 50 49 53 57 55 56 58
105 105 107 115 119 123 126 131 132 130 125 121 118 113 112 107 109 109 107 105 103 100 101 99 94 89 85 86 84 80 79 77 77 79 81 71 66 62 57 63 67 70 69
96 97 98 100 111 117 121 126 131 132 128 126 122 120 118 114 110 111 113 112 107 104 102 101 99 96 94 91 86 87 85 82 81 81 82 83 83 78 76 73 73 73 76

GFSGL_250_spd_078.txt.gz
Wind_Speed
29 22 15 15 16 19 22 22 21 15 13 13 12 9 7 7 8 10 9 8 6 7 7 8 8 8 8 9 9 10 11 11 11 12 13 14 14 15 15 14 14 13 13
35 33 23 20 20 20 21 25 24 20 18 17 15 13 11 11 11 11 13 10 7 6 6 7 8 7 6 5 6 8 8 9 10 11 11 12 13 14 13 14 13 12 11
44 40 39 34 26 25 23 21 25 25 22 21 19 17 15 14 15 16 14 13 10 8 6 5 5 7 7 6 6 6 8 9 9 9 10 11 12 13 14 13 11 9 9
48 47 43 39 37 29 27 26 24 26 27 26 24 22 20 18 18 18 16 14 12 10 8 8 7 5 5 7 7 7 8 8 8 8 8 9 13 12 13 12 11 11 13
55 53 50 44 40 36 32 29 26 25 26 28 28 28 26 24 21 20 18 17 15 14 12 11 10 7 6 5 7 7 7 7 7 6 6 8 12 10 12 11 13 16 16
55 56 54 50 46 41 38 33 30 27 26 25 26 28 28 27 24 22 20 19 17 15 15 14 12 10 9 7 7 7 7 7 5 4 3 7 8 8 9 10 9 10 15
52 53 55 56 53 49 44 37 36 33 28 28 28 28 28 23 22 21 19 19 19 18 17 15 14 12 12 8 9 9 8 8 7 2 1 3 5 8 6 6 5 8 9
56 52 52 54 54 54 51 46 41 36 35 30 29 27 27 26 23 21 19 18 19 18 17 16 17 14 12 10 11 11 10 9 8 5 4 1 3 5 4 4 4 8 11
64 59 56 54 56 57 56 53 45 39 40 37 33 30 29 28 26 24 22 22 22 19 15 15 15 14 11 11 11 10 12 9 11 8 6 6 3 1 2 5 6 7 8
72 67 63 61 60 55 54 57 55 48 41 42 40 37 33 31 29 27 25 24 24 19 16 15 15 13 12 13 12 11 11 11 14 8 8 9 6 5 5 8 11 11 11
80 76 73 69 66 61 51 59 61 56 53 47 45 44 40 37 32 30 27 27 27 19 17 19 17 16 17 16 15 14 11 16 13 7 7 6 7 8 8 10 12 17 18
86 84 81 78 75 71 68 67 61 63 60 56 52 50 47 41 37 32 30 31 29 26 21 21 20 19 19 20 20 16 15 18 11 6 6 6 7 10 11 12 13 14 17
91 88 86 85 82 79 76 74 68 63 66 64 59 55 53 47 40 38 34 31 30 29 25 24 22 23 24 25 26 18 15 17 15 15 14 13 13 16 17 17 17 12 10
97 95 92 90 88 85 84 80 77 72 67 68 67 62 57 55 51 43 40 37 35 32 31 25 26 27 31 30 29 25 20 20 21 22 20 19 20 20 18 14 15 12 16
106 103 99 97 93 92 89 87 84 81 76 72 71 69 65 59 56 48 45 46 42 40 37 35 32 31 33 34 32 31 28 25 25 24 25 24 23 22 22 19 18 17 19
115 113 109 105 102 98 95 92 90 88 83 79 76 77 74 69 63 59 55 49 49 47 45 47 45 40 37 34 35 33 32 31 30 29 27 27 26 23 24 23 22 23 24
124 123 120 116 110 106 102 99 96 93 90 87 83 82 82 78 72 67 62 59 56 57 54 54 50 48 47 41 39 39 38 37 36 36 35 30 28 26 24 23 26 26 25
131 130 127 124 121 115 110 105 102 99 96 93 90 89 83 83 80 75 71 65 63 64 60 60 59 55 52 48 45 47 44 43 42 42 40 37 34 32 31 27 24 25 26
132 133 133 130 127 123 118 114 109 106 102 99 95 94 91 85 82 82 80 75 69 64 68 65 63 65 59 55 54 54 52 52 49 49 45 42 38 38 39 40 36 35 34
133 135 131 135 134 129 126 121 117 113 109 105 101 99 96 93 90 83 81 85 79 71 66 70 68 68 66 59 59 59 58 57 56 54 52 50 47 45 45 42 38 39 40
117 124 132 134 131 132 131 128 125 119 115 112 107 105 100 98 96 94 89 86 85 85 73 70 70 73 70 65 64 64 60 62 61 63 62 57 52 49 46 41 41 41 43
108 113 115 123 130 133 131 132 130 126 122 118 114 110 107 102 100 100 96 90 86 87 85 82 73 74 72 72 71 68 68 65 65 65 63 63 60 52 47 49 47 45 47
95 102 107 111 118 126 129 130 132 130 128 124 121 116 112 107 104 104 100 97 94 88 89 87 84 76 78 74 71 68 70 68 66 68 66 65 62 57 55 56 57 55 54
82 91 98 103 109 113 123 128 130 132 132 130 126 122 117 113 109 108 105 102 98 95 89 90 89 86 83 81 80 76 72 73 73 71 71 70 72 73 71 66 63 61 62
73 79 87 94 97 102 109 118 128 130 133 134 132 127 123 120 117 112 107 107 102 100 95 95 96 95 91 92 89 86 84 86 81 76 78 78 75 75 75 73 71 71 71
68 73 79 85 88 89 97 105 114 127 131 132 134 132 128 124 121 117 113 109 106 104 103 100 102 103 101 100 99 98 98 95 95 92 89 86 79 78 80 79 77 74 74

GFSGL_250_spd_081.txt.gz
Wind_Speed
33 29 27 20 18 16 13 13 14 15 14 10 8 5 5 4 7 6 10 10 10 9 10 9 10 10 9 10 10 11 11 11 11 12 14 14 14 13 12 13 13 12 12
39 37 32 30 24 20 18 15 16 17 20 18 14 11 10 10 10 9 11 9 9 7 6 8 6 7 9 9 9 10 10 10 11 12 12 13 13 14 15 15 14 13 12
43 39 39 36 34 28 22 22 17 19 20 24 22 17 15 14 13 13 13 13 9 8 7 7 7 7 4 5 6 8 10 11 11 11 10 11 12 13 14 16 18 16 16
46 44 43 42 39 36 36 31 25 23 22 22 26 24 22 19 18 17 16 15 14 12 11 10 9 7 8 6 6 5 6 8 9 9 8 8 11 10 11 10 14 14 14
54 50 47 44 43 40 40 36 32 27 26 25 24 27 25 24 23 22 21 19 19 18 16 15 13 10 9 8 8 7 7 7 7 6 6 6 9 8 9 9 8 10 13
41 46 51 50 50 48 44 41 34 34 31 28 26 25 28 25 23 23 23 23 22 21 20 19 16 13 12 10 9 9 8 8 7 7 7 6 5 5 6 8 8 11 14
59 52 50 51 54 55 51 47 44 38 36 33 30 26 28 28 25 24 23 24 23 22 22 19 17 14 12 11 11 12 11 10 8 7 7 4 2 2 3 5 9 9 10
61 55 50 46 49 53 56 55 51 45 40 38 34 31 29 30 28 27 24 23 23 23 22 20 19 16 15 14 13 14 13 12 11 9 9 7 5 5 7 7 10 11 9
67 63 58 54 50 47 50 55 56 52 49 46 40 36 34 31 28 27 26 25 25 25 23 21 19 18 16 15 17 16 15 12 13 11 12 12 11 11 12 10 9 10 9
75 71 67 63 60 56 53 52 49 54 52 51 48 43 39 36 30 29 26 27 28 28 24 22 21 20 17 17 20 20 19 14 17 12 12 12 12 11 15 15 13 12 13
82 78 74 72 68 65 62 58 56 54 53 51 50 45 41 40 36 31 29 29 32 29 26 24 24 22 20 21 21 22 17 15 16 12 10 11 12 14 15 17 19 17 17
86 84 81 78 75 73 70 68 63 59 54 54 56 53 44 42 41 38 33 32 33 32 30 25 26 24 23 25 24 22 17 18 14 11 11 12 12 12 12 14 18 20 21
89 88 86 84 81 79 77 75 72 67 62 60 58 56 54 48 45 43 40 37 35 33 32 28 24 27 27 29 28 24 17 21 19 15 15 16 16 17 17 15 15 14 15
96 93 91 89 86 84 83 82 79 75 72 68 62 60 63 58 51 50 47 42 40 40 39 36 30 28 33 33 33 30 21 20 23 23 22 21 21 21 21 19 19 17 16
102 100 98 96 93 89 87 86 84 83 80 77 75 68 66 64 67 59 51 47 49 44 40 41 42 37 36 36 34 33 33 26 26 26 26 25 27 26 26 26 25 22 23
111 108 106 103 100 97 95 93 90 88 86 84 83 79 76 73 69 72 65 55 52 50 39 45 57 52 45 40 37 35 34 34 30 28 28 27 26 27 29 30 29 28 27
120 119 116 113 110 106 103 100 98 95 93 90 88 86 83 81 77 74 75 70 64 59 56 57 60 55 55 50 45 41 38 36 37 34 32 31 29 27 28 29 30 31 31
131 129 127 124 121 117 113 109 106 102 99 97 95 91 90 89 84 81 78 78 77 70 67 62 58 54 57 53 52 52 47 44 43 43 40 38 38 36 31 30 32 34 33
136 138 136 134 132 128 125 122 117 113 110 106 102 98 97 94 92 89 84 83 83 82 77 72 65 62 66 61 58 59 56 53 49 47 48 48 45 43 39 37 37 38 38
135 135 136 138 138 138 136 131 129 124 119 115 111 108 105 100 99 97 93 91 89 89 88 81 78 77 71 68 66 63 59 59 60 57 55 53 52 51 49 47 46 46 46
122 126 130 133 135 137 139 140 137 132 130 126 121 119 116 109 105 103 101 99 96 94 95 88 85 83 78 78 74 69 67 63 62 64 64 62 58 56 54 54 53 52 53
110 115 120 123 127 131 136 137 138 138 135 132 129 126 123 119 114 110 108 105 102 99 96 92 91 92 89 84 80 76 72 69 69 67 70 70 67 62 57 56 58 58 58
101 104 109 115 119 121 124 126 130 133 135 134 133 133 131 126 121 120 116 112 108 104 102 100 95 92 96 93 87 85 80 74 73 72 72 72 72 69 68 64 62 60 60
90 92 96 103 106 107 112 115 117 121 127 131 135 133 134 134 127 123 121 119 115 111 107 106 101 99 95 95 96 92 91 86 80 79 77 78 80 77 75 68 67 62 60
76 77 85 90 95 98 99 101 105 110 114 119 127 131 133 135 134 130 126 125 122 118 113 109 106 104 103 102 94 97 97 96 93 87 75 75 77 81 79 72 70 67 67
68 69 72 74 81 87 92 95 95 96 101 108 116 123 129 133 135 134 131 128 126 122 119 115 111 107 108 106 104 99 97 97 98 100 96 88 84 84 82 79 79 77 74

GFSGL_250_spd_084.txt.gz
Wind_Speed
27 28 26 27 24 23 20 17 11 6 8 11 10 10 9 9 5 3 7 10 9 8 6 9 10 9 10 12 13 15 15 15 15 15 15 14 15 14 14 15 13 11 11
33 31 30 31 31 27 25 20 18 16 8 15 16 16 16 17 11 8 8 6 8 9 7 6 7 9 8 7 9 11 11 13 12 11 12 12 13 13 15 13 12 11 12
29 32 36 34 34 32 29 27 23 21 20 17 19 22 24 21 16 14 15 13 11 9 9 9 7 8 9 10 10 9 11 12 12 12 10 10 8 10 10 11 13 13 13
33 44 42 33 36 37 34 33 32 29 28 26 23 21 23 23 23 22 20 18 16 15 14 13 12 11 9 9 10 10 9 11 11 12 11 10 10 8 6 6 9 11 12
37 45 41 36 42 38 36 36 36 35 31 30 29 25 23 25 26 25 24 23 21 19 17 16 14 13 12 10 10 10 11 12 12 12 12 10 10 9 8 10 13 15 16
45 46 39 44 45 41 39 41 42 40 36 33 31 30 28 27 27 25 24 22 22 23 20 17 15 13 12 10 10 9 9 11 12 12 12 10 7 7 9 11 16 20 21
52 52 50 48 40 34 39 42 48 45 41 38 34 32 31 30 27 26 26 24 22 23 23 22 19 16 13 10 11 11 11 11 12 10 10 8 7 5 7 12 18 16 15
62 65 59 52 47 47 41 40 44 49 47 41 38 37 35 34 30 27 27 27 26 26 24 22 21 19 16 14 14 14 14 12 13 12 9 8 5 1 3 8 10 13 14
74 69 67 61 55 59 52 48 47 45 47 48 48 43 40 38 34 31 26 28 29 29 26 23 22 20 17 15 18 16 17 14 15 15 13 12 10 8 8 13 11 6 7
81 73 74 69 66 66 62 55 52 48 46 44 49 49 48 46 42 35 32 28 30 29 26 25 22 21 16 16 20 19 18 12 18 14 12 14 16 16 17 14 15 10 14
81 83 82 77 77 74 68 65 61 55 51 46 49 49 51 49 47 44 36 35 32 30 26 25 23 21 20 18 21 23 15 11 19 17 11 15 18 19 21 22 21 18 19
89 87 90 91 86 82 76 73 70 65 60 56 55 54 50 50 48 46 42 40 38 33 32 26 24 23 23 22 23 24 20 13 18 16 12 14 19 19 20 22 23 25 26
97 95 94 93 90 87 85 81 78 74 70 66 61 60 58 55 53 51 45 43 40 36 35 34 31 28 26 28 28 26 20 15 16 16 14 16 16 17 17 17 16 18 19
100 100 100 99 96 93 90 88 85 81 78 75 72 67 63 63 60 57 57 50 46 39 36 39 40 34 31 30 32 30 27 20 17 21 21 19 21 22 22 19 20 18 23
104 103 102 100 98 96 93 91 89 88 84 81 79 76 73 69 67 64 61 61 58 50 43 40 40 40 42 41 36 35 32 29 24 24 25 25 25 25 24 23 24 23 24
111 110 108 106 103 100 98 95 93 92 89 86 85 82 80 79 74 72 69 65 66 62 53 48 46 45 45 44 38 36 34 32 32 27 27 27 27 28 30 27 27 27 25
118 117 115 114 111 109 106 103 100 98 96 93 90 87 85 84 83 80 77 73 70 68 66 57 54 54 50 46 40 37 35 33 38 38 37 33 32 30 31 31 28 28 27
127 126 124 122 119 116 113 111 109 107 104 102 99 96 93 92 91 88 84 80 80 74 73 69 64 63 59 56 50 41 43 45 42 41 46 46 41 38 37 36 36 31 31
135 135 133 131 128 126 123 120 118 115 111 109 107 104 102 100 97 95 91 88 85 85 81 76 75 72 68 66 58 58 54 52 49 38 49 53 52 46 48 45 41 40 37
140 140 140 138 136 134 132 131 129 126 122 119 116 114 112 108 103 101 99 96 93 90 91 87 82 83 80 75 71 67 64 63 62 65 50 51 54 53 54 55 52 49 49
136 138 139 139 139 139 140 140 138 134 131 128 125 124 123 118 113 111 108 106 102 99 96 95 90 85 88 90 83 76 76 73 69 68 71 62 59 55 53 56 58 59 60
127 130 133 134 136 137 138 138 138 137 136 134 134 133 133 128 123 121 117 114 111 106 103 98 94 94 92 93 93 87 82 79 77 75 73 72 70 70 60 53 56 59 63
116 119 122 124 127 129 131 133 135 138 139 139 138 135 134 131 131 131 126 124 121 114 111 106 104 103 100 96 96 97 94 89 87 86 81 76 76 75 67 60 64 67 68
104 108 111 113 115 117 120 121 121 122 123 125 130 134 136 135 132 130 131 131 129 126 122 117 112 108 104 103 102 101 101 102 100 99 93 87 86 83 80 76 70 73 70
93 94 94 96 99 103 104 105 109 111 112 113 115 118 122 125 128 130 132 132 133 133 131 126 122 118 114 110 107 107 107 105 107 106 106 102 96 95 92 90 87 80 80
83 83 83 82 83 89 89 90 94 96 98 98 100 105 109 112 114 119 125 128 130 133 136 133 130 128 124 119 115 111 110 112 110 110 108 107 106 104 101 99 97 95 89

GFSGL_250_spd_087.txt.gz
Wind_Speed
25 23 25 22 19 17 14 16 15 16 15 14 13 15 15 19 17 15 13 16 15 13 13 13 11 12 11 13 13 14 14 13 13 13 11 12 12 12 10 9 8 8 11
28 27 25 28 27 21 19 19 18 15 14 13 17 20 20 22 20 18 22 20 20 17 15 13 13 13 14 13 13 14 14 15 14 10 9 9 9 11 10 10 10 11 14
26 30 30 30 30 28 21 22 23 23 22 19 19 21 22 23 22 22 22 23 23 20 18 17 14 13 13 13 13 14 14 16 16 15 11 10 6 8 8 9 9 12 16
27 28 27 23 25 39 34 26 28 28 28 27 25 24 25 23 23 22 22 21 22 21 19 18 17 15 13 12 11 12 12 14 13 14 13 10 11 10 6 4 7 13 18
35 35 30 22 20 23 30 32 30 34 32 32 31 29 26 25 23 24 25 24 21 19 19 17 15 13 14 13 11 10 11 12 12 11 10 10 9 8 8 8 10 19 20
45 38 30 24 28 25 36 37 35 33 35 35 36 35 32 27 23 24 27 27 25 22 20 19 16 14 14 11 12 11 11 13 12 10 9 6 6 5 5 12 14 22 21
50 44 44 39 45 39 37 31 32 30 32 36 37 38 37 31 28 25 25 27 26 25 23 21 19 16 14 12 13 13 13 14 15 10 9 3 3 4 3 9 14 16 16
60 49 52 47 53 63 52 43 34 34 33 37 38 40 39 40 33 28 28 30 30 28 26 25 23 21 17 13 15 16 15 15 16 14 11 7 1 3 6 8 14 17 18
68 64 65 64 63 65 60 59 55 47 47 47 49 42 44 45 42 39 33 31 32 31 29 27 26 23 19 17 17 16 19 16 16 17 12 8 7 8 13 15 12 16 21
77 76 65 63 69 65 67 60 59 55 58 57 55 50 48 49 45 41 40 38 35 33 29 27 26 24 18 18 20 19 20 13 18 17 14 12 15 16 16 15 15 15 14
79 85 85 81 73 67 71 72 68 65 70 69 65 54 50 46 44 39 44 44 42 40 36 32 28 26 22 21 21 22 17 11 18 18 16 20 23 22 22 20 22 20 13
84 86 89 87 76 74 69 69 74 71 72 73 74 68 54 51 50 49 48 45 42 42 42 38 32 31 28 24 23 25 22 16 17 19 17 20 21 25 29 28 27 26 29
90 89 95 93 90 89 87 87 87 86 83 83 84 80 70 61 57 55 54 50 45 47 44 43 36 37 33 32 28 26 26 22 19 18 18 19 18 20 24 28 31 32 33
98 97 97 97 98 98 95 94 92 91 93 88 88 87 86 77 70 65 62 60 54 49 47 44 43 41 42 40 35 31 30 29 26 24 20 21 21 21 21 20 22 22 25
107 106 105 105 103 102 101 100 99 97 93 94 95 96 95 88 78 72 69 66 64 57 53 54 52 50 48 46 42 38 35 33 33 30 25 26 26 27 30 25 25 24 26
110 110 111 112 112 111 110 109 107 106 103 101 99 98 98 92 88 83 80 75 70 68 64 62 62 57 56 54 50 48 44 38 37 34 33 31 31 30 29 25 25 27 29
118 116 116 115 115 115 115 114 113 112 111 108 106 104 102 100 96 90 85 81 76 72 72 71 66 67 64 60 57 54 52 47 42 41 37 35 34 31 31 30 29 31 36
123 123 123 123 121 120 120 118 116 115 113 111 109 107 105 102 99 97 92 87 84 80 77 76 76 73 73 70 64 61 57 53 49 44 42 44 40 34 34 31 35 34 37
129 129 128 128 127 127 126 125 123 122 120 119 117 114 112 108 105 102 100 96 92 89 85 82 81 82 80 78 75 67 65 62 58 52 51 48 42 32 34 39 46 43 44
134 134 134 134 134 133 133 132 130 129 127 125 124 123 120 115 113 111 108 105 102 98 94 91 87 85 87 83 77 78 74 70 67 61 60 57 55 48 47 50 48 46 49
134 136 138 139 139 139 140 139 138 137 135 134 132 131 130 126 123 120 117 114 110 108 105 100 95 91 87 87 88 85 84 81 77 74 70 65 62 53 54 50 50 55 55
131 133 135 136 137 139 140 141 143 142 140 139 138 138 137 135 133 131 128 125 121 118 114 109 104 100 97 95 95 94 90 89 87 84 82 80 75 65 61 62 61 60 49
121 124 127 130 133 135 136 137 138 139 140 140 139 140 141 140 138 136 135 134 131 128 126 120 114 109 106 103 101 100 96 95 97 96 94 92 89 82 74 71 67 62 71
115 117 118 120 121 122 124 126 128 130 133 136 137 137 137 137 135 132 133 134 132 132 132 129 124 120 116 112 109 105 104 100 102 103 103 101 100 95 88 85 86 83 81
103 106 108 111 112 114 115 115 114 114 116 118 119 121 124 124 125 125 126 126 126 128 130 129 128 125 125 123 119 114 111 108 106 108 109 109 107 105 104 102 95 89 89
94 96 97 98 99 100 99 96 94 96 102 106 103 103 105 107 107 107 110 114 116 118 121 123 124 125 127 127 126 125 121 117 114 113 112 113 113 115 114 112 109 104 99

GFSGL_250_spd_090.txt.gz
Wind_Speed
22 22 20 20 19 16 15 13 12 7 11 13 15 16 17 17 18 19 18 20 21 21 19 21 19 17 16 16 16 17 19 18 14 12 13 13 14 13 12 12 10 12 13
17 22 19 21 21 22 21 18 18 15 10 9 12 15 19 20 20 21 20 19 20 18 20 20 19 17 16 15 15 14 14 15 14 10 12 11 11 12 12 11 9 12 15
18 23 22 24 24 24 26 28 27 17 17 18 19 20 20 20 20 23 23 22 22 20 18 18 17 17 16 15 15 14 14 13 13 12 8 11 9 10 10 7 11 13 18
32 26 24 25 23 19 19 16 21 30 21 22 23 23 22 21 20 20 21 23 25 22 19 18 17 17 16 16 13 15 14 13 13 12 10 8 9 8 7 9 8 15 20
37 37 31 30 24 20 17 17 15 17 28 30 28 27 24 24 25 23 20 19 22 23 22 19 16 17 17 17 16 14 14 14 13 13 11 9 9 7 5 5 12 20 24
45 40 34 28 33 34 26 23 21 22 23 31 26 26 25 23 24 25 24 23 21 21 23 22 19 16 17 16 16 14 13 14 11 11 10 8 6 3 2 7 15 20 24
42 42 43 42 37 39 38 40 28 25 37 29 26 26 30 28 26 27 26 27 25 24 23 23 22 21 20 17 18 18 17 15 13 9 6 4 3 2 6 10 15 20 20
55 53 45 49 43 35 36 42 40 41 38 37 36 31 34 34 34 33 31 29 30 30 26 24 24 23 22 21 21 19 18 18 16 12 6 8 5 12 7 15 16 18 20
63 58 56 54 51 42 48 49 48 46 49 48 43 34 39 39 35 39 38 37 36 38 34 29 24 23 24 23 25 23 22 18 18 20 10 10 13 13 12 18 21 21 22
76 73 65 63 59 53 59 60 59 60 60 59 65 60 53 45 42 39 42 43 46 42 40 35 29 26 24 25 26 25 25 19 19 21 16 12 17 15 18 12 23 23 22
83 84 84 83 81 74 65 69 71 70 70 65 68 71 70 64 54 45 49 49 48 44 37 38 38 35 30 26 26 28 28 23 23 23 21 20 18 24 24 23 20 24 24
97 92 90 90 91 90 90 82 69 67 76 82 75 75 66 64 61 64 55 59 57 51 43 41 38 36 39 34 31 30 31 33 25 22 24 24 22 22 28 27 27 25 24
103 100 98 97 97 96 93 89 85 82 82 75 78 79 81 76 75 73 71 67 63 61 56 48 47 44 42 39 37 35 35 37 35 31 29 28 25 29 33 37 34 34 29
101 101 100 98 97 97 96 94 91 94 93 84 78 77 84 87 79 76 75 73 75 73 68 65 54 50 47 47 44 42 41 40 38 37 34 31 29 32 35 36 33 31 36
103 103 103 102 100 97 96 95 95 96 96 93 93 90 91 92 85 81 84 86 83 80 73 68 67 58 59 53 51 50 49 47 46 42 39 36 34 33 38 34 32 30 32
106 106 106 105 106 105 105 104 103 102 102 100 98 91 86 90 96 97 94 92 89 87 86 79 74 70 64 64 59 57 55 54 52 49 47 44 42 38 42 40 35 31 31
114 112 110 110 110 111 111 111 110 110 110 111 110 113 110 110 106 105 104 101 95 92 88 86 81 77 73 68 68 64 64 59 57 56 54 52 49 47 46 45 43 42 40
122 120 118 117 117 116 116 117 117 117 117 117 115 113 115 118 119 115 113 110 106 100 96 94 91 88 83 79 73 73 71 71 68 64 61 60 58 55 54 51 49 47 44
129 127 127 126 124 123 122 122 123 123 123 123 123 123 123 122 121 121 120 117 115 112 107 102 97 94 91 87 84 78 80 80 78 75 71 69 67 62 60 56 52 48 46
130 131 132 133 132 132 130 130 130 130 130 130 130 129 128 127 127 127 125 123 120 118 115 110 105 100 97 93 89 87 85 85 86 85 83 78 75 71 67 65 61 55 53
129 129 132 134 136 138 138 139 139 139 138 138 137 138 137 135 134 132 131 130 127 124 121 118 114 110 106 101 97 93 90 90 90 91 89 88 82 78 75 74 68 64 62
128 131 132 133 134 136 137 139 141 142 143 143 144 144 144 144 142 141 140 138 136 132 130 126 124 120 115 111 108 103 100 97 95 93 94 93 93 87 85 83 79 72 70
121 124 127 130 132 135 137 138 139 140 140 141 142 144 145 145 145 144 143 143 142 141 139 136 134 130 127 122 117 114 110 107 104 101 98 96 98 98 95 90 90 85 81
114 117 120 123 126 129 131 133 135 136 137 138 140 141 142 142 141 140 139 139 140 140 140 139 138 135 133 131 128 124 120 116 112 109 107 103 99 102 102 102 98 97 91
111 114 115 116 117 119 121 123 125 125 127 128 129 131 132 133 131 131 133 134 134 135 136 135 135 136 135 133 132 131 130 127 124 121 116 112 108 106 104 107 108 107 104
99 103 105 108 110 112 113 114 115 117 117 118 117 118 117 113 112 116 122 125 125 124 123 123 125 127 128 131 133 133 133 132 131 131 129 123 116 114 112 110 113 113 114

GFSGL_250_spd_093.txt.gz
Wind_Speed
11 11 7 15 16 13 10 14 15 15 12 10 12 14 17 20 20 20 22 22 22 22 23 22 22 22 18 19 18 16 17 18 16 16 16 16 16 16 16 14 15 15 17
14 10 9 9 11 15 21 21 20 19 15 11 11 12 17 19 19 18 19 22 21 22 22 22 21 21 20 17 16 16 14 14 14 15 15 16 13 14 12 11 12 14 17
22 19 19 16 17 12 16 18 17 17 13 18 14 12 17 19 19 19 17 17 20 21 22 20 20 19 21 20 17 16 14 13 13 13 14 14 12 12 9 10 12 14 18
32 31 28 24 22 23 20 21 16 15 16 14 26 25 23 23 19 20 17 15 16 17 18 19 18 19 19 20 19 17 15 12 10 10 11 12 9 9 6 8 15 19 23
35 35 32 30 31 30 28 27 19 15 11 12 13 12 20 18 18 17 18 17 17 17 17 18 18 19 20 19 19 19 17 15 11 8 7 6 4 5 3 7 14 20 22
38 36 36 37 39 36 32 29 28 23 19 14 10 16 16 20 20 18 17 20 19 19 19 19 21 21 21 22 20 21 19 18 12 8 5 5 1 5 8 15 16 20 20
51 47 41 46 45 40 36 36 37 32 30 29 21 23 30 21 22 24 24 26 25 23 25 22 21 21 23 24 23 22 21 20 18 12 7 3 6 3 8 13 12 16 21
57 55 49 51 51 42 38 42 42 42 37 39 40 36 32 27 29 24 26 30 34 36 36 31 29 26 23 24 24 22 22 18 17 15 10 7 8 14 15 14 17 18 20
67 63 55 56 55 46 45 49 48 48 48 42 41 40 43 46 37 32 30 31 42 41 33 32 34 33 27 25 26 25 23 18 19 20 12 11 14 13 20 21 25 24 23
73 74 67 66 61 62 56 56 55 55 48 46 46 49 47 43 45 43 47 42 39 38 37 29 40 37 32 30 30 29 27 23 21 21 21 16 16 18 19 28 24 33 27
85 79 83 71 72 64 60 57 50 54 53 53 53 55 58 55 52 56 53 48 47 47 49 41 35 45 43 35 35 31 32 31 28 27 26 25 20 22 26 25 31 28 34
92 92 86 85 79 71 68 68 64 62 63 64 65 67 63 64 65 61 57 52 58 57 56 56 52 56 55 44 39 38 35 33 34 32 31 29 27 24 26 33 34 33 29
97 99 93 94 91 87 79 78 73 77 64 61 66 70 76 74 73 68 72 76 76 70 68 62 60 57 60 58 50 45 43 40 37 38 36 36 34 32 30 31 37 42 38
104 105 100 99 97 98 94 90 91 88 88 89 88 89 91 90 91 93 89 88 89 87 78 72 69 71 69 70 65 56 55 50 46 43 43 44 43 39 38 33 33 35 41
107 112 111 109 107 104 102 102 102 99 99 100 99 100 100 97 93 94 91 82 78 79 76 78 78 77 78 76 74 66 59 56 52 50 49 49 50 48 45 41 37 37 39
110 112 114 117 118 116 115 112 110 113 114 112 110 109 107 106 105 105 100 96 96 95 89 80 84 81 82 82 83 79 68 63 60 56 55 54 54 55 53 50 44 43 42
117 115 113 114 115 116 117 118 121 121 121 121 121 119 115 113 112 111 107 104 102 100 97 92 94 97 91 90 85 84 78 68 67 64 61 60 61 61 60 58 54 50 48
125 123 122 120 119 119 118 118 117 116 116 115 114 113 112 112 111 110 108 106 103 103 104 103 98 91 91 93 94 90 88 85 75 70 70 68 66 67 66 64 63 60 57
129 130 129 128 127 127 126 125 124 123 122 121 120 119 118 117 116 115 114 113 111 110 108 101 99 102 105 104 104 104 100 95 91 85 78 73 74 73 73 73 70 69 65
130 130 132 133 133 133 133 132 132 131 130 127 126 125 125 125 124 123 123 123 122 122 120 120 119 117 115 114 116 118 116 111 103 97 91 87 83 80 80 80 79 77 74
129 130 130 132 134 135 136 136 137 138 137 136 135 134 133 132 132 131 131 130 129 129 129 129 128 127 125 123 122 120 119 116 112 105 98 93 90 87 85 86 87 86 83
122 125 128 131 133 134 135 137 138 139 140 141 141 142 142 142 141 141 140 139 139 138 137 136 135 134 134 132 130 127 124 122 119 115 110 104 98 95 92 90 92 93 93
109 112 115 119 124 129 133 134 136 137 138 139 141 142 144 145 146 146 147 147 147 147 146 145 144 143 142 142 141 139 137 133 130 126 121 116 112 105 101 97 96 96 99
103 104 106 109 111 115 120 124 129 132 135 136 137 139 141 143 144 145 146 147 147 147 147 147 147 147 148 147 146 144 142 140 139 137 135 130 126 120 114 109 106 102 100
103 104 104 106 108 110 112 114 117 119 123 126 129 131 134 137 139 141 142 144 143 144 143 143 145 145 144 144 144 142 140 138 137 137 137 136 134 131 127 123 118 113 110
101 104 105 106 106 108 109 110 111 112 113 116 118 120 122 124 126 127 130 131 133 131 129 130 132 133 134 135 136 136 137 137 137 137 136 135 135 134 134 132 127 124 119

GFSGL_250_spd_096.txt.gz
Wind_Speed
13 10 11 9 6 10 9 13 17 13 13 12 8 8 13 16 19 21 23 21 22 23 22 20 25 24 25 22 22 20 20 20 20 18 18 15 15 14 14 15 19 21 24
19 13 14 9 6 5 7 6 11 11 11 12 15 9 11 20 18 18 16 16 15 19 20 17 18 20 22 23 22 21 18 18 18 20 20 17 16 15 14 15 18 22 24
27 21 19 15 12 10 12 12 9 11 11 11 7 15 17 22 22 16 15 14 14 16 14 17 16 17 19 21 21 19 17 16 15 16 17 15 15 13 12 14 17 21 24
34 26 27 24 20 16 17 16 19 19 14 10 14 11 9 13 15 14 11 11 13 16 17 19 18 20 19 19 22 23 20 15 13 12 13 13 12 10 10 11 15 17 19
49 38 37 37 31 26 29 28 24 24 23 19 14 14 10 3 8 14 12 10 11 14 16 23 25 23 22 20 21 22 22 19 14 11 8 9 6 7 7 8 12 14 15
58 44 42 40 37 38 32 34 34 32 28 26 22 21 18 9 12 12 17 16 14 13 15 21 26 27 24 25 25 22 19 16 12 6 2 1 3 4 7 12 15 15 17
56 51 47 43 45 45 44 42 42 38 34 33 29 27 27 31 23 21 19 20 17 13 16 19 23 22 23 22 24 23 22 19 14 10 6 4 4 5 12 13 18 20 18
60 59 55 51 50 49 48 46 46 43 40 38 39 38 37 37 33 30 24 25 25 24 19 21 28 22 20 25 27 25 23 21 20 12 7 8 9 10 15 18 19 22 24
70 68 60 55 55 56 53 50 49 52 51 49 49 48 46 46 44 41 43 38 35 29 23 26 31 23 24 30 35 31 29 25 23 18 10 7 12 13 16 22 23 29 26
77 74 69 59 62 64 61 54 53 57 58 55 53 52 53 52 52 49 41 39 40 38 36 34 35 33 32 37 35 39 34 35 29 29 23 16 11 15 19 24 27 31 32
81 78 74 69 69 63 64 62 62 66 65 62 55 54 57 55 54 50 46 50 47 49 44 47 41 40 47 46 43 45 48 42 38 32 33 30 23 19 18 24 32 31 37
88 87 83 74 76 75 75 74 66 66 68 67 64 60 57 59 59 55 57 57 60 60 58 53 49 51 53 48 48 54 52 51 43 39 36 36 35 32 27 23 27 34 38
98 96 93 94 88 85 83 82 78 75 66 71 77 74 63 62 58 60 60 63 67 68 65 67 63 58 57 59 66 65 63 54 58 53 48 43 42 40 38 33 29 27 32
103 107 105 101 99 96 94 90 86 89 84 83 76 79 70 69 68 71 71 73 78 77 76 74 72 72 76 79 76 74 69 66 63 65 59 54 52 48 48 46 42 38 38
104 106 110 108 107 104 105 103 100 95 98 96 91 86 84 73 74 72 69 74 71 73 72 82 87 86 85 87 87 83 82 77 75 69 67 60 60 57 51 54 52 48 46
106 104 109 114 114 111 107 106 104 103 103 105 105 104 100 99 92 87 89 96 94 94 97 96 97 94 93 89 80 87 85 80 76 75 72 74 72 65 61 59 61 55 54
114 111 110 111 114 118 119 119 118 116 114 109 111 115 112 110 109 109 105 103 104 102 100 103 102 96 101 92 87 93 100 82 83 83 82 81 83 70 62 61 60 63 59
123 121 120 119 118 118 117 116 115 114 114 114 118 119 118 119 118 117 116 115 114 111 112 110 111 111 113 110 106 108 111 101 97 98 94 89 86 80 75 65 65 69 66
124 124 125 126 126 126 125 124 122 120 118 118 119 121 123 125 124 126 126 124 124 125 124 123 123 122 119 117 116 115 112 102 106 109 103 99 94 87 84 76 69 68 72
126 125 125 126 129 130 131 132 131 129 129 127 126 126 126 127 129 131 132 132 132 131 131 131 129 128 127 126 123 119 117 115 114 115 111 106 103 97 94 83 79 77 76
122 124 127 129 129 130 133 136 136 136 137 136 136 135 135 134 135 135 135 135 135 136 135 134 133 132 131 129 127 125 124 123 122 120 118 115 110 111 109 102 91 86 81
125 124 123 123 126 128 131 134 136 136 136 137 139 140 141 142 142 143 143 143 143 142 142 141 141 139 138 137 135 133 132 131 129 129 127 126 123 120 119 117 112 106 98
130 129 128 126 126 125 123 123 124 127 132 136 139 140 141 143 143 144 146 147 147 148 147 148 148 148 148 147 146 144 142 140 139 138 137 136 133 131 129 127 126 122 116
113 116 117 117 118 119 120 121 122 122 124 125 126 128 131 135 139 142 144 146 148 149 148 148 148 149 150 150 151 151 149 147 147 147 146 144 143 141 140 138 136 133 131
104 104 106 107 108 109 111 112 113 114 115 116 118 119 122 124 128 131 134 137 140 143 145 146 148 149 149 148 148 148 146 147 147 147 146 145 144 146 147 146 144 141 137
101 102 103 104 104 104 105 106 107 109 110 111 112 113 114 116 117 118 119 121 124 126 129 133 135 138 138 134 133 137 138 139 140 141 141 141 142 142 142 141 140 140 139

GFSGL_250_spd_099.txt.gz
Wind_Speed
17 14 12 8 5 3 4 4 7 8 11 10 8 7 14 20 18 18 19 19 18 21 24 24 26 28 28 24 21 22 22 23 24 21 22 21 19 18 19 20 23 27 26
25 20 17 14 10 7 7 5 4 1 5 8 6 4 6 12 19 17 14 16 17 19 18 18 23 28 26 30 26 22 22 21 21 20 21 19 19 18 18 18 20 20 21
32 28 26 20 18 14 13 12 9 8 7 9 9 6 1 1 8 15 11 14 12 14 17 20 21 22 24 24 24 23 21 20 20 18 16 14 14 16 16 16 16 15 17
37 37 33 29 25 22 20 18 13 15 15 15 12 9 7 6 8 4 9 10 12 12 12 13 18 23 24 26 25 22 18 16 14 11 9 9 11 12 14 16 16 16 21
26 40 42 35 32 30 27 25 21 21 23 20 22 18 15 11 10 6 3 6 5 8 10 11 15 19 18 19 25 22 22 17 10 9 6 3 5 7 10 14 13 14 18
43 41 47 43 36 39 38 35 33 28 28 28 29 24 24 21 20 14 9 8 8 8 8 9 10 12 19 13 19 22 18 19 18 10 4 2 5 6 8 13 15 15 16
50 55 56 56 46 51 47 44 44 40 37 31 33 34 29 29 29 29 22 20 20 20 19 17 19 21 18 11 17 22 22 23 20 17 9 6 7 10 12 15 15 19 17
61 64 62 62 55 52 59 56 52 47 44 40 38 40 37 34 34 36 35 36 36 33 26 29 28 28 21 20 21 22 25 23 22 22 18 14 10 13 14 17 21 22 21
68 69 67 67 65 56 60 60 56 54 50 46 47 44 44 40 41 43 44 45 44 44 37 39 31 34 28 26 24 22 28 31 28 27 23 22 18 16 20 20 24 26 27
72 71 71 73 73 65 63 64 64 61 57 54 52 52 51 50 49 48 49 51 53 51 48 43 40 31 32 34 27 31 35 33 33 32 31 29 26 24 21 21 23 29 37
77 69 66 69 67 68 66 69 70 61 64 60 60 60 58 56 54 58 58 57 57 57 54 51 45 44 40 41 42 39 39 40 40 40 36 36 36 35 31 29 28 26 31
88 82 79 73 70 71 71 70 75 73 71 63 64 67 65 65 68 66 64 61 58 60 60 60 52 51 49 48 49 47 49 49 43 42 45 43 45 48 49 37 36 33 30
100 100 93 84 84 83 81 76 74 74 75 67 64 68 70 71 73 69 66 64 60 62 62 60 53 53 55 59 61 57 55 53 50 51 56 55 51 55 57 55 45 45 42
106 106 106 99 94 92 90 88 86 84 81 81 81 79 74 69 73 63 62 67 64 65 62 65 64 64 63 63 64 63 62 59 59 59 63 63 61 62 62 60 57 55 51
107 108 107 108 106 103 99 97 100 98 94 92 90 88 85 88 86 78 79 68 75 69 69 68 70 68 70 71 72 70 70 71 72 71 71 77 75 73 72 68 62 60 56
106 104 105 108 110 109 109 105 102 107 106 102 100 99 99 98 100 98 92 85 86 87 79 80 78 82 79 78 82 80 80 78 77 77 85 86 82 80 83 75 79 73 68
111 110 109 108 105 104 103 103 103 107 112 110 111 110 108 109 108 109 108 105 103 97 98 96 98 93 85 90 90 89 88 89 92 90 93 91 91 92 82 76 78 88 83
117 116 115 114 113 112 110 109 108 108 109 114 118 119 118 119 120 118 117 115 113 113 114 109 112 109 111 110 110 109 103 101 94 93 93 94 87 87 87 88 90 93 98
121 121 121 121 121 120 119 118 118 117 115 115 115 116 116 120 123 126 124 125 123 121 120 120 121 120 120 122 121 118 117 119 117 114 108 106 101 102 98 99 97 102 106
119 121 121 121 123 123 124 123 123 124 125 125 124 124 123 123 123 123 125 128 128 128 128 129 128 128 128 127 127 127 130 130 129 127 126 125 120 117 114 113 114 114 112
120 119 120 123 123 124 126 127 127 126 128 130 130 132 132 133 132 132 132 132 132 132 131 130 130 130 128 128 128 130 132 133 134 134 134 136 134 133 132 131 130 128 124
119 119 119 120 120 120 120 122 123 125 129 131 133 134 135 136 137 138 139 140 140 140 140 141 140 139 138 138 138 138 137 137 137 137 137 138 138 138 138 137 135 131 128
123 122 122 121 121 120 120 120 119 122 122 125 128 130 133 135 137 139 140 141 142 143 144 145 146 147 147 148 147 147 147 147 147 146 145 144 142 142 142 142 141 138 136
130 131 132 132 132 130 129 129 129 127 127 126 125 126 125 125 126 129 131 135 140 143 145 147 148 149 150 151 151 151 152 152 152 152 153 150 150 152 152 151 149 147 147
111 111 111 113 113 113 114 115 117 117 118 118 118 118 117 116 116 117 120 124 127 129 132 134 136 139 142 146 148 150 152 154 154 153 151 149 149 150 152 152 151 150 147
103 104 105 105 105 106 107 107 107 109 110 110 111 111 111 110 110 110 111 111 112 113 114 117 120 123 126 128 131 133 135 135 136 131 127 129 133 135 135 133 133 134 136

GFSGL_250_spd_102.txt.gz
Wind_Speed
18 15 15 12 9 8 4 3 2 3 3 7 6 8 9 12 17 18 18 18 20 18 21 22 24 25 29 29 26 28 28 26 25 21 18 17 18 20 17 21 23 26 26
25 24 21 19 16 13 11 10 5 4 2 2 4 2 2 7 6 14 17 15 15 14 16 20 22 26 24 25 26 24 23 22 20 15 13 14 16 17 20 18 16 18 21
31 29 27 25 22 19 16 15 13 10 8 9 8 6 3 4 2 5 10 10 13 12 16 17 21 24 28 27 21 24 21 21 16 12 9 11 13 10 10 10 11 13 19
29 32 30 29 27 26 24 20 19 16 12 15 14 8 6 7 8 2 5 2 8 8 10 14 15 20 21 25 22 20 24 21 17 10 6 7 7 5 6 5 3 8 14
40 36 35 34 33 32 30 29 28 23 21 11 22 21 14 17 14 9 12 9 8 7 7 9 14 15 17 17 22 22 21 22 20 16 6 2 6 4 4 4 4 9 12
48 46 44 42 39 40 39 38 38 35 30 25 24 25 25 21 19 21 16 14 16 11 10 11 16 21 21 18 12 19 19 20 22 21 20 11 6 5 6 7 7 9 10
54 53 53 48 44 42 44 44 45 43 39 40 37 34 32 31 27 26 26 24 24 19 23 23 26 22 19 21 20 18 23 14 17 16 18 20 16 13 12 12 14 15 14
62 59 58 54 52 50 47 54 52 49 48 44 45 43 39 39 36 34 32 30 31 31 30 31 31 25 27 25 24 21 23 24 20 20 20 14 16 17 16 14 14 17 21
68 65 65 63 62 63 65 57 54 58 56 49 52 52 51 46 46 41 39 38 39 36 37 38 34 33 37 33 29 31 30 27 25 23 22 22 19 15 15 17 18 19 20
69 71 69 70 67 67 70 65 63 65 66 63 57 56 56 54 50 51 46 44 44 46 44 46 44 42 43 39 39 37 39 38 34 31 27 27 23 21 21 20 25 29 24
84 78 73 73 72 70 74 73 70 70 73 71 65 62 59 61 59 60 55 52 50 51 52 52 52 51 49 49 46 40 41 44 40 39 38 39 31 30 28 26 27 28 25
85 82 79 76 77 77 75 77 78 78 76 75 72 68 63 61 65 63 61 59 56 58 55 57 58 60 59 55 52 50 47 51 51 46 45 44 44 43 36 34 37 36 38
90 90 88 88 86 84 82 80 84 82 80 77 79 68 69 71 62 67 70 70 69 64 62 62 64 64 63 59 58 55 55 57 57 58 53 54 54 51 48 49 49 42 43
107 105 100 95 93 90 89 85 79 81 80 77 77 74 73 72 70 72 67 64 67 65 67 73 72 67 68 65 64 64 61 62 64 62 61 60 59 57 56 56 56 58 51
110 114 114 112 107 103 102 99 99 96 92 92 90 84 83 84 82 80 84 81 81 77 71 63 70 68 71 73 68 72 68 68 71 74 74 70 64 70 67 63 61 68 72
104 103 103 105 109 113 113 110 106 104 105 101 100 99 100 96 92 89 90 91 89 91 89 88 85 77 71 76 70 71 65 71 74 76 76 74 75 75 74 75 72 71 76
106 106 107 107 106 105 105 110 113 113 110 110 109 108 107 106 108 106 99 98 101 99 97 99 95 102 94 94 84 84 81 80 83 86 83 84 86 83 85 84 85 84 82
113 113 112 112 112 110 110 111 109 107 108 108 109 109 110 111 112 113 113 113 110 109 114 111 109 107 106 106 104 106 110 109 104 104 101 100 93 94 92 92 89 87 90
116 116 117 119 121 118 115 114 113 112 112 112 112 113 113 113 113 114 114 113 113 112 111 114 119 120 119 121 120 120 118 118 118 121 119 116 118 118 111 111 109 104 109
117 116 118 120 129 124 121 120 121 120 119 119 119 119 119 119 119 119 119 119 118 117 118 117 117 121 126 127 129 130 129 127 129 129 128 130 129 130 130 129 129 131 125
118 118 117 118 127 125 121 124 124 124 125 126 127 127 127 128 129 129 128 128 128 127 128 128 128 128 128 127 129 132 135 136 135 136 138 139 140 140 140 138 137 137 138
107 115 116 117 122 123 124 123 121 122 124 125 126 126 128 130 130 132 133 133 133 133 134 134 135 137 137 138 138 138 139 139 138 138 138 138 139 139 140 141 140 139 136
115 116 116 118 121 122 121 121 119 120 121 123 124 124 124 124 124 125 126 126 128 130 131 132 135 138 139 141 142 141 142 143 144 144 145 146 148 147 146 145 146 146 144
122 123 124 125 124 125 124 122 121 120 119 118 118 118 119 120 121 122 123 125 125 124 127 128 129 130 135 137 138 140 142 143 144 145 145 147 147 147 146 145 146 147 145
123 125 127 129 128 128 127 125 123 122 122 120 120 119 120 121 122 122 123 123 122 123 124 124 126 128 131 132 133 135 137 140 142 143 142 142 142 142 141 140 139 140 140
116 119 123 124 127 128 128 126 125 125 125 124 122 121 120 119 119 118 118 118 118 117 118 118 119 120 120 119 118 118 119 121 124 127 129 128 128 127 126 126 129 128 130

GFSGL_250_spd_108.txt.gz
Wind_Speed
15 6 8 10 13 11 9 8 5 10 6 2 7 4 4 11 16 18 19 21 23 29 33 32 31 32 33 26 23 18 17 19 18 17 16 13 5 7 9 12 15 17 17
19 15 12 11 15 17 15 13 11 10 10 8 5 5 3 1 8 15 14 13 14 18 24 27 30 30 30 31 27 18 11 10 6 5 4 4 5 10 13 12 10 12 14
22 23 23 21 20 22 22 18 18 15 14 15 12 10 5 6 4 7 12 12 10 11 12 18 24 25 24 23 26 27 22 10 2 2 4 3 2 6 12 9 9 5 8
22 37 30 30 28 28 30 28 25 22 18 19 18 17 11 7 6 7 8 12 10 9 9 10 13 19 20 20 21 22 21 24 22 15 7 5 7 6 3 11 8 6 2
38 38 31 37 36 34 32 32 32 31 28 23 22 21 18 16 13 11 13 16 15 12 13 12 11 13 16 20 17 18 20 21 19 20 19 11 10 9 8 10 7 7 7
51 52 51 43 43 34 36 35 32 30 32 32 31 29 26 25 23 22 14 15 17 18 20 18 18 18 16 21 23 19 17 18 20 20 19 21 15 12 10 10 12 11 11
62 56 54 49 50 41 38 37 34 31 32 32 35 35 35 33 32 31 32 30 27 26 24 21 23 22 23 25 25 25 23 20 17 20 22 22 18 20 19 16 13 8 10
58 61 61 54 55 55 48 46 39 35 36 32 34 35 36 38 38 40 40 40 39 37 31 28 30 30 31 31 32 35 32 30 27 24 25 23 26 26 25 26 17 15 11
65 60 65 63 62 63 57 56 54 56 53 54 51 51 50 49 47 47 51 51 50 49 46 42 39 37 36 36 35 34 33 36 36 35 31 27 29 31 29 29 25 22 21
71 68 66 71 69 69 68 64 62 61 60 62 61 55 57 55 54 53 54 53 55 55 55 56 52 49 47 42 42 41 40 41 42 41 41 39 37 34 36 39 37 37 35
76 76 78 74 70 72 73 73 68 69 68 66 67 66 65 60 58 60 61 61 59 59 58 59 60 61 56 54 53 49 51 47 48 49 45 45 45 41 42 40 40 42 45
87 83 83 81 79 80 80 78 76 74 74 74 71 71 72 68 65 61 65 69 70 70 70 70 70 69 67 63 60 63 58 56 55 56 53 53 48 48 49 47 46 46 45
104 101 95 90 82 84 82 85 87 87 84 83 85 80 78 79 78 75 73 72 76 79 77 76 75 75 74 72 67 65 66 66 59 59 61 59 57 55 54 52 53 52 55
94 91 96 94 86 90 89 86 91 90 84 87 84 85 86 84 81 80 83 79 80 83 84 81 80 80 77 75 67 61 61 64 64 63 62 60 62 59 61 63 61 62 61
107 109 104 108 102 101 98 93 92 84 79 82 86 86 86 86 85 92 87 87 83 86 88 85 81 80 78 75 78 72 67 68 75 76 73 69 70 71 73 67 65 63 62
118 113 113 116 117 115 112 111 112 107 105 103 103 98 96 91 91 89 91 92 92 92 94 95 95 89 84 85 85 87 87 93 91 89 90 83 78 80 79 79 77 76 74
116 118 119 119 122 120 116 117 118 117 116 114 115 112 110 110 114 106 107 112 116 107 106 101 101 102 97 100 100 100 94 94 92 91 92 92 97 99 99 91 97 97 95
116 116 116 120 122 121 121 122 121 123 124 122 120 120 120 118 119 122 121 123 120 114 112 109 114 112 113 110 107 109 110 110 109 109 112 106 106 111 109 110 109 106 105
115 117 117 118 120 124 126 128 127 125 122 123 125 127 127 127 128 127 123 120 117 115 115 114 116 114 114 113 112 118 119 116 116 116 116 120 121 120 121 122 120 118 119
112 115 116 117 120 123 122 123 123 122 122 121 124 121 123 124 124 124 123 120 120 120 119 117 117 116 117 119 119 118 117 117 118 119 118 119 119 120 121 122 123 122 124
109 110 112 117 119 120 120 121 123 125 126 125 125 127 128 129 128 125 126 127 125 125 126 125 123 124 123 123 124 123 124 124 124 125 127 128 129 129 130 130 130 130 132
110 111 111 115 115 117 121 118 120 123 125 127 125 129 128 129 129 129 129 130 129 129 130 129 128 127 127 127 127 126 125 125 126 127 128 130 130 132 133 134 134 136 137
98 107 112 113 114 116 117 118 119 122 122 125 126 127 130 130 129 129 130 131 131 131 131 130 131 131 130 131 130 127 126 126 127 127 128 131 133 133 134 135 137 140 143
110 113 117 117 118 118 118 118 116 116 118 117 116 118 124 127 127 127 127 125 126 127 127 126 125 125 124 124 121 117 115 116 115 113 113 114 117 117 120 122 126 132 134
113 116 117 119 119 120 120 120 121 119 118 117 118 120 121 123 124 124 125 124 124 123 120 118 117 116 115 115 115 114 114 116 115 115 119 118 117 120 121 124 126 129 130
116 117 117 120 123 126 126 126 123 121 119 119 119 117 118 121 122 123 122 122 121 120 118 119 120 120 118 121 125 124 124 127 127 128 129 128 129 129 128 130 124 122 118

GFSGL_250_spd_111.txt.gz
Wind_Speed
10 8 9 10 7 11 10 6 2 3 6 5 4 4 5 11 16 18 20 22 24 28 30 30 32 34 33 18 9 8 10 6 5 7 6 6 7 13 13 16 15 14 13
19 13 14 8 7 12 12 14 9 7 8 8 5 2 2 1 7 8 13 13 14 17 19 26 26 26 28 27 29 14 3 5 7 8 5 6 6 14 17 15 16 13 11
31 22 16 16 11 12 15 19 17 14 16 14 11 10 5 5 3 5 7 7 8 9 12 11 17 22 22 21 22 22 21 21 20 13 10 11 13 14 17 16 16 12 9
40 33 25 20 17 20 19 20 23 27 26 22 17 18 13 10 11 7 8 7 8 8 10 11 10 8 12 17 20 20 18 17 16 17 17 16 14 16 17 18 17 14 13
29 26 22 26 24 24 20 23 27 28 30 32 29 24 20 16 18 15 11 10 11 11 13 13 12 12 11 11 13 19 18 19 20 19 17 19 19 20 20 20 21 19 18
34 34 29 32 24 26 36 36 33 32 29 29 30 31 29 28 26 22 21 23 16 19 21 20 18 17 15 15 16 21 20 20 20 22 21 22 20 20 20 20 21 23 21
41 40 40 45 51 50 42 47 45 35 32 29 36 34 31 30 31 29 28 27 29 32 30 29 26 24 22 19 20 22 25 25 25 24 25 26 27 24 21 20 18 21 21
64 70 69 63 59 60 57 56 55 43 38 40 43 40 35 32 29 28 34 33 35 36 37 38 36 35 36 33 27 29 30 28 31 30 29 29 28 31 31 31 29 24 22
71 73 70 68 66 63 62 61 55 57 48 48 50 48 45 41 44 45 48 45 47 45 44 44 43 43 44 45 44 43 40 38 38 32 34 31 35 36 35 34 36 35 33
68 72 74 74 72 70 68 64 62 59 59 59 52 55 58 58 58 58 58 57 53 53 55 54 47 47 49 48 48 48 48 47 47 46 41 43 43 40 41 41 37 35 38
75 76 74 74 74 71 67 65 66 67 64 65 67 64 61 65 65 65 65 62 63 66 60 58 57 54 54 56 56 57 57 58 58 56 56 54 51 48 50 48 48 42 41
79 81 77 79 81 78 78 80 73 72 74 76 76 75 73 69 71 71 71 70 68 70 67 63 65 65 65 62 62 63 67 66 62 62 61 63 61 56 55 57 53 49 50
83 86 87 85 88 88 92 91 88 83 89 79 74 78 79 77 76 79 80 78 80 77 77 77 71 72 75 76 72 72 70 66 66 67 66 70 69 68 68 65 59 59 60
112 111 104 97 90 93 91 89 83 87 90 85 80 80 81 83 83 83 87 87 88 86 86 83 82 78 80 79 81 79 77 73 72 72 71 73 72 71 70 66 66 66 63
108 109 113 114 99 107 111 102 98 98 95 93 92 97 98 97 92 92 96 91 90 91 92 91 88 89 87 85 83 85 83 75 73 72 70 73 72 72 70 69 71 69 74
117 115 106 112 110 109 107 104 112 109 104 110 103 95 94 95 98 101 101 99 95 97 95 90 91 89 92 91 90 84 86 84 84 87 88 85 85 84 82 84 86 89 92
129 122 122 121 119 119 120 120 113 107 104 107 114 113 105 109 104 100 99 102 99 92 92 100 103 99 101 99 100 109 103 99 106 112 110 108 106 99 101 103 101 100 102
126 123 121 119 127 129 126 128 132 131 131 123 116 121 126 123 118 118 122 122 122 122 119 123 121 117 115 116 115 115 113 114 115 117 115 115 113 111 107 108 105 110 112
122 122 123 124 125 125 127 127 127 129 136 137 134 132 134 136 132 129 129 129 126 129 126 126 124 122 122 122 123 121 121 121 120 118 117 117 115 113 112 111 111 111 110
119 118 119 120 119 117 119 122 124 125 126 128 127 128 130 131 130 131 129 128 128 129 130 129 127 126 128 128 126 124 123 122 122 122 121 120 120 119 117 119 118 118 119
117 116 117 119 118 117 117 119 119 120 120 123 126 126 127 127 126 127 128 127 127 127 127 130 130 130 128 130 129 127 126 128 128 126 126 125 125 124 124 122 121 120 122
113 114 116 115 115 116 118 119 120 121 121 120 121 123 125 122 122 123 123 124 123 125 126 127 126 128 129 127 129 128 127 128 127 126 127 127 127 127 127 125 124 122 123
111 112 114 115 116 117 118 119 119 118 120 121 121 123 123 123 122 120 122 123 124 124 124 125 125 127 127 126 129 128 129 127 126 124 123 122 122 122 123 123 121 120 118
104 107 112 114 114 115 117 116 117 118 119 119 119 120 122 123 124 123 123 122 121 122 121 119 117 117 120 120 120 122 120 120 120 119 119 117 115 115 115 113 112 112 112
105 108 111 112 114 114 114 113 114 115 115 115 115 116 118 118 117 116 116 117 118 120 121 120 119 118 119 120 120 119 122 121 121 120 121 120 119 116 117 117 116 116 120
105 110 112 111 111 113 113 114 113 115 115 115 115 116 117 120 120 119 120 121 122 122 119 119 119 118 121 118 118 120 121 120 120 121 120 123 126 123 127 122 126 128 125

GFSGL_250_spd_114.txt.gz
Wind_Speed
12 6 6 8 8 8 6 5 7 7 4 7 7 4 4 9 11 12 14 19 23 25 26 28 29 29 28 25 20 15 14 16 19 18 17 17 19 24 28 21 19 17 19
20 14 10 10 9 9 7 6 6 7 7 7 5 4 2 3 6 5 7 8 12 16 15 18 21 25 24 22 22 23 23 24 21 18 16 18 20 23 24 22 18 16 17
25 25 17 16 13 9 9 7 6 6 9 13 10 8 6 2 3 3 8 4 6 9 12 13 11 13 16 17 20 20 18 18 17 15 21 22 20 21 22 22 17 18 18
28 23 28 26 21 21 17 15 10 10 13 14 16 14 14 10 10 9 8 11 10 6 8 11 13 12 14 11 13 15 20 21 21 20 16 19 18 18 17 18 20 21 22
36 30 30 38 40 27 22 19 15 14 16 16 21 20 19 19 18 16 14 16 15 16 11 12 13 14 16 14 15 14 16 18 19 20 20 23 23 23 23 24 24 22 20
43 43 35 32 37 41 33 25 21 18 23 30 31 28 22 23 26 27 26 24 22 18 17 16 21 24 23 23 20 19 21 21 21 22 22 22 24 23 24 25 27 28 27
45 34 24 35 41 42 43 33 32 32 38 41 36 33 29 29 32 33 32 28 28 26 27 22 26 29 29 28 29 32 32 28 26 27 28 29 29 28 26 25 25 30 31
48 46 49 47 43 44 45 47 46 44 53 51 45 40 38 36 36 36 37 36 32 27 30 32 35 34 34 33 36 39 39 38 38 35 35 32 33 30 32 31 32 31 32
58 57 58 53 52 54 58 59 60 59 57 55 52 48 47 44 43 41 44 43 34 35 41 40 45 45 44 42 43 45 42 40 42 44 42 40 40 39 41 40 39 38 34
59 56 62 64 62 62 64 61 63 67 68 62 54 53 54 53 52 51 47 46 51 54 52 53 54 54 55 54 55 54 52 49 48 52 50 50 49 50 49 49 49 49 47
53 53 64 70 63 72 79 80 77 74 77 69 67 61 58 58 60 54 59 55 55 57 60 61 63 60 61 63 62 61 61 59 62 57 58 57 55 53 52 56 57 53 50
43 46 61 78 80 77 78 79 80 81 78 78 66 61 58 60 64 64 64 66 70 73 69 67 67 67 68 68 67 68 66 67 69 67 67 67 65 64 58 55 56 56 56
68 65 61 64 82 90 89 88 85 88 89 81 70 65 70 75 77 75 78 76 74 73 70 68 73 77 79 74 75 74 75 74 77 78 75 74 70 71 71 68 66 65 63
78 91 94 94 84 85 90 95 92 85 83 82 85 86 86 80 85 86 83 80 77 73 78 78 78 82 82 80 82 85 86 85 84 84 81 82 83 84 79 79 73 65 64
96 86 87 94 98 99 96 96 98 95 91 93 95 90 89 91 90 88 87 83 85 83 82 86 84 83 86 89 93 95 90 92 93 94 96 92 92 88 87 80 79 75 76
109 112 110 100 95 96 95 90 94 93 97 96 88 91 93 95 99 96 93 92 89 88 87 86 91 98 100 102 99 103 100 98 95 97 95 93 90 92 94 91 95 91 90
111 111 115 120 114 106 111 109 113 104 104 104 104 100 96 99 102 100 100 102 101 101 102 100 98 100 100 96 96 98 95 95 99 101 104 101 107 115 112 117 115 121 111
134 131 125 126 124 121 119 120 120 117 113 115 113 116 114 113 116 118 117 114 112 110 115 112 111 115 114 116 115 118 115 115 119 122 123 123 124 125 125 123 117 115 117
137 137 138 139 140 137 135 133 132 132 130 127 129 131 127 126 123 128 128 123 123 124 124 126 130 129 131 129 131 129 126 128 130 135 135 131 126 124 124 122 121 118 116
129 136 140 139 138 139 139 139 137 138 141 144 142 142 145 145 139 136 136 137 134 134 133 131 132 132 132 128 127 129 134 133 130 128 129 128 125 123 121 122 122 119 119
133 133 133 134 134 136 139 140 139 137 136 137 140 140 140 142 144 141 137 134 133 130 129 130 128 125 126 126 124 125 126 126 125 124 124 123 124 123 121 121 123 121 123
126 129 131 133 134 135 136 138 139 137 137 136 136 137 138 138 136 132 131 130 130 129 127 126 126 126 126 126 124 123 124 124 124 124 124 123 123 122 121 121 121 120 118
123 125 127 127 128 129 130 132 134 135 133 131 131 133 133 132 132 131 131 132 132 129 128 126 124 124 125 125 124 125 124 123 124 122 121 121 121 121 121 120 118 118 118
113 117 119 122 125 128 128 127 128 129 129 127 127 130 130 130 131 129 128 128 130 130 128 127 126 126 127 128 125 123 123 123 123 121 121 120 119 119 116 118 121 119 117
95 102 108 112 115 116 119 121 123 125 128 128 127 126 126 127 129 127 124 124 124 125 125 124 124 122 122 124 124 123 121 120 118 117 115 116 117 119 120 119 118 118 118
77 84 91 100 104 107 109 112 113 115 117 116 115 114 113 113 113 114 113 113 114 116 118 118 117 117 117 117 118 117 116 115 114 115 118 120 122 125 126 123 121 123 121

GFSGL_250_spd_117.txt.gz
Wind_Speed
9 7 6 7 7 5 3 3 4 5 5 7 5 2 4 8 10 11 13 16 18 19 21 24 26 25 26 26 27 28 27 28 28 26 25 25 26 25 24 24 22 23 25
17 18 12 11 8 7 5 3 2 3 2 2 4 3 3 5 3 4 7 7 10 11 13 14 16 18 20 22 25 26 27 27 25 24 26 24 24 23 25 27 27 27 24
16 20 20 17 15 9 8 7 6 5 4 4 6 5 6 4 4 7 7 5 3 4 7 9 10 10 10 11 13 15 19 21 24 25 25 26 24 22 24 25 27 25 24
24 19 20 22 22 22 17 16 11 12 10 5 3 11 12 10 10 12 13 14 10 5 4 7 8 7 9 11 9 12 14 16 17 18 21 23 25 25 23 25 25 25 25
32 28 29 28 30 24 24 26 23 19 20 14 8 7 11 15 16 16 18 18 15 16 14 13 15 13 16 15 12 14 15 18 21 23 23 21 21 23 24 23 23 23 23
40 38 34 30 35 34 32 35 33 33 27 24 20 15 13 20 25 22 21 22 22 25 24 20 20 19 19 18 20 21 21 21 21 24 26 32 30 30 26 24 24 21 22
41 43 42 38 37 38 39 39 32 32 37 36 33 27 26 23 33 31 34 30 30 28 26 25 27 29 26 25 26 25 25 28 28 30 31 34 39 39 39 31 29 28 31
42 48 47 41 41 41 42 34 36 42 44 44 43 43 44 35 38 45 39 37 35 35 36 33 32 33 29 35 33 40 36 37 36 38 41 40 42 44 45 41 39 40 40
52 52 56 50 48 48 47 44 49 50 48 52 51 51 55 56 50 50 52 40 40 41 41 41 37 36 41 42 43 49 51 48 45 43 45 44 47 48 50 49 49 46 46
58 53 57 59 56 58 55 52 50 54 62 58 63 61 57 58 61 58 57 54 52 51 50 49 50 48 48 48 52 55 55 54 53 50 50 51 52 54 53 53 58 55 56
54 47 56 57 64 66 60 57 55 59 63 65 67 69 68 65 68 65 64 62 64 59 53 54 55 52 53 55 60 59 58 57 59 60 63 61 59 60 60 59 59 60 61
44 54 54 46 38 49 54 62 68 72 64 69 72 71 72 73 72 78 77 76 72 64 60 57 60 62 62 61 62 62 61 63 65 65 69 64 65 69 67 67 66 67 69
64 67 59 58 55 55 60 71 73 76 79 82 79 80 80 78 82 82 79 78 75 73 63 70 70 73 76 73 69 70 74 76 69 67 72 71 72 73 75 74 79 78 77
59 63 57 61 66 62 57 68 82 89 92 93 89 85 85 86 84 84 84 84 81 84 80 81 84 85 84 83 81 80 79 77 80 77 81 84 79 78 82 82 85 86 85
72 73 71 77 76 76 68 71 72 71 76 86 96 96 94 92 93 94 93 93 93 88 96 95 94 92 86 85 87 81 83 83 78 84 84 84 88 86 90 93 89 91 88
95 93 93 88 94 87 84 76 78 80 86 86 87 91 97 98 96 100 97 98 101 102 107 106 107 102 89 90 90 81 84 88 87 88 87 90 92 94 94 88 89 89 93
96 103 103 94 97 99 103 99 100 103 91 89 93 95 97 101 106 105 105 112 108 106 103 91 86 88 87 82 87 89 92 95 93 91 101 105 104 110 105 109 112 110 113
106 104 100 104 98 101 107 110 107 105 103 104 106 110 102 97 96 95 95 92 96 93 92 90 97 104 105 110 116 112 111 114 120 123 119 124 123 120 122 121 120 119 120
122 119 120 120 115 116 116 114 116 117 117 116 116 116 118 120 123 122 122 125 128 128 130 133 133 131 130 129 132 134 133 131 130 126 124 125 120 117 115 116 116 115 114
138 136 137 138 135 135 130 133 135 137 138 137 139 145 141 140 140 138 138 141 143 140 140 140 144 144 139 139 137 136 140 135 130 128 130 129 125 122 119 117 117 117 116
138 141 146 150 151 148 150 152 151 152 150 151 153 152 150 150 147 148 148 147 149 153 149 145 144 146 145 141 136 137 136 133 131 128 127 125 123 124 122 120 118 118 116
133 138 140 143 148 153 157 158 160 161 161 161 159 159 157 156 156 155 155 154 154 153 151 148 144 142 142 141 138 137 135 132 130 128 127 126 123 121 121 120 120 120 118
132 134 136 136 138 140 144 148 152 155 156 156 156 156 156 155 155 156 157 154 150 148 148 147 143 140 138 138 136 131 129 128 127 127 126 126 125 124 124 124 124 124 121
115 119 124 130 135 135 136 137 139 143 148 149 150 150 149 149 148 149 149 147 145 144 143 141 139 138 137 135 132 130 129 130 129 128 127 125 124 124 125 122 122 122 123
80 88 95 101 109 117 126 131 134 136 141 145 147 148 148 147 147 147 146 144 144 141 141 140 139 138 137 136 135 134 131 129 127 125 124 124 122 122 123 124 123 122 123
56 62 69 76 84 92 98 104 110 116 123 127 128 129 131 132 133 133 133 133 133 132 131 131 130 128 128 128 127 127 126 123 121 119 119 118 118 119 120 121 121 120 120

GFSGL_250_spd_120.txt.gz
Wind_Speed
6 4 3 4 4 2 4 5 7 8 8 8 5 2 5 6 7 11 11 13 13 14 16 16 18 20 22 23 25 28 29 29 30 30 30 29 30 31 30 31 31 31 32
11 9 11 8 8 7 4 4 7 9 8 6 4 2 2 2 2 3 4 5 7 7 9 9 10 10 12 12 12 15 17 19 23 25 23 25 26 27 27 28 27 27 27
18 13 10 13 11 10 10 8 7 7 9 7 5 4 2 4 4 5 7 8 11 10 7 7 7 8 10 11 9 13 16 18 20 21 18 21 23 27 25 22 22 21 23
23 22 16 11 10 13 15 14 13 11 9 9 11 10 7 3 7 10 11 12 12 12 12 14 13 11 10 12 12 15 17 20 20 21 22 22 24 29 32 34 26 21 21
29 28 24 23 19 19 20 20 18 21 23 14 13 11 9 7 3 5 8 11 12 13 15 20 21 18 18 14 15 16 16 17 21 21 21 24 24 25 30 31 32 31 26
35 36 34 29 28 27 26 25 30 25 28 28 24 22 20 17 13 12 14 18 19 21 21 20 22 21 20 20 23 25 24 19 22 28 23 28 30 30 30 32 34 34 29
39 34 38 37 36 34 34 33 30 34 34 37 36 28 29 28 29 28 24 20 22 28 30 29 26 23 24 24 27 25 27 25 30 33 36 31 30 31 28 32 36 36 35
47 42 39 41 44 42 38 40 40 37 40 35 30 36 32 35 39 39 41 42 39 37 38 36 32 31 31 31 31 31 33 32 34 36 39 38 37 35 36 39 43 39 38
49 45 38 39 45 46 47 45 46 44 45 47 43 42 40 39 43 46 47 50 51 50 45 46 43 41 42 42 41 40 43 42 42 42 45 43 40 39 43 44 46 46 47
58 54 52 57 53 45 57 55 57 56 54 52 50 51 52 51 52 53 53 58 63 57 56 56 54 51 48 48 45 47 50 51 47 46 50 50 49 49 54 55 52 52 47
62 59 43 58 65 60 57 56 59 60 59 58 59 56 55 59 60 65 68 65 66 68 61 66 63 56 57 59 61 55 55 54 56 61 61 58 55 56 58 61 65 61 57
64 62 61 66 62 62 66 67 64 66 63 67 69 66 66 69 72 65 67 69 69 70 75 76 70 66 66 68 62 61 65 57 62 60 64 66 72 68 67 66 68 67 67
70 64 61 63 60 54 55 57 60 60 61 57 62 65 64 68 72 72 72 74 77 77 77 77 76 76 75 75 72 69 66 67 73 77 78 77 78 79 75 69 71 70 69
74 68 68 64 62 57 54 53 63 64 68 64 66 67 69 73 78 85 85 86 81 85 84 85 85 81 80 82 80 73 75 78 80 84 88 93 93 90 83 77 80 77 77
79 74 78 74 69 69 68 69 66 73 72 77 75 79 79 83 86 91 91 89 91 89 91 93 92 92 90 84 91 87 87 86 87 93 97 100 96 88 83 83 77 77 83
83 81 86 92 86 80 84 81 80 82 80 74 84 84 84 85 89 93 93 94 96 99 92 91 102 101 98 97 94 93 95 98 99 93 98 97 95 82 80 78 88 105 108
89 88 90 93 95 98 95 91 87 94 96 85 87 85 85 88 90 91 93 91 93 88 87 91 93 96 102 95 97 96 97 95 91 90 92 88 81 83 96 116 119 123 125
96 95 92 99 98 100 100 101 100 102 105 102 98 94 92 100 105 106 101 103 102 98 96 99 100 104 103 104 101 106 110 104 106 104 110 104 112 125 132 135 134 130 129
100 96 99 99 99 105 109 110 107 105 110 111 109 106 106 105 107 111 105 102 105 106 110 110 114 115 110 114 114 114 114 114 118 127 132 139 137 136 137 138 138 134 129
114 114 112 111 109 111 111 113 110 112 117 121 123 126 126 129 124 116 120 126 124 124 126 124 121 127 127 128 129 131 131 133 141 145 142 144 143 143 141 137 132 132 129
133 131 128 126 123 121 121 123 127 129 128 132 136 138 132 124 124 132 133 141 136 135 133 135 140 141 144 145 146 147 145 151 156 151 145 145 150 150 148 140 133 131 130
141 141 140 137 131 131 136 135 135 132 131 134 138 141 139 140 142 148 142 139 144 146 150 154 155 154 155 160 159 163 164 164 164 165 162 155 148 143 140 136 132 131 129
131 136 141 144 146 148 145 143 145 150 150 148 150 153 155 157 155 153 155 157 158 160 160 159 161 169 170 170 170 171 170 165 160 156 151 150 147 141 138 137 135 129 126
122 126 130 135 142 146 147 148 152 157 160 160 160 162 164 168 169 171 173 175 175 173 172 173 173 169 169 167 164 164 159 157 153 150 147 144 142 139 136 131 129 126 125
92 99 106 113 120 128 135 142 148 153 155 157 159 160 162 165 167 166 167 167 170 171 167 164 161 157 152 149 150 149 149 148 145 142 138 136 134 131 129 127 127 129 128
65 70 75 80 85 91 98 105 112 120 127 133 138 142 144 147 148 149 149 149 149 149 149 147 144 141 139 137 133 129 128 126 124 122 121 120 119 120 121 122 122 122 121